     2.11           OBSERVATION DATA    G (GPS)             RINEX VERSION / TYPE
teqc 2010Oct21 OPUS Account 20111026 16:10:09UTC            PGM / RUN BY / DATE
Q 1522                                                      MARKER NAME
1170                                                        MARKER NUMBER
DBPROUTY NGS                                                OBSERVER / AGENCY
0220390614 TRIMBLE R7 2.32                                  REC # / TYPE / VERS
12668881 TRM41249.00 NONE                                   ANT # / TYPE
  -738053.8505 -5496298.5568  3140267.6009                  APPROX POSITION XYZ
        2.0000        0.0000        0.0000                  ANTENNA: DELTA H/E/N
     1     1                                                WAVELENGTH FACT L1/2
     5    L1    L2    C1    P1    P2                        # / TYPES OF OBSERV
    15                                                      LEAP SECONDS
  2011     8     1     0     0   30.0000000     GPS         TIME OF FIRST OBS
                                                            END OF HEADER
 11  8  1  0  0 30.0000000  0  9G09G28G10G17G12G04G27G20G02
 -35014206.60257 -26926790.91855  22156472.0394                   22156472.0634
-118423687.58257 -92237331.46155  22215398.7894                   22215397.5434
 -20926331.11757 -16260408.79754  23015740.5164                   23015741.6764
 -94879442.98457 -73881884.49656  21664436.4534                   21664435.2774
  -1621662.59057  -1220627.60253  24614797.8834                   24614796.0944
 -70404913.11358 -54810523.03156  19953054.7814                   19953053.7544
 -50728633.50057 -38718388.18455  22476943.6254                   22476943.1094
 -30889183.12956 -24031317.03953  24583816.0704                   24583816.1724
 -37009394.18758 -28781054.87556  21938788.0944                   21938785.5044
 11  8  1  0  1  0.0000000  0  9G09G28G10G17G12G04G27G20G02
 -35141876.82447 -27026274.22345  22132176.9774                   22132177.3284
-118481934.09447 -92282718.39145  22204314.5864                   22204313.7814
 -21136536.96547 -16424205.46144  22975739.3284                   22975740.6024
 -94966109.83247 -73949417.11746  21647944.1884                   21647942.9454
  -1838735.52046  -1389775.30543  24573490.6254                   24573489.2894
 -70520278.07848 -54900417.79347  19931101.5084                   19931100.1484
 -50843989.69947 -38808276.16445  22454992.8524                   22454992.3794
 -30958104.55146 -24085022.09043  24570701.0554                   24570701.1804
 -37198653.29747 -28928529.45346  21902773.0004                   21902770.4804
 11  8  1  0  1 30.0000000  0  9G09G28G10G17G12G04G27G20G02
 -35268763.29747 -27125146.81245  22108031.3834                   22108030.9144
-118539667.36747 -92327705.40645  22193328.1884                   22193327.0514
 -21346443.30547 -16587768.72344  22935795.2274                   22935795.9734
 -95052548.03547 -74016771.56646  21631495.7664                   21631494.6134
  -2055676.08646  -1558819.81244  24532208.0314                   24532207.6684
 -70634948.13348 -54989771.07847  19909280.8984                   19909279.2934
 -50958721.49247 -38897677.59045  22433159.2034                   22433159.0984
 -31026421.62946 -24138256.24643  24557700.7274                   24557700.5594
 -37387437.05548 -29075633.63346  21866848.4384                   21866846.5204
 11  8  1  0  2  0.0000000  0  9G09G28G10G17G12G04G27G20G02
 -35394891.31647 -27223428.41045  22084029.9614                   22084029.3914
-118596911.96147 -92372311.64145  22182435.1094                   22182433.7034
 -21556071.33647 -16751115.09444  22895904.5084                   22895905.2114
 -95138782.15248 -74083966.98446  21615086.4064                   21615085.1954
  -2272506.80947  -1727778.73444  24490946.5084                   24490946.5124
 -70748948.88348 -55078602.82446  19887586.9844                   19887585.6644
 -51072854.03147 -38986612.07845  22411440.6334                   22411440.5554
 -31094159.79746 -24191039.27743  24544810.4844                   24544809.7504
 -37575768.87548 -29222385.66046  21831010.4774                   21831007.8524
 11  8  1  0  2 30.0000000  0  9G09G28G10G17G12G04G27G20G02
 -35520263.40647 -27321120.93745  22060172.2664                   22060171.5394
-118653670.73847 -92416539.31245  22171633.7734                   22171633.1334
 -21765419.84847 -16914243.70344  22856066.4694                   22856067.8284
 -95224814.67647 -74151005.31246  21598714.5634                   21598712.9024
  -2489228.34447  -1896652.60244  24449706.2034                   24449706.2114
 -70862283.73448 -55166915.68746  19866019.9224                   19866018.7344
 -51186390.45347 -39075082.05545  22389835.2664                   22389835.3524
 -31161322.54746 -24243373.89543  24532030.3444                   24532030.0044
 -37763649.92648 -29368786.43446  21795257.3674                   21795255.0314
 11  8  1  0  3  0.0000000  0  9G09G28G10G17G12G04G27G20G02
 -35644874.94547 -27418220.87545  22036459.8284                   22036459.2734
-118709939.45347 -92460385.11745  22160926.6644                   22160925.4964
 -21974480.74647 -17077148.16444  22816283.6954                   22816284.4494
 -95310640.52347 -74217882.59846  21582382.2504                   21582381.2854
  -2705834.13347  -2065436.28144  24408487.3524                   24408487.3714
 -70974949.01248 -55254706.80546  19844580.5864                   19844578.9964
 -51299326.68447 -39163084.34045  22368344.2734                   22368343.8204
 -31227906.77046 -24295257.76642  24519359.3054                   24519360.0594
 -37951074.32048 -29514831.38746  21759591.7974                   21759589.6804
 11  8  1  0  3 30.0000000  0  9G09G28G10G17G12G04G27G20G02
 -35768728.57847 -27514730.24245  22012891.3674                   22012890.8634
-118765720.71547 -92503851.09445  22150311.8204                   22150311.3014
 -22183253.14847 -17239827.84044  22776555.5704                   22776556.5944
 -95396262.47348 -74284601.00446  21566089.2664                   21566087.9104
  -2922324.89846  -2234130.34043  24367290.4694                   24367290.5164
 -71086948.21148 -55341978.89846  19823267.9224                   19823266.5004
 -51411666.08647 -39250621.56645  22346967.1884                   22346966.6134
 -31293916.51646 -24346693.92642  24506798.5634                   24506798.2074
 -38138043.42648 -29660521.55546  21724012.9384                   21724010.6724
 11  8  1  0  4  0.0000000  0  9G09G28G10G17G12G04G27G20G02
 -35891825.29347 -27610649.78145  21989466.3834                   21989465.8444
-118821015.29347 -92546937.84045  22139789.3674                   22139788.8594
 -22391734.03947 -17402280.34844  22736883.1484                   22736883.6844
 -95481681.01648 -74351160.91446  21549834.5864                   21549833.4104
  -3138699.27046  -2402733.63743  24326114.3984                   24326116.2704
 -71198283.04348 -55428733.30547  19802081.6024                   19802080.2544
 -51523409.79347 -39337694.62145  22325703.0394                   22325702.6564
 -31359352.70346 -24397683.21543  24494345.4924                   24494346.2734
 -38324556.77048 -29805856.58646  21688520.0084                   21688518.0594
 11  8  1  0  4 30.0000000  0  8G09G28G10G17G12G04G27G02
 -36014166.23047 -27705980.40245  21966185.9144                   21966185.4144
-118875824.64547 -92589646.46945  22129360.0234                   22129359.1094
 -22599921.02347 -17564503.86744  22697265.8364                   22697267.2344
 -95566896.89848 -74417562.90246  21533618.3594                   21533617.3094
  -3354956.02346  -2571245.38343  24284963.0394                   24284962.6764
 -71308955.07448 -55514971.22346  19781021.3134                   19781019.7814
 -51634559.22347 -39424304.58645  22304552.0944                   22304551.3204
 -38510614.34848 -29950836.47346  21653114.9844                   21653112.1564
 11  8  1  0  5  0.0000000  0  8G09G28G10G17G12G04G27G02
 -36135749.15247 -27800720.35945  21943049.4614                   21943049.1134
-118930146.41847 -92631975.16445  22119022.5474                   22119021.8554
 -22807807.79747 -17726493.45344  22657706.2424                   22657707.2234
 -95651907.05947 -74483804.61346  21517441.4614                   21517440.0864
  -3571090.73046  -2739661.89843  24243833.3834                   24243834.2424
 -71418962.63748 -55600691.39546  19760087.4224                   19760086.3794
 -51745112.39147 -39510449.94945  22283514.0554                   22283514.0314
 -38696212.42248 -30095458.31646  21617796.7814                   21617793.8404
 11  8  1  0  5 30.0000000  0  8G09G28G10G17G12G04G27G02
 -34681147.86747 -26667264.84045  22219851.1564                   22219850.1764
-117408556.38347 -91446320.66045  22408572.0394                   22408570.5664
 -21439961.53947 -16660639.10544  22917998.8594                   22918000.1644
 -94161286.10248 -73322281.80146  21801097.3674                   21801095.5744
  -2211671.52346  -1680374.17643  24502521.5634                   24502522.8404
 -69952880.97348 -54458290.07847  20039073.5394                   20039072.1564
 -50279643.78547 -38368526.38745  22562383.4064                   22562383.3954
 -37305921.04748 -29012114.35246  21882360.4224                   21882357.8794
 11  8  1  0  6  0.0000000  0  8G09G28G10G17G12G04G27G02
 -34801199.43047 -26760811.53545  22197006.3524                   22197005.0234
-117461887.52047 -91487877.44545  22398423.7194                   22398422.3594
 -21647221.20747 -16822140.00844  22878558.5394                   22878559.1414
 -94245868.16848 -73388189.91046  21785001.9224                   21785000.6174
  -2427539.78546  -1848583.11343  24461443.2344                   24461444.0234
 -70061546.60948 -54542964.57846  20018395.1954                   20018394.0274
 -50388990.08648 -38453731.31245  22541575.0944                   22541575.1914
 -37490580.05948 -29156004.43446  21847221.0314                   21847218.6604
 11  8  1  0  6 30.0000000  0  8G09G28G10G17G12G04G27G02
 -34920482.33647 -26853759.27345  22174306.4384                   22174305.8914
-117514720.51247 -91529046.05945  22388369.4224                   22388368.2854
 -21854158.41047 -16983389.65244  22839179.0554                   22839180.1764
 -94330232.49248 -73453928.37146  21768948.1254                   21768946.5704
  -2643268.24646  -2016683.14143  24420392.4064                   24420391.4884
 -70169539.69148 -54627115.02346  19997844.8984                   19997843.0514
 -50497730.80947 -38538464.36745  22520882.5234                   22520882.6524
 -37674764.67648 -29299524.87946  21812172.0554                   21812169.1914
 11  8  1  0  7  0.0000000  0  8G09G28G10G17G12G04G27G02
 -35038997.73447 -26946108.95345  22151754.2734                   22151753.1254
-117567056.46547 -91569827.38345  22378409.9304                   22378409.3444
 -22060770.34847 -17144385.82044  22799862.2424                   22799863.3524
 -94414379.52748 -73519497.50446  21752935.5554                   21752934.0164
  -2858855.80146  -2184673.43444  24379367.2974                   24379366.1374
 -70276861.81248 -54710742.63346  19977422.3054                   19977420.9694
 -50605867.21947 -38622726.52745  22500305.4844                   22500304.7464
 -37858474.39848 -29442675.27046  21777212.9304                   21777210.2664
 11  8  1  0  7 30.0000000  0  8G09G28G10G17G12G04G27G02
 -35156749.13347 -27037863.32845  22129346.9224                   22129345.9924
-117618898.71547 -91610223.99645  22368545.4384                   22368544.6684
 -22267056.48847 -17305128.12944  22760607.5634                   22760608.2544
 -94498312.28948 -73584899.67246  21736963.6954                   21736961.8164
  -3074303.38346  -2352554.58643  24338368.9384                   24338368.2814
 -70383516.94148 -54793850.52346  19957126.1414                   19957124.7974
 -50713403.00447 -38706520.68045  22479842.5004                   22479841.9574
 -38041711.14848 -29585457.10546  21742344.4614                   21742341.2504
 11  8  1  0  8  0.0000000  0  8G09G28G10G17G12G04G27G02
 -35273741.07047 -27129025.89545  22107084.4304                   22107083.3554
-117670251.87147 -91650239.50445  22358773.2114                   22358772.5394
 -22473017.76247 -17465617.31244  22721414.3754                   22721415.1844
 -94582034.65648 -73650137.91446  21721031.9844                   21721029.8794
  -3289613.15646  -2520328.41044  24297396.8204                   24297396.6094
 -70489510.40648 -54876442.82046  19936956.1254                   19936955.0164
 -50820342.96148 -38789850.54345  22459492.1954                   22459492.2114
 -38224478.10548 -29727872.85946  21707564.6644                   21707561.7854
 11  8  1  0  8 30.0000000  0  8G09G28G10G17G12G04G27G02
 -35389971.05547 -27219594.73045  22084965.8364                   22084965.0394
-117721113.02347 -91689871.62945  22349094.5394                   22349093.5944
 -22678647.07447 -17625847.80944  22682283.9304                   22682284.6254
 -94665543.25847 -73715209.57046  21705140.5784                   21705138.6604
  -3504779.77347  -2687990.66044  24256452.2814                   24256452.3134
 -70594839.96948 -54958517.80546  19916912.5784                   19916911.6414
 -50926684.80148 -38872714.34845  22439255.9304                   22439255.6954
 -38406770.92648 -29869919.17246  21672875.5394                   21672872.5864
 11  8  1  0  9  0.0000000  0  8G09G28G10G17G12G04G27G02
 -35505439.90647 -27309570.48845  22062993.5704                   22062992.5594
-117771482.82847 -91729120.88745  22339509.6094                   22339508.3714
 -22883941.09047 -17785817.05544  22643217.4694                   22643219.0274
 -94748838.11347 -73780114.67246  21689290.1414                   21689288.2424
  -3719801.48047  -2855539.97344  24215534.9454                   24215535.1644
 -70699507.14548 -55040076.63746  19896995.0474                   19896994.1374
 -51032429.51647 -38955112.83645  22419133.3984                   22419133.1604
 -38588588.99648 -30011595.54346  21638276.6954                   21638273.7544
 11  8  1  0  9 30.0000000  0  8G09G28G10G17G12G04G27G02
 -35620151.52347 -27398956.18445  22041164.4844                   22041163.6454
-117821365.24247 -91767990.37544  22330017.0864                   22330015.7774
 -23088899.96147 -17945525.14544  22604215.2194                   22604216.3094
 -94831921.92647 -73844855.30946  21673480.0234                   21673478.4224
  -3934679.85947  -3022977.64144  24174644.4694                   24174645.0784
 -70803516.59048 -55121122.95746  19877202.8204                   19877201.6644
 -51137581.32447 -39037049.34845  22399123.5634                   22399123.1844
 -38769934.62948 -30152903.78546  21603767.8834                   21603764.7154
 11  8  1  0 10  0.0000000  0  8G09G28G10G17G12G04G27G02
 -35734106.02047 -27487751.92245  22019479.7974                   22019478.7504
-117870760.10947 -91806479.94944  22320617.2194                   22320616.3014
 -23293519.48847 -18104968.82444  22565277.4384                   22565278.4804
 -94914794.10947 -73909431.04346  21657710.1254                   21657708.0634
  -4149411.65247  -3190301.11344  24133782.3134                   24133782.7774
 -70906868.75048 -55201657.11746  19857536.0004                   19857534.2854
 -51242140.25448 -39118523.87145  22379227.1954                   22379226.9304
 -38950806.00848 -30293842.48046  21569348.8674                   21569346.1524
 11  8  1  0 10 30.0000000  0  8G09G28G10G17G12G04G27G02
 -35847307.21147 -27575960.67245  21997938.6094                   21997937.9024
-117919670.91447 -91844592.33245  22311310.4844                   22311309.6764
 -23497799.15647 -18264147.66845  22526404.1484                   22526404.7734
 -94997457.89848 -73973844.39546  21641979.6644                   21641977.8164
  -4363998.22747  -3357511.37944  24092947.6414                   24092948.5554
 -71009567.88748 -55281682.40646  19837992.6954                   19837991.5474
 -51346110.67647 -39199539.80145  22359441.7734                   22359441.4064
 -39131205.56248 -30434413.52346  21535020.1644                   21535016.9024
 11  8  1  0 11  0.0000000  0  8G09G28G10G17G12G04G27G02
 -35959753.66447 -27663581.29345  21976540.5634                   21976539.7234
-117968096.10947 -91882326.32845  22302095.4064                   22302095.1564
 -23701733.17647 -18423057.18744  22487596.8284                   22487597.0984
 -95079910.68448 -74038093.32046  21626289.2894                   21626287.2774
  -4578435.40646  -3524605.22344  24052142.3054                   24052142.3524
 -71111613.15648 -55361198.20347  19818574.3284                   19818573.1994
 -51449491.17647 -39280096.07845  22339769.2114                   22339768.8524
 -39311130.22748 -30574614.53146  21500781.3984                   21500778.5124
 11  8  1  0 11 30.0000000  0  8G09G28G10G17G12G04G27G02
 -36071446.45747 -27750614.66045  21955285.6024                   21955285.2814
-118016036.85547 -91919682.82845  22292972.9774                   22292971.7114
 -23905318.60547 -18581695.07444  22448856.3204                   22448855.6684
 -95162152.87548 -74102178.16046  21610638.9304                   21610636.7734
  -4792721.66046  -3691581.50043  24011365.0394                   24011364.1174
 -71213006.46548 -55440205.97346  19799279.6024                   19799278.1994
 -51552283.11747 -39360193.71145  22320208.5474                   22320208.3054
 -39490579.54748 -30714445.11746  21466633.4614                   21466630.2854
 11  8  1  0 12  0.0000000  0  8G09G28G10G17G12G04G27G02
 -36182390.41847 -27837064.51645  21934174.0784                   21934173.8204
-118063497.70348 -91956665.36344  22283941.1724                   22283940.8054
 -24108556.23847 -18740061.95744  22410180.1094                   22410181.1764
 -95244188.35248 -74166101.91446  21595027.9384                   21595026.3324
  -5006859.25847  -3858441.87144  23970615.9844                   23970615.5204
 -71313753.34048 -55518710.02346  19780107.9384                   19780107.1604
 -51654491.94147 -39439836.96945  22300758.7344                   22300758.1954
 -39669556.78148 -30853907.87146  21432574.7734                   21432572.0984
 11  8  1  0 12 30.0000000  0  8G09G28G10G17G12G04G27G02
 -34717158.35947 -26695325.26245  22212998.5084                   22212997.5704
-116535053.64547 -90765670.07844  22574794.5394                   22574793.9104
 -22736011.71947 -17670546.66844  22671367.7344                   22671367.6024
 -93750589.63748 -73002258.77046  21879250.1884                   21879248.7854
  -3645414.36347  -2797575.64143  24229690.2894                   24229689.4804
 -69838427.13748 -54369105.18446  20060853.1644                   20060851.8244
 -50180690.68047 -38291420.43045  22581214.2584                   22581212.9184
 -38272630.61348 -29765393.92246  21698401.0084                   21698397.9654
 11  8  1  0 13  0.0000000  0  8G09G28G10G17G12G04G27G02
 -34826595.41447 -26780600.91845  22192173.5784                   22192172.3794
-116581545.08647 -90801897.25445  22565947.6564                   22565946.9264
 -22938531.76647 -17828354.40644  22632828.9384                   22632829.2934
 -93832199.12547 -73065850.60246  21863720.5314                   21863719.0784
  -3859236.03947  -2964189.89544  24189001.6174                   24188999.7234
 -69937872.96548 -54446595.43446  20041929.5554                   20041928.2194
 -50281724.16848 -38370147.84845  22561987.8754                   22561986.9534
 -38450649.12548 -29904109.61746  21664525.3754                   21664522.4734
 11  8  1  0 13 30.0000000  0  8G09G28G10G17G12G04G27G02
 -34935287.53947 -26865296.08645  22171489.9144                   22171489.2974
-116627559.77747 -90837752.93745  22557191.3984                   22557190.6644
 -23140694.85547 -17985883.99244  22594358.3834                   22594358.5664
 -93913602.23448 -73129281.60546  21848230.1644                   21848228.4924
  -4072903.93447  -3130684.30944  24148341.4614                   24148340.0664
 -70036677.71148 -54523586.14146  20023127.3204                   20023126.2114
 -50382178.80948 -38448424.21545  22542872.4454                   22542871.9304
 -38628194.10948 -30042456.30546  21630739.4614                   21630736.7894
 11  8  1  0 14  0.0000000  0  8G09G28G10G17G12G04G27G02
 -35043232.63747 -26949409.15645  22150948.7424                   22150948.1914
-116673095.06647 -90873235.05144  22548526.5314                   22548525.4104
 -23342494.37147 -18143130.27744  22555956.9774                   22555957.4774
 -93994796.06248 -73192549.53946  21832779.3364                   21832778.2504
  -4286412.85947  -3297054.84843  24107712.1174                   24107710.5514
 -70134839.50048 -54600075.84446  20004448.0944                   20004446.7194
 -50482052.35247 -38526247.78945  22523866.5784                   22523865.7424
 -38805261.82048 -30180431.10546  21597044.9224                   21597042.4384
 11  8  1  0 14 30.0000000  0  8G09G28G10G17G12G04G27G02
 -35150431.29347 -27032940.59045  22130549.8364                   22130548.9064
-116718151.53947 -90908344.03545  22539952.0704                   22539951.3984
 -23543926.22347 -18300090.07445  22517626.4384                   22517626.7154
 -94075779.53148 -73255653.54346  21817368.9304                   21817367.2384
  -4499760.34447  -3463299.65643  24067113.5004                   24067110.9344
 -70232359.33248 -54676065.32046  19985890.5864                   19985889.8134
 -50581345.62147 -38603619.18445  22504971.7194                   22504971.6134
 -38981851.19948 -30318033.16846  21563440.7034                   21563438.2034
 11  8  1  0 15  0.0000000  0  8G09G28G10G17G12G04G27G02
 -35256881.12147 -27115888.52345  22110293.1174                   22110292.0864
-116762726.53147 -90943077.86344  22531469.8054                   22531469.4024
 -23744983.96147 -18456758.34444  22479365.6884                   22479365.8094
 -94156549.56648 -73318591.24646  21801998.8914                   21801997.0944
  -4712940.80147  -3629414.26243  24026546.7814                   24026544.4534
 -70329235.33248 -54751553.09846  19967455.2424                   19967453.9304
 -50680056.26648 -38680536.60945  22486188.2664                   22486187.7074
 -39157957.59848 -30455258.89146  21529928.7034                   21529926.1644
 11  8  1  0 15 30.0000000  0  8G09G28G10G17G12G04G27G02
 -35362585.71548 -27198255.75845  22090177.6564                   22090176.8554
-116806823.28947 -90977439.03944  22523078.6884                   22523077.8754
 -23945666.62147 -18613134.34844  22441177.7034                   22441177.5744
 -94237108.40648 -73381364.38346  21786668.7814                   21786667.0864
  -4925954.76647  -3795399.12943  23986010.7194                   23986008.3984
 -70425471.52348 -54826542.34446  19949142.6564                   19949141.2974
 -50778188.29748 -38757003.16845  22467514.5864                   22467513.7194
 -39333583.33248 -30592110.04746  21496508.5084                   21496505.8984
 11  8  1  0 16  0.0000000  0  8G09G28G10G17G12G04G27G02
 -35467544.27347 -27280041.66045  22070204.8754                   22070204.3524
-116850440.96547 -91011426.93744  22514779.5314                   22514778.0314
 -24145968.83247 -18769213.89145  22403060.0704                   22403061.3984
 -94317454.03948 -73443971.38746  21771380.0704                   21771378.2894
  -5138798.26247  -3961251.19144  23945508.3524                   23945505.8874
 -70521067.78548 -54901032.93046  19930951.0704                   19930949.7234
 -50875741.04748 -38833018.32445  22448950.4844                   22448950.4144
 -39508725.48448 -30728584.39546  21463179.9774                   21463176.8244
 11  8  1  0 16 30.0000000  0  8G09G28G10G17G12G04G27G02
 -35571757.12948 -27361246.48845  22050373.7664                   22050373.1054
-116893579.53947 -91045041.47344  22506570.1884                   22506569.0944
 -24345887.01647 -18924994.18745  22365017.4304                   22365017.9964
 -94397585.32848 -73506411.37146  21756131.3204                   21756129.7384
  -5351469.15247  -4126968.69944  23905038.2274                   23905036.5864
 -70616024.74248 -54975025.36346  19912881.4614                   19912880.1024
 -50972714.85248 -38908582.36745  22430497.5084                   22430496.4454
 -39683382.63748 -30864680.81246  21429943.7584                   21429940.8554
 11  8  1  0 17  0.0000000  0  8G09G28G10G17G12G04G27G02
 -35675228.05947 -27441873.18445  22030683.4774                   22030683.2934
-116936242.02348 -91078285.02344  22498451.9614                   22498450.7734
 -24545419.76647 -19080474.16444  22327047.7424                   22327047.8524
 -94477504.93048 -73568686.40246  21740922.9844                   21740921.9024
  -5563967.54746  -4292551.81244  23864600.3984                   23864599.4414
 -70710346.50048 -55048522.84446  19894932.6174                   19894931.3874
 -51069113.49248 -38983698.21545  22412153.1174                   22412152.7854
 -39857556.87948 -31000400.94146  21396799.6174                   21396796.7194
 11  8  1  0 17 30.0000000  0  8G09G28G10G17G12G04G27G02
 -35777961.65647 -27521925.34845  22011134.0084                   22011133.8014
-116978432.81247 -91111161.03544  22490422.7664                   22490422.1054
 -24744566.99247 -19235653.70745  22289150.9534                   22289151.3554
 -94557215.64848 -73630798.67246  21725754.4454                   21725753.1094
  -5776294.27746  -4458001.16844  23824195.9064                   23824194.8954
 -70804038.00048 -55121529.20346  19877103.5474                   19877102.6094
 -51164941.57847 -39058369.47745  22393917.8284                   22393917.2664
 -40031250.91048 -31135746.87546  21363746.3754                   21363743.6994
 11  8  1  0 18  0.0000000  0  8G09G28G10G17G12G04G27G02
 -35879960.13347 -27601404.68045  21991724.4924                   21991724.2114
-117020153.97747 -91143671.12144  22482483.4534                   22482483.0664
 -24943326.44947 -19390531.11745  22251328.1804                   22251328.9734
 -94636718.48448 -73692748.95346  21710625.8594                   21710624.6884
  -5988448.63746  -4623316.19543  23783823.8914                   23783824.4964
 -70897101.92648 -55194046.54746  19859394.3204                   19859393.1604
 -51260201.37548 -39132597.93445  22375790.2114                   22375790.1914
 -40204465.00448 -31270718.85246  21330784.9924                   21330782.1524
 11  8  1  0 18 30.0000000  0  8G09G28G10G17G12G04G27G02
 -35981226.57048 -27680313.61345  21972454.3204                   21972453.9304
-117061407.69547 -91175816.96144  22474633.2894                   22474633.1174
 -25141696.53547 -19545105.10945  22213579.7584                   22213579.8954
 -94716015.07047 -73754538.52346  21695536.5234                   21695534.9304
  -6200430.31646  -4788496.63344  23743484.8204                   23743485.5044
 -70989541.53148 -55266077.40647  19841803.4774                   19841802.0634
 -51354896.09847 -39206386.08245  22357770.5864                   22357770.3054
 -40377200.24248 -31405317.68046  21297914.1644                   21297911.5434
 11  8  1  0 19  0.0000000  0  8G09G28G10G17G12G04G27G02
 -34506339.15247 -26531050.69545  22253116.6174                   22253115.7274
-115526774.15247 -89979998.68044  22766664.0704                   22766663.9344
 -23764248.04747 -18471768.52745  22475699.3444                   22475699.4924
 -93219682.98047 -72588565.47346  21980278.6724                   21980277.5744
  -4836810.53546  -3725935.71944  24002973.5864                   24002973.5864
 -69505936.00848 -54110021.15646  20124124.0864                   20124123.2934
 -49873604.60547 -38052133.00045  22639650.9774                   22639650.4414
 -38974030.55948 -30311938.66846  21564928.8364                   21564925.4924
 11  8  1  0 19 30.0000000  0  8G09G28G10G17G12G04G27G02
 -34606147.83647 -26608823.71145  22234122.9844                   22234122.8244
-115567098.60547 -90011420.39844  22758990.2194                   22758990.9264
 -23961832.26247 -18625730.15645  22438100.3914                   22438100.1454
 -93298568.79747 -72650034.96146  21965267.1564                   21965265.3874
  -5048443.14846  -3890844.17644  23962700.9144                   23962702.0124
 -69597134.85548 -54181085.18046  20106769.7114                   20106768.5704
 -49967176.22348 -38125045.98045  22621845.2424                   22621844.7464
 -39145808.78548 -30445791.77346  21532240.3524                   21532237.8054
 11  8  1  0 20  0.0000000  0  8G09G28G10G17G12G04G27G02
 -34705231.38347 -26686031.69545  22215268.3284                   22215267.5234
-115606961.76647 -90042482.69944  22751405.4844                   22751404.9774
 -24159019.95747 -18779382.81645  22400576.9454                   22400576.6174
 -93377250.77047 -72711345.60546  21950295.1564                   21950292.8404
  -5259899.86747  -4055615.62944  23922463.0004                   23922463.2034
 -69687717.43448 -54251669.00846  20089532.1724                   20089531.3834
 -50060189.96947 -38197524.26245  22604145.0084                   22604144.9414
 -39317109.65248 -30579272.91046  21499642.7814                   21499639.6884
 11  8  1  0 20 30.0000000  0  8G09G28G10G17G12G04G27G02
 -34803586.08247 -26762671.72745  22196552.1564                   22196552.0044
-115646359.10247 -90073182.00844  22743908.1254                   22743907.7424
 -24355802.91447 -18932720.09045  22363130.1094                   22363130.5434
 -93455723.26247 -72772493.02046  21935361.8364                   21935360.4064
  -5471173.20347  -4220244.18444  23882258.6254                   23882259.1914
 -69777680.50848 -54321770.10246  20072413.2194                   20072411.8594
 -50152642.01247 -38269564.85545  22586552.2734                   22586550.8954
 -39487927.21548 -30712377.46146  21467137.2194                   21467133.8674
 11  8  1  0 21  0.0000000  0  8G09G28G10G17G12G04G27G02
 -34901217.55547 -26838748.23445  22177973.3834                   22177972.8634
-115685295.97347 -90103522.52044  22736499.2814                   22736498.4734
 -24552181.76247 -19085742.47345  22325760.0784                   22325760.6254
 -93533990.71147 -72833480.65246  21920468.0004                   21920466.1684
  -5682265.44147  -4384731.57844  23842089.6024                   23842089.8554
 -69867029.74648 -54391392.87546  20055410.2344                   20055409.0204
 -50244538.10547 -38341172.26245  22569065.4614                   22569064.6994
 -39658265.19948 -30845108.30946  21434722.8984                   21434720.2974
 11  8  1  0 21 30.0000000  0  8G09G28G10G17G12G04G27G02
 -34998132.14547 -26914266.10245  22159531.3914                   22159530.9304
-115723778.03147 -90133508.63344  22729176.2974                   22729175.8404
 -24748158.27747 -19238451.36345  22288466.7974                   22288467.5664
 -93612057.51648 -72894311.94546  21905612.5474                   21905611.1214
  -5893179.29747  -4549080.00444  23801954.0004                   23801954.4304
 -69955771.93048 -54460542.63346  20038523.1884                   20038522.1764
 -50335884.58647 -38412351.36745  22551682.3914                   22551682.1884
 -39828127.93748 -30977468.83646  21402398.9144                   21402395.9804
 11  8  1  0 22  0.0000000  0  8G09G28G10G17G12G04G27G02
 -35094328.98047 -26989224.71945  22141225.1414                   22141225.4844
-115761804.31647 -90163139.59044  22721939.8834                   22721939.7934
 -24943726.41847 -19390842.05145  22251251.6644                   22251252.2624
 -93689921.30947 -72954985.05546  21890795.5474                   21890794.1844
  -6103910.57847  -4713286.19144  23761852.6564                   23761852.0394
 -70043906.58648 -54529218.98846  20021751.9064                   20021750.5044
 -50426680.49247 -38483101.47345  22534404.2034                   22534404.1804
 -39997512.77348 -31109456.98846  21370166.2664                   21370163.1914
 11  8  1  0 22 30.0000000  0  8G09G28G10G17G12G04G27G02
 -35189807.17247 -27063623.32045  22123056.6564                   22123056.4024
-115799372.67647 -90192413.72744  22714790.6484                   22714790.5004
 -25138880.53947 -19542910.10945  22214114.9614                   22214115.2384
 -93767579.05948 -73015497.60946  21876018.0004                   21876016.2154
  -6314454.15247  -4877346.07444  23721787.3754                   23721787.0864
 -70131432.67248 -54597421.13746  20005096.2894                   20005094.9804
 -50516924.75447 -38553421.72345  22517231.7194                   22517231.0634
 -40166416.19548 -31241069.99646  21338025.0314                   21338021.8484
 11  8  1  0 23  0.0000000  0  8G09G28G10G17G12G04G27G02
 -35284569.12947 -27137463.84045  22105024.5704                   22105023.6414
-115836485.58647 -90221332.96144  22707728.7814                   22707728.3714
 -25333618.54747 -19694653.93445  22177058.0474                   22177057.6604
 -93845031.44547 -73075850.14146  21861279.2194                   21861277.9614
  -6524809.13747  -5041258.96943  23681757.9224                   23681757.5434
 -70218353.19948 -54665151.42247  19988555.7194                   19988554.3054
 -50606620.02347 -38623314.17645  22500163.0394                   22500162.9024
 -40334839.19548 -31372308.66046  21305975.1724                   21305972.0274
 11  8  1  0 23 30.0000000  0  8G09G28G10G17G12G04G27G02
 -35378618.74647 -27210749.28945  22087127.7974                   22087127.2974
-115873146.46947 -90249899.99244  22700752.1644                   22700752.3284
 -25527939.37947 -19846072.66845  22140079.2814                   22140079.7504
 -93922280.97748 -73136044.59046  21846578.7814                   21846577.4454
  -6734975.77747  -5205025.17644  23641765.6484                   23641763.5594
 -70304672.23448 -54732413.01647  19972129.9774                   19972128.8054
 -50695770.11747 -38692781.84845  22483198.5704                   22483198.2154
 -40502783.67648 -31503174.46146  21274016.1414                   21274013.3594
 11  8  1  0 24  0.0000000  0  8G09G28G10G17G12G04G27G02
 -35471958.46547 -27283481.57845  22069365.1804                   22069364.9144
-115909356.96147 -90278116.05544  22693861.6094                   22693862.2584
 -25721840.24247 -19997164.16845  22103181.1334                   22103181.2154
 -93999327.84048 -73196081.12946  21831917.5314                   21831916.1484
  -6944952.59047  -5368643.36344  23601807.5164                   23601806.9654
 -70390392.40648 -54799207.96146  19955817.9454                   19955816.8874
 -50784377.39147 -38761826.52345  22466336.9924                   22466336.3404
 -40670249.50848 -31633667.28546  21242148.6094                   21242145.5984
 11  8  1  0 24 30.0000000  0  8G09G28G10G17G12G04G27G02
 -35564589.52047 -27355661.64845  22051738.0864                   22051737.5514
-115945117.75447 -90305981.70344  22687056.6564                   22687056.9804
 -25915317.78947 -20147925.80145  22066363.7344                   22066363.6174
 -94076171.50048 -73255959.34045  21817294.3834                   21817293.3984
  -7154737.33647  -5532111.93444  23561887.1564                   23561886.0354
 -70475515.36348 -54865537.53946  19939619.3444                   19939618.4144
 -50872443.22747 -38830449.32445  22449578.5164                   22449578.2234
 -40837236.18048 -31763786.74246  21210372.1724                   21210368.9384
 11  8  1  0 25  0.0000000  0  8G09G28G10G17G12G04G27G02
 -35656514.34847 -27427291.42245  22034245.2734                   22034244.9454
-115980431.10947 -90333498.68444  22680337.2344                   22680337.0554
 -26108369.59447 -20298355.67245  22029626.9064                   22029627.0234
 -94152813.05548 -73315680.04746  21802710.3054                   21802708.8634
  -7364328.59047  -5695429.70344  23522002.6024                   23522002.2194
 -70560043.74648 -54931403.81247  19923534.3674                   19923533.0474
 -50959969.98447 -38898652.05544  22432922.5784                   22432922.1564
 -41003744.05148 -31893533.10246  21178686.5314                   21178683.7584
 11  8  1  0 25 30.0000000  0  8G09G28G10G17G12G04G27G02
 -35747732.29747 -27498370.39845  22016887.0084                   22016886.1954
-116015295.61747 -90360665.91444  22673703.3914                   22673702.9964
 -26300989.89547 -20448449.32445  21992972.3204                   21992972.2704
 -94229249.49248 -73375240.93445  21788164.9694                   21788163.4494
  -7573721.64547  -5858593.05145  23482156.7194                   23482156.6954
 -70643976.96148 -54996806.32046  19907562.2034                   19907561.1134
 -51046956.77747 -38966434.02045  22416369.8754                   22416369.5124
 -41169770.34048 -32022904.21546  21147092.8134                   21147089.9224
 11  8  1  0 26  0.0000000  0  8G09G28G10G17G12G04G27G02
 -34262826.33247 -26341300.86345  22299455.2974                   22299454.9104
-114474295.02747 -89159886.31244  22966946.1024                   22966945.7624
 -24917753.00847 -19370602.30945  22256194.1094                   22256194.1334
 -92730062.02048 -72207042.92645  22073450.6954                   22073449.5204
  -6207491.20747  -4793997.84044  23742141.9224                   23742141.5084
 -69151898.05148 -53834147.42646  20191495.4614                   20191494.4614
 -49557986.47747 -37806197.48845  22699711.5004                   22699711.3094
 -39759893.32048 -30924298.71146  21415383.5474                   21415380.6294
 11  8  1  0 26 30.0000000  0  8G09G28G10G17G12G04G27G02
 -34352644.20347 -26411288.87545  22282363.3284                   22282363.1994
-114508273.05147 -89186362.77344  22960479.7194                   22960479.6954
 -25109508.44547 -19520022.05145  22219703.7344                   22219703.7624
 -92806095.60548 -72266289.89545  22058982.0634                   22058980.4024
  -6416489.83647  -4956853.84845  23702370.0474                   23702369.8794
 -69234654.70348 -53898633.12947  20175747.3754                   20175746.3794
 -49643906.77347 -37873148.41445  22683361.7974                   22683360.8164
 -39924963.73848 -31052924.99246  21383971.8444                   21383968.9384
 11  8  1  0 27  0.0000000  0  8G09G28G10G17G12G04G27G02
 -34441769.68047 -26480737.34045  22265403.9454                   22265403.1524
-114541814.64147 -89212499.17644  22954097.6414                   22954097.3554
 -25300831.96947 -19669105.21945  22183296.3444                   22183295.9184
 -92881932.29747 -72325383.44945  22044550.7814                   22044548.9614
  -6625293.05947  -5119557.62144  23662636.8984                   23662636.0474
 -69316831.06648 -53962666.64846  20160109.8444                   20160108.4804
 -49729301.19947 -37939689.58245  22667111.9454                   22667111.1094
 -40089560.55948 -31181182.21146  21352649.8284                   21352646.7344
 11  8  1  0 27 30.0000000  0  8G09G28G10G17G12G04G27G02
 -34530204.47347 -26549647.62545  22248575.3914                   22248574.4344
-114574921.05947 -89238296.42644  22947797.3054                   22947797.4304
 -25491719.91047 -19817848.98445  22146971.5634                   22146971.3674
 -92957571.93448 -72384323.44145  22030157.5164                   22030155.8284
  -6833898.42647  -5282107.22744  23622939.8054                   23622939.4304
 -69398428.89848 -54026249.37146  20144582.2974                   20144581.2074
 -49814171.37947 -38005822.23444  22650961.4224                   22650960.6724
 -40253683.51648 -31309070.19546  21321418.3834                   21321415.2934
 11  8  1  0 28  0.0000000  0  8G09G28G10G17G12G04G27G02
 -34617946.81247 -26618018.33245  22231878.1644                   22231877.4344
-114607589.96147 -89263752.80144  22941580.9694                   22941580.9494
 -25682165.65247 -19966248.18445  22110730.2814                   22110730.3914
 -93033011.17248 -72443107.28145  22015801.8984                   22015800.1844
  -7042300.07847  -5444498.09044  23583281.9144                   23583282.1294
 -69479446.86348 -54089380.24646  20129165.0554                   20129163.6214
 -49898515.78547 -38071545.21144  22634911.4224                   22634910.9694
 -40417328.85548 -31436586.01246  21290277.8204                   21290274.4964
 11  8  1  0 28 30.0000000  0  8G09G28G10G17G12G04G27G02
 -34705002.53547 -26685854.00045  22215312.5004                   22215311.9884
-114639826.15647 -89288871.98044  22935446.5864                   22935446.0354
 -25872169.99647 -20114303.44945  22074574.0474                   22074573.9694
 -93108253.12548 -72501737.41046  22001483.9694                   22001482.2774
  -7250500.33647  -5606732.02344  23543662.8754                   23543663.4454
 -69559890.71948 -54152063.74646  20113857.0944                   20113856.2504
 -49982339.66447 -38136862.57445  22618959.6254                   22618959.9024
 -40580499.91848 -31563732.25046  21259227.4614                   21259224.5514
 11  8  1  0 29  0.0000000  0  8G09G28G10G17G12G04G27G02
 -34791377.35547 -26753159.12545  22198876.1644                   22198875.5634
-114671635.02747 -89313658.18044  22929393.5234                   22929393.5514
 -26061733.60247 -20262015.27345  22038500.9774                   22038501.1914
 -93183301.39547 -72560216.59446  21987202.5234                   21987201.1484
  -7458500.64847  -5768810.16845  23504082.8984                   23504081.8204
 -69639766.36748 -54214304.51246  20098657.1804                   20098655.8284
 -50065649.02047 -38201779.00445  22603106.5164                   22603106.8674
 -40743200.47748 -31690511.86746  21228266.1954                   21228263.2974
 11  8  1  0 29 30.0000000  0  8G09G28G10G17G12G04G27G02
 -34877075.37547 -26819936.84445  22182568.2114                   22182567.0864
-114703020.00847 -89338114.07844  22923421.1094                   22923421.0864
 -26250855.14147 -20409382.64845  22002512.4924                   22002512.1564
 -93258157.94147 -72618546.39845  21972957.5864                   21972956.2894
  -7666300.95347  -5930732.50845  23464539.5004                   23464538.4064
 -69719078.14548 -54276105.87146  20083564.6644                   20083563.6884
 -50148447.84047 -38266297.60245  22587350.9064                   22587350.6454
 -40905432.45748 -31816926.35946  21197394.2584                   21197391.3554
 11  8  1  0 30  0.0000000  0  8G09G28G10G17G12G04G27G02
 -34962095.82847 -26886186.59845  22166389.4924                   22166389.3794
-114733978.94147 -89362237.99644  22917530.0474                   22917529.5824
 -26439528.44147 -20556400.74645  21966608.9614                   21966608.9384
 -93332819.69547 -72676724.40645  21958749.8834                   21958748.5004
  -7873895.86347  -6092494.76645  23425035.6094                   23425034.9144
 -69797824.72348 -54337466.84046  20068579.3364                   20068578.6334
 -50230734.86747 -38330417.41445  22571692.2274                   22571692.2894
 -41067192.50448 -31942973.10546  21166612.3674                   21166609.8594
 11  8  1  0 30 30.0000000  0  8G09G28G10G17G12G04G27G02
 -35046443.00047 -26951911.72745  22150338.3444                   22150337.9224
-114764516.04747 -89386033.21544  22911718.8364                   22911718.4964
 -26627753.06647 -20703069.23845  21930791.0314                   21930790.7384
 -93407288.77747 -72734752.28945  21944579.5314                   21944577.5204
  -8081285.74647  -6254097.28945  23385570.2504                   23385570.4614
 -69876010.87948 -54398391.10946  20053701.3054                   20053700.3794
 -50312514.23847 -38394141.64545  22556130.3444                   22556129.4344
 -41228482.93448 -32068653.91846  21135920.0474                   21135917.0944
 11  8  1  0 31  0.0000000  0  9G09G28G10G17G12G05G04G27G02
 -35130121.69547 -27017115.93745  22134414.7974                   22134414.8524
-114794635.81647 -89409503.21944  22905987.2664                   22905987.3794
 -26815528.68447 -20849387.84845  21895058.6804                   21895058.5824
 -93481567.77747 -72792632.03546  21930444.5474                   21930442.7424
  -8288471.38347  -6415540.62145  23346144.5394                   23346144.4304
   5978581.91856   4701528.32053  24600035.9534                   24600040.6644
 -69953641.40648 -54458882.42646  20038928.7814                   20038927.2114
 -50393790.66847 -38457473.98445  22540664.1094                   22540663.3444
 -41389306.27348 -32193970.77346  21105316.0704                   21105313.3324
 11  8  1  0 31 30.0000000  0  9G09G28G10G17G12G05G04G27G02
 -35213135.18047 -27081801.82845  22118618.0474                   22118617.8094
-114824340.25847 -89432649.62144  22900335.0944                   22900334.6054
 -27002853.24247 -20995354.98845  21859411.9384                   21859411.4414
 -93555657.82048 -72850364.54345  21916345.6094                   21916343.6564
  -8495451.82447  -6576824.07444  23306757.3754                   23306757.2424
   5761301.46146   4532219.17243  24558688.8444                   24558693.2194
 -70030719.71948 -54518943.44946  20024261.4454                   20024260.2854
 -50474567.50047 -38520417.00845  22525292.5394                   22525292.5274
 -41549663.84848 -32318924.69146  21074801.3284                   21074798.4104
 11  8  1  0 32  0.0000000  0  9G09G28G10G17G12G05G04G27G02
 -35295496.98847 -27145979.89845  22102945.5084                   22102945.0824
-114853642.01247 -89455482.23044  22894759.4144                   22894758.7854
 -27189734.67647 -21140976.82445  21823849.4614                   21823849.9534
 -93629569.83648 -72907958.32845  21902280.5944                   21902278.6524
  -8702235.98847  -6737954.55544  23267407.5004                   23267408.1294
   5544020.37146   4362909.55943  24517340.9614                   24517345.3484
 -70107259.24648 -54578584.63746  20009696.1484                   20009694.8324
 -50554857.84447 -38582980.95345  22510013.6174                   22510014.0594
 -41709566.57448 -32443524.18046  21044372.3674                   21044369.4884
 11  8  1  0 32 30.0000000  0  9G09G28G10G17G12G05G04G27G02
 -35377206.89847 -27209649.98845  22087396.4924                   22087396.4104
-114882540.45347 -89478000.58244  22889259.3754                   22889259.8594
 -27376167.89147 -21286249.40245  21788372.0864                   21788372.1804
 -93703301.37548 -72965411.47345  21888249.8134                   21888248.1884
  -8908819.61747  -6898928.79344  23228095.7274                   23228095.5664
   5326743.24646   4193602.95743  24475995.1254                   24475999.7664
 -70183259.82448 -54637805.87146  19995233.7504                   19995232.6724
 -50634661.35247 -38645165.54345  22494827.5474                   22494828.2034
 -41869012.07848 -32567767.41446  21014031.1804                   21014028.1684
 11  8  1  0 33  0.0000000  0  9G09G28G10G17G12G05G04G27G02
 -33882845.89147 -26045212.88345  22371763.9924                   22371764.2194
-113335617.18747 -88272605.90644  23183629.8364                   23183629.7814
 -25986725.20347 -20203566.72745  22052774.1564                   22052774.2194
 -92201430.82048 -71795122.74245  22174046.5864                   22174044.7384
  -7539775.12147  -5832140.82844  23488616.0864                   23488615.8014
   6684898.31346   5251905.90244  24734441.6024                   24734447.9534
 -68683302.66448 -53469008.09446  20280666.1414                   20280665.1884
 -49138558.93447 -37479371.48045  22779526.9924                   22779526.3834
 -40452576.53948 -31464051.37946  21283569.9454                   21283566.8094
 11  8  1  0 33 30.0000000  0  9G09G28G10G17G12G05G04G27G02
 -33963255.45347 -26107869.71945  22356462.2974                   22356462.7774
-113363709.55947 -88294496.17244  23178284.1644                   23178283.9344
 -26172249.82047 -20348131.28945  22017470.0474                   22017470.3524
 -92274797.35948 -71852291.45745  22160084.9534                   22160083.8754
  -7745947.75847  -5992794.81244  23449383.5314                   23449382.1724
   6467639.75046   5082613.79343  24693099.9694                   24693104.9614
 -68758228.26648 -53527391.68046  20266408.2814                   20266406.9344
 -49217391.64847 -37540799.60945  22764525.1884                   22764525.7154
 -40611104.12548 -31587579.34846  21253402.8054                   21253399.8914
 11  8  1  0 34  0.0000000  0  9G09G28G10G17G12G05G04G27G02
 -34043014.73447 -26170019.81645  22341284.8834                   22341284.6844
-113391397.77347 -88316071.50044  23173015.5554                   23173015.1214
 -26357311.77747 -20492335.34445  21982254.1254                   21982253.8754
 -92347977.44148 -71909314.91045  22146159.4304                   22146157.8094
  -7951907.50447  -6153282.92244  23410190.7194                   23410188.7974
   6250397.67247   4913334.50044  24651760.0554                   24651765.2384
 -68832616.34448 -53585356.42646  20252252.3984                   20252251.2704
 -49295738.63347 -37601849.25045  22749616.5394                   22749616.4694
 -40769169.28148 -31710746.96546  21223324.3834                   21223321.0904
 11  8  1  0 34 30.0000000  0  9G09G28G10G17G12G05G04G27G02
 -34122128.56247 -26231666.99645  22326229.7504                   22326230.3164
-113418685.86347 -88337335.02044  23167822.5164                   23167822.1684
 -26541910.90247 -20636178.75445  21947126.1024                   21947125.8364
 -92420973.70748 -71966195.10945  22132268.3204                   22132267.4654
  -8157655.83247  -6313606.23844  23371037.1024                   23371036.9534
   6033171.82447   4744067.84444  24610423.4774                   24610427.7304
 -68906471.93748 -53642906.23846  20238198.6414                   20238197.3554
 -49373604.44947 -37662523.93045  22734798.8754                   22734799.1134
 -40926774.51648 -31833556.21146  21193332.7424                   21193329.5274
 11  8  1  0 35  0.0000000  0  9G09G28G10G17G12G05G04G27G02
 -34200599.89547 -26292813.51245  22311297.1724                   22311298.1414
-113445576.04747 -88358288.52744  23162705.8444                   23162704.9224
 -26726044.95347 -20779659.75845  21912086.1564                   21912086.6914
 -92493786.60247 -72022932.43445  22118412.7344                   22118411.5164
  -8363191.03947  -6473763.50845  23331925.5864                   23331924.2154
   5815964.37547   4574815.52044  24569089.1954                   24569094.1524
 -68979797.65648 -53700043.18046  20224245.0784                   20224243.8914
 -49450991.64847 -37722825.68444  22720072.4694                   22720073.0394
 -41083920.52748 -31956007.60946  21163429.1954                   21163425.9064
 11  8  1  0 35 30.0000000  0  9G09G28G10G17G12G05G04G27G02
 -34278428.41447 -26353459.13745  22296486.8914                   22296487.0514
-113472066.84447 -88378930.80543  23157664.2274                   23157664.4534
 -26909707.87147 -20922773.65245  21877136.2424                   21877136.2234
 -92566413.27048 -72079524.66445  22104592.6644                   22104591.0084
  -8568508.05547  -6633750.71945  23292855.3284                   23292854.5824
   5598779.83247   4405581.10544  24527761.2114                   24527764.8834
 -69052593.09448 -53756766.90646  20210392.6174                   20210391.3244
 -49527899.79347 -37782754.15245  22705437.4844                   22705437.6524
 -41240604.49648 -32078098.97346  21133613.0234                   21133609.8014
 11  8  1  0 36  0.0000000  0  9G09G28G10G17G12G05G04G27G02
 -34355614.40647 -26413604.10545  22281799.3834                   22281799.8284
-113498158.06647 -88399261.74244  23152699.3984                   23152700.3244
 -27092894.81647 -21065516.64845  21842276.9144                   21842277.1094
 -92638851.46148 -72135970.01645  22090807.8674                   22090806.7504
  -8773602.71547  -6793564.67245  23253826.5634                   23253825.8134
   5381622.98046   4236368.23043  24486436.2974                   24486440.8244
 -69124858.60548 -53813077.71146  20196641.0944                   20196639.3834
 -49604328.86747 -37842309.30945  22690893.1804                   22690894.2544
 -41396824.40648 -32199828.75446  21103885.2664                   21103882.1414
 11  8  1  0 36 30.0000000  0  9G09G28G10G17G12G05G04G27G02
 -34432158.31247 -26473248.71545  22267233.1724                   22267233.5864
-113523849.45347 -88419281.12144  23147810.8054                   23147811.0354
 -27275601.07847 -21207885.08645  21807508.9224                   21807509.3244
 -92711098.98048 -72192266.80545  22077059.6644                   22077058.6454
  -8978470.64847  -6953201.97745  23214841.1644                   23214840.0824
   5164498.28146   4067180.44543  24445117.9304                   24445123.4884
 -69196594.27048 -53868975.64846  20182989.9454                   20182988.8524
 -49680279.19547 -37901491.44945  22676440.8134                   22676441.1724
 -41552578.57848 -32321195.61346  21074246.2584                   21074242.9694
 11  8  1  0 37  0.0000000  0  9G09G28G10G17G12G05G04G27G02
 -34508063.82447 -26532395.89845  22252789.0634                   22252788.5434
-113549143.62947 -88438990.99244  23142997.3134                   23142997.6414
 -27457824.88347 -21349877.59045  21772833.1094                   21772832.8444
 -92783156.65648 -72248415.65645  22063347.7734                   22063346.1724
  -9183111.22747  -7112662.09845  23175899.7344                   23175899.0044
   4947406.89546   3898018.57043  24403806.7194                   24403811.7814
 -69267803.95748 -53924463.72746  20169439.2584                   20169437.9924
 -49755754.23447 -37960303.19145  22662078.1884                   22662078.4574
 -41707868.30148 -32442200.58246  21044695.2974                   21044692.3484
 11  8  1  0 37 30.0000000  0  9G09G28G10G17G12G05G04G27G02
 -34583328.68047 -26591043.86345  22238466.6484                   22238466.7734
-113574037.30147 -88458388.77744  23138260.7894                   23138261.1454
 -27639558.41847 -21491488.04745  21738250.1804                   21738249.8164
 -92855019.85948 -72304412.98445  22049672.1484                   22049671.3094
  -9387517.67647  -7271939.80145  23137002.1884                   23137000.7304
   4730356.14846   3728888.42643  24362503.5944                   24362508.8984
 -69338484.97348 -53979539.84046  20155989.1564                   20155988.2814
 -49830751.32047 -38018742.50844  22647806.5234                   22647807.3754
 -41862688.62148 -32562839.76246  21015233.9774                   21015231.1914
 11  8  1  0 38  0.0000000  0  9G09G28G10G17G12G05G04G27G02
 -34657956.25847 -26649195.23845  22224265.3914                   22224265.2734
-113598533.34847 -88477476.77344  23133599.4694                   23133599.8094
 -27820799.98048 -21632715.16045  21703761.2194                   21703761.1054
 -92926689.05148 -72360259.11745  22036034.3204                   22036033.1524
  -9591688.73047  -7431034.07844  23098150.8674                   23098147.8484
   4513347.25046   3559790.90243  24321207.6954                   24321213.1804
 -69408640.70348 -54034206.66046  20142638.9304                   20142638.2504
 -49905273.70747 -38076811.94945  22633625.6484                   22633626.1884
 -42017040.94548 -32683114.28146  20985861.8834                   20985858.7814
 11  8  1  0 38 30.0000000  0  9G09G28G10G17G12G05G04G27G02
 -34731947.55547 -26706850.83645  22210185.1174                   22210185.8954
-113622631.21547 -88496254.44544  23129013.7194                   23129014.1054
 -28001544.82847 -21773555.23445  21669366.5784                   21669366.7624
 -92998162.76647 -72415952.95345  22022433.5004                   22022431.7384
  -9795620.24647  -7589941.73044  23059343.4224                   23059341.0164
   4296384.71146   3390729.49643  24279921.4224                   24279926.1254
 -69478271.98848 -54088464.82446  20129388.5234                   20129387.4774
 -49979321.69947 -38134511.72744  22619534.7274                   22619535.7344
 -42170923.53148 -32803022.76246  20956579.2034                   20956575.9144
 11  8  1  0 39  0.0000000  0  9G09G28G10G17G12G05G04G27G02
 -34805304.02347 -26764011.75045  22196225.7114                   22196226.3634
-113646332.09447 -88514722.83244  23124504.3914                   23124504.8244
 -28181789.21947 -21914005.33645  21635067.2584                   21635066.8874
 -93069439.58648 -72471493.35546  22008869.7814                   22008868.5474
  -9999309.19547  -7748660.37544  23020582.2974                   23020580.1994
   4079471.90646   3221706.84444  24238643.7424                   24238648.7384
 -69547380.08648 -54142315.29746  20116237.7504                   20116236.6884
 -50052896.67247 -38191842.89545  22605534.1884                   22605534.4804
 -42324335.75448 -32922564.72346  20927385.4924                   20927382.2424
 11  8  1  0 39 30.0000000  0  9G09G28G10G17G12G05G04G27G02
 -34878029.00847 -26820680.60545  22182387.2894                   22182387.1914
-113669638.17246 -88532883.50044  23120068.7504                   23120069.1374
 -28361530.64847 -22054063.51645  21600863.3754                   21600863.2544
 -93140519.93448 -72526880.67646  21995343.3914                   21995342.0824
 -10202753.96147  -7907188.73044  22981868.1644                   22981866.2544
   3862610.40646   3052724.20343  24197375.9454                   24197380.7624
 -69615967.83648 -54195760.30546  20103186.1884                   20103184.7194
 -50126001.50047 -38248807.75845  22591623.3914                   22591623.1604
 -42477278.05548 -33041740.51646  20898281.6724                   20898278.1374
 11  8  1  0 40  0.0000000  0  9G09G28G10G17G12G05G04G27G02
 -33374699.78548 -25649255.26245  22468461.1024                   22468460.7034
-112117127.19546 -87323134.83243  23415501.1644                   23415502.1054
 -26965337.48047 -20966120.72345  21866549.6254                   21866549.6564
 -91635978.46147 -71354510.73045  22281648.3284                   22281646.5944
  -8830522.69947  -6837917.61745  23242994.8984                   23242992.5664
   5221232.85546   4111391.37544  24455912.9304                   24455917.7624
 -68108612.63748 -53021197.83646  20390026.1024                   20390025.3984
 -48623213.22747 -37077803.94144  22877593.7034                   22877594.1414
 -41054322.64848 -31932944.07046  21169060.8914                   21169057.9694
 11  8  1  0 40 30.0000000  0  9G09G28G10G17G12G05G04G27G02
 -33446161.59447 -25704939.82845  22454862.3674                   22454862.2504
-112139640.60946 -87340677.85244  23411218.0164                   23411217.9774
 -27144056.82048 -21105382.48445  21832540.8204                   21832540.5204
 -91706657.54748 -71409585.37545  22268199.0634                   22268197.4144
  -9033464.93447  -6996054.35545  23204375.8364                   23204374.7854
   5004489.57046   3942500.85243  24414667.3594                   24414672.0594
 -68176159.38348 -53073831.67246  20377172.3444                   20377171.2854
 -48695376.83647 -37134035.36344  22863861.7504                   22863862.0984
 -41206318.10948 -32051382.08246  21140137.3204                   21140134.0234
 11  8  1  0 41  0.0000000  0  9G09G28G10G17G12G05G04G27G02
 -33516996.98447 -25760136.26245  22441382.4454                   22441382.6564
-112161761.71146 -87357915.21143  23407007.5634                   23407008.7974
 -27322262.41848 -21244243.91445  21798629.4924                   21798628.6214
 -91777137.21147 -71464504.63745  22254786.7974                   22254785.5394
  -9236153.80147  -7153993.70744  23165805.3674                   23165803.3284
   4787807.44946   3773657.94144  24373434.2974                   24373438.4884
 -68243190.59448 -53126063.79746  20364416.9844                   20364415.7974
 -48767074.93047 -37189904.04744  22850218.3444                   22850218.3364
 -41357841.94948 -32169452.59846  21111303.3134                   21111300.3674
 11  8  1  0 41 30.0000000  0  9G09G28G10G17G12G05G04G27G02
 -33587201.90647 -25814841.43445  22428023.2584                   22428023.4774
-112183485.60546 -87374843.02743  23402874.5164                   23402874.6214
 -27499944.67248 -21382697.54345  21764817.5234                   21764816.7934
 -91847410.44147 -71519263.03545  22241414.2584                   22241412.6024
  -9438580.98047  -7311729.15645  23127285.2504                   23127283.0084
   4571195.84847   3604870.04344  24332215.2584                   24332218.2734
 -68309701.94148 -53177890.83646  20351760.0864                   20351759.1764
 -48838302.95747 -37245406.45344  22836662.9924                   22836663.7344
 -41508887.70348 -32287150.57446  21082560.2734                   21082557.2234
 11  8  1  0 42  0.0000000  0  9G09G28G10G17G12G05G04G27G02
 -33656781.60947 -25869059.38745  22414782.4384                   22414782.3874
-112204816.26246 -87391464.41843  23398815.4224                   23398815.0314
 -27677103.37547 -21520743.23445  21731105.0784                   21731104.4774
 -91917479.40248 -71573862.25045  22228081.0554                   22228079.6954
  -9640746.40647  -7469260.60945  23088814.9064                   23088811.9344
   4354654.84046   3436137.12544  24291007.8594                   24291011.6214
 -68375698.39848 -53229316.64846  20339201.6174                   20339199.9924
 -48909065.60947 -37300546.24644  22823198.3674                   22823198.3874
 -41659458.07448 -32404478.10946  21053907.7894                   21053904.5394
 11  8  1  0 42 30.0000000  0  9G09G28G10G17G12G05G04G27G02
 -33725730.36347 -25922785.74245  22401662.5474                   22401661.8794
-112225747.03146 -87407774.23043  23394831.1564                   23394832.9144
 -27853726.93747 -21658371.91845  21697494.6884                   21697494.1524
 -91987335.29748 -71628295.43745  22214788.1954                   22214785.9224
  -9842639.41047  -7626579.81245  23050395.3444                   23050393.7384
   4138195.42246   3267467.78944  24249816.5474                   24249820.6294
 -68441173.72348 -53280336.39846  20326742.2664                   20326741.2424
 -48979356.68047 -37355318.55945  22809823.0164                   22809822.2074
 -41809544.69948 -32521428.71146  21025347.2194                   21025344.3524
 11  8  1  0 43  0.0000000  0  9G09G28G10G17G12G05G04G27G02
 -33794054.12947 -25976025.07445  22388661.0234                   22388660.6914
-112246283.07847 -87423776.45343  23390924.0394                   23390924.7774
 -28029816.04747 -21795584.15645  21663985.9844                   21663985.1484
 -92056981.43748 -71682565.19145  22201534.3914                   22201532.9574
 -10044260.86347  -7783687.40645  23012028.0394                   23012026.5474
   3921816.77746   3098861.39144  24208641.2814                   24208645.2344
 -68506133.71548 -53330954.57446  20314380.5234                   20314379.3554
 -49049181.98847 -37409727.93744  22796535.9304                   22796535.1134
 -41959151.04348 -32638005.07846  20996878.1094                   20996874.9574
 11  8  1  0 43 30.0000000  0  9G09G28G10G17G12G05G04G27G02
 -33861747.12147 -26028772.89545  22375779.6884                   22375779.0784
-112266417.64146 -87439465.82043  23387093.0784                   23387093.4064
 -28205359.46947 -21932371.18745  21630581.6334                   21630580.3244
 -92126409.29347 -71736664.84845  22188322.2894                   22188321.5634
 -10245600.25447  -7940575.25445  22973714.2584                   22973712.0944
   3705529.57046   2930326.19143  24167481.8914                   24167486.1294
 -68570572.37148 -53381166.53146  20302118.3284                   20302116.9344
 -49118535.52047 -37463769.72344  22783337.6254                   22783337.8284
 -42108269.05948 -32754200.92646  20968501.4064                   20968498.6054
 11  8  1  0 44  0.0000000  0  9G09G28G10G17G12G05G04G27G02
 -33928813.67248 -26081032.59845  22363017.0554                   22363017.3954
-112286154.12946 -87454845.01643  23383337.4534                   23383337.5004
 -28380356.17247 -22068732.18745  21597280.1174                   21597279.6564
 -92195620.24248 -71790595.49245  22175151.9924                   22175151.3444
 -10446656.98047  -8097242.80945  22935454.2424                   22935453.2544
   3489334.89546   2761863.10243  24126341.4924                   24126345.1174
 -68634494.05548 -53430975.64546  20289954.1484                   20289953.2114
 -49187421.26647 -37517446.99645  22770229.4224                   22770229.3054
 -42256900.67648 -32870017.74646  20940218.2194                   20940214.7464
 11  8  1  0 44 30.0000000  0  9G09G28G10G17G12G05G04G27G02
 -33995258.00848 -26132807.43045  22350372.7114                   22350373.0824
-112305495.53147 -87469916.34843  23379656.9454                   23379657.5514
 -28554805.00048 -22204666.28945  21564084.1024                   21564083.3834
 -92264615.28147 -71844357.87945  22162022.8524                   22162021.7704
 -10647430.34047  -8253689.56245  22897248.6174                   22897246.9614
   3273234.00846   2593473.08243  24085218.8984                   24085222.3284
 -68697902.07448 -53480384.49246  20277888.0234                   20277886.4884
 -49255842.94147 -37570762.63344  22757209.8834                   22757209.7384
 -42405047.78948 -32985457.03546  20912026.3594                   20912023.1334
 11  8  1  0 45  0.0000000  0  9G09G28G10G17G12G05G04G27G02
 -34061075.52747 -26184093.84445  22337848.3674                   22337848.4924
-112324436.19147 -87484675.40643  23376053.1094                   23376054.2344
 -28728695.37947 -22340165.22745  21530993.5634                   21530992.8014
 -92333386.13347 -71897945.55545  22148936.5394                   22148935.0204
 -10847910.21147  -8409907.64145  22859098.4144                   22859097.4884
   3057237.21946   2425164.17244  24044116.0704                   24044119.9964
 -68760791.84448 -53529389.51246  20265920.8524                   20265919.3874
 -49323795.32847 -37623712.62544  22744278.3054                   22744278.4264
 -42552702.68048 -33100512.77746  20883929.0554                   20883925.5864
 11  8  1  0 45 30.0000000  0  9G09G28G10G17G12G05G04G27G02
 -34126268.29747 -26234893.46945  22325442.9694                   22325442.7814
-112342977.54346 -87499123.37143  23372525.4304                   23372525.5274
 -28902024.13747 -22475226.54345  21498010.2344                   21498009.8134
 -92401932.54747 -71951358.36345  22135892.5784                   22135891.4064
 -11048093.88347  -8565894.88345  22821004.6884                   22821003.5944
   2841347.52347   2256938.60944  24003033.6334                   24003037.1254
 -68823164.66048 -53577991.70346  20254051.5004                   20254050.2664
 -49391280.28947 -37676298.38344  22731436.4844                   22731436.0904
 -42699865.05548 -33215184.73846  20855924.8754                   20855921.4804
 11  8  1  0 46  0.0000000  0  9G09G28G10G17G12G05G04G27G02
 -34190836.40247 -26285206.30945  22313155.7344                   22313155.8554
-112361118.53946 -87513259.28943  23369072.2584                   23369073.7734
 -29074785.80147 -22609845.96145  21465134.7894                   21465133.7734
 -92470251.47747 -72004593.91845  22122891.5784                   22122890.3444
 -11247976.39147  -8721647.48045  22782968.2814                   22782967.5274
   2625569.83247   2088800.42644  23961972.6884                   23961976.5434
 -68885020.55148 -53626191.10546  20242280.3984                   20242279.5204
 -49458297.47747 -37728519.62545  22718683.5634                   22718683.9384
 -42846532.71548 -33329471.21946  20828014.5944                   20828011.5514
 11  8  1  0 46 30.0000000  0  9G09G28G10G17G12G05G04G27G02
 -34254781.93047 -26335034.05145  22300987.8914                   22300987.1174
-112378860.12546 -87527084.06643  23365696.7504                   23365697.8634
 -29246977.28547 -22744021.09845  21432367.8364                   21432366.7384
 -92538342.07048 -72057651.53545  22109934.6254                   22109933.4184
 -11447554.95747  -8877163.23845  22744990.1564                   22744988.5234
   2409907.57046   1920752.11344  23920932.5474                   23920936.9694
 -68946361.41848 -53673989.19146  20230608.1804                   20230606.8674
 -49524848.78547 -37780377.86745  22706019.4304                   22706018.7734
 -42992705.44948 -33443372.02046  20800199.0474                   20800196.1994
 11  8  1  0 47  0.0000000  0  9G09G28G10G17G12G05G04G27G02
 -32742686.02347 -25156777.55145  22588729.4844                   22588729.0824
-110820784.20346 -86312999.04343  23662188.7734                   23662189.2344
 -27843170.28548 -21650145.46545  21699503.3984                   21699502.4574
 -91030782.26647 -70882929.61345  22396813.5784                   22396812.2974
 -10071400.69147  -7804835.23445  23006863.1094                   23006862.7034
   3769789.85947   2980400.89844  24179709.8284                   24179714.1914
 -67431768.19948 -52493786.69146  20518825.3444                   20518824.1954
 -48015514.95747 -36604273.64144  22993235.8754                   22993235.2854
 -41562959.40248 -32329284.18446  21072270.6484                   21072267.7154
 11  8  1  0 47 30.0000000  0  9G09G28G10G17G12G05G04G27G02
 -32805394.02047 -25205640.98845  22576796.7344                   22576796.5744
-110837732.05546 -86326205.32443  23658963.3674                   23658964.5234
 -28014211.48047 -21783424.26645  21666955.2274                   21666954.3834
 -91098414.38348 -70935629.98045  22383943.6724                   22383942.3674
 -10270363.30947  -7959871.03145  22969002.0864                   22969000.7344
   3554367.09847   2812539.20344  24138716.5474                   24138719.5274
 -67492085.32848 -52540787.05146  20507347.4924                   20507346.3874
 -48081140.94147 -36655410.85544  22980747.6484                   22980748.2194
 -41708142.19948 -32442413.60546  21044643.3984                   21044640.1954
 11  8  1  0 48  0.0000000  0  9G09G28G10G17G12G05G04G27G02
 -32867484.14547 -25254022.96945  22564981.5084                   22564981.3164
-110854282.04346 -86339101.51243  23655814.1024                   23655815.1414
 -28184669.93047 -21916248.98045  21634517.6564                   21634517.0354
 -91165812.70347 -70988148.15645  22371117.8984                   22371117.0434
 -10469011.09047  -8114661.51645  22931199.7504                   22931199.4384
   3339071.79347   2644776.82444  24097747.2114                   24097749.5634
 -67551890.62548 -52587388.58246  20495966.6564                   20495965.9694
 -48146304.34047 -36706187.60244  22968347.3524                   22968347.8594
 -41852826.86348 -32555154.87546  21017110.8594                   21017107.5204
 11  8  1  0 48 30.0000000  0  9G09G28G10G17G12G05G04G27G02
 -32928956.33247 -25301923.43444  22553283.7194                   22553283.3674
-110870433.04746 -86351686.85543  23652740.7274                   23652742.2814
 -28354539.91447 -22048615.14546  21602192.5634                   21602192.3634
 -91232974.67648 -71040482.14845  22358337.6564                   22358336.1644
 -10667338.27347  -8269202.14145  22893459.7504                   22893459.0204
   3123908.88347   2477117.65244  24056802.3674                   24056805.9654
 -67611183.56248 -52633590.88346  20484683.9144                   20484682.9694
 -48211004.66447 -36756603.51244  22956035.5864                   22956035.7664
 -41997010.91448 -32667506.06246  20989673.3674                   20989670.0124
 11  8  1  0 49  0.0000000  0  9G09G28G10G17G12G05G04G27G02
 -32989813.35947 -25349344.54345  22541703.0784                   22541703.5824
-110886186.84046 -86363962.69543  23649744.1414                   23649744.8954
 -28523819.14147 -22180520.97745  21569980.1644                   21569979.6214
 -91299899.62948 -71092631.46145  22345602.6564                   22345600.7584
 -10865342.89147  -8423491.44945  22855780.9144                   22855779.7234
   2908881.74246   2309564.24244  24015883.9694                   24015887.4694
 -67669966.66048 -52679395.89546  20473497.6174                   20473496.9304
 -48275244.38747 -36806660.53944  22943812.0554                   22943811.4224
 -42140694.63348 -32779467.37946  20962331.3754                   20962327.9924
 11  8  1  0 49 30.0000000  0  9G09G28G10G17G12G05G04G27G02
 -33050054.08648 -25396285.43745  22530239.8914                   22530239.8134
-110901541.22346 -86375927.24243  23646821.9774                   23646822.6174
 -28692500.61348 -22311961.03145  21537881.2034                   21537880.4384
 -91366582.92248 -71144592.47745  22332913.2894                   22332911.5824
 -11063018.55547  -8577524.40245  22818164.4844                   22818163.5744
   2693996.93046   2142121.75843  23974992.1954                   23974995.7734
 -67728238.19148 -52724802.28946  20462409.1884                   20462407.7854
 -48339021.77347 -36856357.27344  22931674.8674                   22931675.6334
 -42283874.31248 -32891035.93746  20935084.9534                   20935081.7154
 11  8  1  0 50  0.0000000  0  9G09G28G10G17G12G05G04G27G02
 -33109686.51647 -25442752.34044  22518891.9614                   22518892.0084
-110916503.16446 -86387586.03143  23643974.6884                   23643975.9614
 -28860586.87148 -22442937.28545  21505895.3914                   21505895.0474
 -91433029.92648 -71196369.37945  22320268.6644                   22320267.1484
 -11260367.79347  -8731302.99645  22780609.9694                   22780608.5434
   2479251.80546   1974788.12944  23934127.2584                   23934131.2664
 -67786005.85948 -52769816.05546  20451416.2424                   20451414.6994
 -48402344.50447 -36905699.73844  22919625.0784                   22919625.4144
 -42426555.35248 -33002215.94946  20907933.8204                   20907930.2154
 11  8  1  0 50 30.0000000  0  9G09G28G10G17G12G05G04G27G02
 -33168708.32447 -25488743.39845  22507660.4774                   22507660.1454
-110931069.19546 -86398936.27743  23641203.3284                   23641203.4494
 -29028069.98847 -22573443.55946  21474024.1094                   21474023.3524
 -91499234.57447 -71247957.39845  22307670.4774                   22307669.0164
 -11457382.93047  -8884821.21145  22743119.3134                   22743118.3324
   2264654.58646   1807569.71544  23893290.2814                   23893293.5434
 -67843266.65248 -52814434.85246  20440520.3364                   20440518.8754
 -48465209.68047 -36954685.66845  22907662.6564                   22907662.8284
 -42568732.87948 -33113003.60946  20880878.3524                   20880874.8484
 11  8  1  0 51  0.0000000  0  9G09G28G10G17G12G05G04G27G02
 -33227121.17647 -25534259.98844  22496545.1954                   22496544.2384
-110945240.27746 -86409978.78543  23638506.1484                   23638506.9654
 -29194946.23847 -22703476.94546  21442268.3594                   21442268.2814
 -91565195.60548 -71299355.62145  22295118.0864                   22295117.1484
 -11654060.75447  -9038076.59045  22705693.0394                   22705691.3364
   2050208.78146   1640469.27743  23852482.2734                   23852485.9534
 -67900021.87948 -52858659.70746  20429719.9224                   20429718.4104
 -48527618.66847 -37003316.11744  22895786.0784                   22895787.4224
 -42710406.28948 -33223398.45346  20853918.7344                   20853915.2384
 11  8  1  0 51 30.0000000  0  9G09G28G10G17G12G05G04G27G02
 -33284925.59447 -25579302.45744  22485545.2344                   22485545.1374
-110959015.41447 -86420712.75044  23635885.8134                   23635886.0124
 -29361210.64547 -22833033.57845  21410629.4224                   21410629.0314
 -91630910.12547 -71350561.73845  22282613.4774                   22282611.9064
 -11850396.39147  -9191065.34445  22668331.4064                   22668330.2154
   1835919.69546   1473491.01244  23811704.8914                   23811708.1414
 -67956271.78948 -52902490.80546  20419015.8364                   20419014.6054
 -48589571.44547 -37051591.04744  22883996.8054                   22883997.5434
 -42851573.50048 -33333398.84846  20827055.2034                   20827052.1684
 11  8  1  0 52  0.0000000  0  9G09G28G10G17G12G05G04G27G02
 -33342124.21947 -25623872.87944  22474660.9924                   22474660.7384
-110972396.35247 -86431139.60243  23633339.4614                   23633339.8444
 -29526860.32447 -22962111.20746  21379107.1414                   21379106.8364
 -91696377.52047 -71401575.29345  22270154.9224                   22270153.5944
 -12046387.17647  -9343785.35245  22631035.1644                   22631033.7114
   1621790.27347   1306637.15644  23770956.9064                   23770960.1884
 -68012018.21948 -52945929.57846  20408407.6024                   20408406.3794
 -48651070.25847 -37099512.28144  22872294.3054                   22872294.3284
 -42992234.36348 -33443004.68746  20800288.2584                   20800285.1604
 11  8  1  0 52 30.0000000  0  9G09G28G10G17G12G05G04G27G02
 -33398721.37947 -25667974.62545  22463890.8054                   22463890.9884
-110985386.37146 -86441261.74243  23630867.2734                   23630867.4654
 -29691893.81248 -23090708.69145  21347702.1254                   21347701.8444
 -91761598.53148 -71452396.88745  22257744.6414                   22257742.9024
 -12242031.82847  -9496235.69945  22593805.6564                   22593803.4734
   1407821.92247   1139908.78144  23730240.5944                   23730243.0394
 -68067265.05148 -52988979.06646  20397894.4924                   20397893.2854
 -48712118.81247 -37147082.65644  22860676.9534                   22860678.4574
 -43132390.69948 -33552217.37946  20773617.6174                   20773614.2234
 11  8  1  0 53  0.0000000  0  9G09G28G10G17G12G05G04G27G02
 -33454720.89547 -25711610.67644  22453234.0084                   22453233.8204
-110997988.00046 -86451081.29343  23628469.4534                   23628469.6414
 -29856309.68747 -23218824.90646  21316415.2424                   21316414.3484
 -91826574.15647 -71503027.25445  22245379.7424                   22245377.7664
 -12437329.01247  -9648415.25445  22556641.7034                   22556640.6214
   1194016.27047    973307.21544  23689554.0474                   23689557.0864
 -68122015.55148 -53031641.80146  20387475.7814                   20387474.4804
 -48772720.61347 -37194304.89844  22849145.5784                   22849145.1764
 -43272043.97748 -33661038.09846  20747042.3054                   20747039.7274
 11  8  1  0 53 30.0000000  0  9G09G28G10G17G12G05G04G27G02
 -33510123.77347 -25754781.81244  22442692.0004                   22442691.0274
-111010201.34046 -86460598.27343  23626145.0704                   23626146.5984
 -30020103.24247 -23346456.20345  21285245.8204                   21285245.4104
 -91891301.78948 -71553464.39545  22233062.6724                   22233061.0784
 -12632273.89147  -9800320.30145  22519544.6334                   22519543.5824
    980378.25347    806836.21344  23648900.1884                   23648902.6844
 -68176270.14548 -53073918.10946  20377151.3134                   20377150.3554
 -48832876.18447 -37241179.42644  22837698.3364                   22837698.7854
 -43411192.41848 -33769465.42246  20720563.3444                   20720560.1414
 11  8  1  0 54  0.0000000  0  9G09G28G10G17G12G05G04G27G02
 -33564934.65647 -25797491.64845  22432261.9844                   22432261.3444
-111022029.69146 -86469815.27043  23623894.6024                   23623895.5984
 -30183273.17648 -23473601.55545  21254195.8984                   21254194.9804
 -91955782.39548 -71603709.03145  22220792.2114                   22220790.5234
 -12826865.81647  -9951950.31245  22482515.4694                   22482514.2464
    766909.14147    640496.86344  23608278.7424                   23608280.6254
 -68230032.71948 -53115811.02746  20366920.8834                   20366919.9064
 -48892589.53947 -37287709.38744  22826334.8984                   22826335.6914
 -43549837.85948 -33877500.80946  20694179.7664                   20694176.7544
 11  8  1  0 54 30.0000000  0  9G09G28G10G17G12G05G04G27G02
 -32043732.35947 -24612139.27745  22721737.0234                   22721737.2114
-109458052.29346 -85251131.67243  23921510.0704                   23921510.2664
 -28770389.55548 -22372653.22345  21523058.8914                   21523057.6764
 -90444590.99248 -70426157.30145  22508362.5944                   22508361.3444
 -11445674.19147  -8875697.03145  22745346.7974                   22745346.4734
   2129041.05147   1701898.61744  23867482.8754                   23867485.8714
 -66707881.96148 -51929719.53546  20656576.6644                   20656575.2704
 -47376439.09847 -36106293.48844  23114848.5314                   23114849.5044
 -42112554.17648 -32757539.47746  20967685.9384                   20967682.6644
 11  8  1  0 55  0.0000000  0  9G09G28G10G17G12G05G04G27G02
 -32097365.79347 -24653931.63345  22711530.9614                   22711530.7544
-109469114.07446 -85259751.34443  23919404.3914                   23919405.0594
 -28932302.90248 -22498819.41846  21492247.5554                   21492246.8594
 -90508574.11348 -70476014.29745  22496187.2734                   22496185.6564
 -11639551.18747  -9026769.96945  22708453.8914                   22708452.3834
   1915920.22747   1535830.64544  23826927.2344                   23826929.6094
 -66760665.80148 -51970849.80146  20646532.0704                   20646530.8834
 -47435273.58647 -36152138.58244  23103653.0704                   23103653.4144
 -42250193.20748 -32864790.65646  20941494.2504                   20941490.9264
 11  8  1  0 55 30.0000000  0  9G09G28G10G17G12G05G04G27G02
 -32150416.00047 -24695269.51645  22701435.7894                   22701435.2464
-109479796.25046 -85268075.23043  23917371.8914                   23917373.0004
 -29093585.09848 -22624493.80946  21461556.7974                   21461555.8674
 -90572308.93048 -70525677.80945  22484058.5784                   22484057.0634
 -11833067.87547  -9177562.15645  22671628.0394                   22671626.8364
   1702976.64147   1369900.78944  23786406.0944                   23786408.2234
 -66812964.85948 -52011602.31246  20636579.9064                   20636578.8794
 -47493673.30947 -36197644.92244  23092540.1724                   23092540.5394
 -42387330.39848 -32971650.78146  20915397.5164                   20915394.6914
 11  8  1  0 56  0.0000000  0  9G09G28G10G17G12G05G04G27G02
 -32202883.40247 -24736153.26245  22691451.5704                   22691451.5904
-109490098.25846 -85276102.89843  23915411.7734                   23915412.9104
 -29254230.99648 -22749672.36746  21430986.8674                   21430986.1804
 -90635792.30548 -70575145.40645  22471977.9384                   22471976.8984
 -12026219.01647  -9328069.48045  22634873.5944                   22634871.4494
   1490215.50447   1204113.10544  23745918.4454                   23745920.8404
 -66864778.90648 -52051976.90246  20626720.0394                   20626719.2344
 -47551638.14147 -36242812.38744  23081509.4144                   23081510.3324
 -42523963.59848 -33078118.18046  20889397.2664                   20889394.1954
 11  8  1  0 56 30.0000000  0  9G09G28G10G17G12G05G04G27G02
 -32254773.62947 -24776587.27745  22681577.6644                   22681576.8404
-109500024.62946 -85283837.82443  23913521.4454                   23913523.5434
 -29414240.84448 -22874355.31646  21400537.5634                   21400536.9964
 -90699026.44547 -70624418.80145  22459945.0634                   22459943.9734
 -12219004.96147  -9478292.26245  22598187.0634                   22598184.9264
   1277637.15647   1038467.85544  23705465.4384                   23705467.1564
 -66916113.01248 -52091977.50446  20616951.2664                   20616950.6684
 -47609173.34047 -36287645.09044  23070561.7974                   23070562.3444
 -42660096.10548 -33184195.44146  20863491.9924                   20863488.6564
 11  8  1  0 57  0.0000000  0  9G09G28G10G17G12G05G04G27G02
 -32306089.24647 -24816573.53145  22671812.5314                   22671812.4614
-109509576.50446 -85291280.96143  23911704.6024                   23911706.6254
 -29573611.19948 -22998539.94946  21370210.5864                   21370209.8594
 -90762009.85247 -70673496.80145  22447959.3914                   22447958.7304
 -12411422.35547  -9628227.89145  22561571.4304                   22561568.5234
   1065245.18447    872967.82444  23665048.1564                   23665051.7234
 -66966969.14548 -52131605.66046  20607273.8444                   20607272.8244
 -47666280.67647 -36332144.36744  23059693.6254                   23059694.6524
 -42795727.81648 -33289882.47346  20837682.5084                   20837678.9614
 11  8  1  0 57 30.0000000  0  9G09G28G10G17G12G05G04G27G02
 -32356835.00047 -24856115.72345  22662156.2814                   22662155.9774
-109518757.52046 -85298435.11743  23909957.7274                   23909959.1644
 -29732341.27748 -23122225.67646  21340005.0004                   21340004.2704
 -90824744.25047 -70722380.76245  22436021.9064                   22436020.8714
 -12603470.23847  -9777875.57845  22525025.7114                   22525022.8324
    853040.63347    707613.86744  23624666.9144                   23624670.5274
 -67017350.84848 -52170864.13346  20597686.3284                   20597685.3364
 -47722964.36347 -36376313.51644  23048907.5634                   23048908.4414
 -42930860.40648 -33395180.57046  20811967.5634                   20811963.9614
 11  8  1  0 58  0.0000000  0  9G09G28G10G17G12G05G04G27G02
 -32407012.03547 -24895214.78545  22652607.5864                   22652608.3404
-109527568.02347 -85305300.55143  23908281.7034                   23908282.7464
 -29890427.08248 -23245409.37146  21309922.6884                   21309921.4024
 -90887227.52047 -70771069.03145  22424131.6484                   22424131.0784
 -12795144.93447  -9927232.47745  22488550.7114                   22488548.8674
    641028.14147    542409.56344  23584322.9064                   23584325.5204
 -67067259.07048 -52209753.66446  20588189.0314                   20588187.8794
 -47779225.37147 -36420153.33244  23038201.6564                   23038201.7154
 -43065492.73448 -33500088.85546  20786347.7424                   20786344.4844
 11  8  1  0 58 30.0000000  0  9G09G28G10G17G12G05G04G27G02
 -32456628.25047 -24933876.84845  22643166.6024                   22643166.3754
-109536014.44946 -85311882.31243  23906674.8284                   23906676.3014
 -30047871.10248 -23368092.95745  21279961.8284                   21279960.5554
 -90949463.49247 -70819564.60245  22412288.2034                   22412287.0434
 -12986448.68447 -10076300.32445  22452147.5004                   22452145.4734
    429205.44947    377353.15244  23544014.2034                   23544016.8404
 -67116701.25448 -52248280.04346  20578780.5554                   20578779.9264
 -47835070.93447 -36463669.41844  23027574.5864                   23027574.5124
 -43199630.43748 -33604611.72346  20760822.0704                   20760818.6174
 11  8  1  0 59  0.0000000  0  9G09G28G10G17G12G05G04G27G02
 -32505683.72347 -24972101.93445  22633831.5394                   22633831.5984
-109544095.58646 -85318179.40243  23905136.6414                   23905139.3324
 -30204667.78148 -23490272.13346  21250124.5084                   21250123.2894
 -91011448.97347 -70867864.97745  22400492.5474                   22400491.7624
 -13177375.78147 -10225074.66045  22415815.3134                   22415813.7344
    217578.76247    212449.46544  23503742.3754                   23503745.0634
 -67165676.37548 -52286442.48846  20569460.9304                   20569460.1564
 -47890500.42247 -36506861.28944  23017026.1254                   23017027.3484
 -43333270.55548 -33708746.86746  20735391.4144                   20735387.6844
 11  8  1  0 59 30.0000000  0  9G09G28G10G17G12G05G04G27G02
 -32554186.73447 -25009896.54745  22624602.0004                   22624602.4884
-109551818.66046 -85324197.51243  23903667.8984                   23903668.6484
 -30360819.71148 -23611948.91446  21220409.3594                   21220408.7074
 -91073188.75047 -70915973.89145  22388744.1724                   22388743.4574
 -13367928.49247 -10373557.27345  22379553.8284                   22379552.3714
      6145.73447     47696.70344  23463508.0234                   23463509.7114
 -67214192.17648 -52324247.02046  20560228.5944                   20560227.4384
 -47945521.66447 -36549735.05144  23006556.6884                   23006557.1954
 -43466419.03548 -33812498.92246  20710054.0314                   20710050.6254
 11  8  1  1  0  0.0000000  0  9G09G28G10G17G12G05G04G27G02
 -32602138.32447 -25047261.48045  22615475.8444                   22615476.9614
-109559183.94546 -85329936.74643  23902265.6954                   23902267.3134
 -30516322.90648 -23733120.19546  21190818.1644                   21190817.5704
 -91134680.23047 -70963889.32445  22377042.6884                   22377041.2774
 -13558102.70747 -10521744.97345  22343364.9304                   22343363.3914
   -205088.80147   -116901.40644  23423311.6254                   23423312.8524
 -67262249.01248 -52361693.91446  20551084.2894                   20551082.8014
 -48000135.23847 -36592291.12944  22996163.8204                   22996164.6414
 -43599074.37548 -33915866.69946  20684810.6564                   20684807.2344
 11  8  1  1  0 30.0000000  0  9G09G28G10G17G12G05G04G27G02
 -32649544.01647 -25084201.03545  22606455.3674                   22606456.1024
-109566195.21146 -85335400.19943  23900931.4224                   23900933.2624
 -30671176.90648 -23853785.60246  21161350.1954                   21161349.7774
 -91195925.35247 -71011612.78945  22365388.2344                   22365387.0124
 -13747898.10547 -10669637.48045  22307248.1254                   22307246.1644
   -416124.56247   -281344.57444  23383152.6484                   23383154.8364
 -67309851.81648 -52398787.02046  20542025.4224                   20542024.1604
 -48054346.07447 -36634533.43044  22985847.8914                   22985848.5164
 -43731239.32448 -34018852.35546  20659660.1644                   20659656.5824
 11  8  1  1  1  0.0000000  0  9G09G28G10G17G12G05G04G27G02
 -32696408.39547 -25120718.78145  22597538.2194                   22597538.5634
-109572856.19546 -85340590.66443  23899663.8134                   23899665.2464
 -30825380.93048 -23973944.53946  21132006.4774                   21132005.6454
 -91256924.65247 -71059144.69945  22353780.6334                   22353778.8554
 -13937313.88747 -10817234.20745  22271203.2894                   22271201.3674
   -626960.09447   -445631.77044  23343031.4454                   23343033.5944
 -67357004.12948 -52435529.09046  20533052.6254                   20533051.6414
 -48108158.25047 -36676465.06644  22975607.7034                   22975607.9574
 -43862916.02048 -34121457.54746  20634603.0084                   20634599.5044
 11  8  1  1  1 30.0000000  0  9G09G28G10G17G12G05G04G27G02
 -32742734.65647 -25156817.21545  22588721.8834                   22588722.8484
-109579168.89146 -85345509.73043  23898462.8674                   23898463.8134
 -30978932.45748 -24093595.03946  21102786.1564                   21102785.5044
 -91317678.30947 -71106485.20345  22342219.3364                   22342218.1094
 -14126347.35247 -10964532.98045  22235232.0234                   22235230.3284
   -837592.46947   -609760.62944  23302949.5944                   23302950.9694
 -67403708.53948 -52471922.16846  20524165.0394                   20524164.4614
 -48161574.28147 -36718088.02744  22965443.1024                   22965444.0394
 -43994104.77348 -34223682.54346  20609638.4924                   20609635.2384
 11  8  1  1  2  0.0000000  0  9G09G28G10G17G12G05G04G27G02
 -31213103.68047 -23964897.01245  22879801.3984                   22879801.7584
-108009713.80546 -84122557.82843  24197120.7974                   24197122.0514
 -29556403.45748 -22985130.83246  21373484.7344                   21373483.7894
 -89802762.69547 -69926031.48445  22630498.0704                   22630497.0394
 -12739568.50447  -9883926.09845  22499126.8364                   22499125.0274
    527409.05947    453877.15244  23562699.8984                   23562701.8674
 -65874545.00048 -51280366.17646  20815154.9694                   20815154.2274
 -46639174.14147 -35531802.26244  23255146.3204                   23255146.6684
 -42549380.85548 -33097923.62546  20884560.5554                   20884556.8984
 11  8  1  1  2 30.0000000  0  9G09G28G10G17G12G05G04G27G02
 -31258365.40647 -24000165.94544  22871188.0634                   22871188.8484
-108015337.68746 -84126940.16043  24196050.9144                   24196051.2544
 -29708646.00448 -23103761.34446  21344514.0234                   21344512.7544
 -89863025.30547 -69972989.35545  22619030.3134                   22619029.5824
 -12927831.91447 -10030624.81645  22463301.6884                   22463300.0234
    317189.27047    290069.79744  23522696.5634                   23522698.4614
 -65920363.05548 -51316068.57046  20806436.5634                   20806435.1134
 -46691808.08647 -35572815.80544  23245130.7504                   23245131.3554
 -42679597.88348 -33199391.40646  20859780.9614                   20859777.3834
 11  8  1  1  3  0.0000000  0  9G09G28G10G17G12G05G04G27G02
 -31303100.53147 -24035024.50845  22862674.8524                   22862676.4144
-108020621.25046 -84131057.33243  24195045.2974                   24195046.9344
 -29860231.53548 -23221879.88346  21315668.2974                   21315667.5044
 -89923042.59447 -70019756.07045  22607609.9844                   22607608.4774
 -13115707.57047 -10177021.40245  22427550.0704                   22427548.6644
    107179.34847    126425.91844  23482731.9224                   23482734.6214
 -65965742.48448 -51351429.17246  20797800.9224                   20797799.5824
 -46744055.89847 -35613528.46144  23235188.0634                   23235188.7584
 -42809330.68048 -33300481.88346  20835093.6804                   20835090.3054
 11  8  1  1  3 30.0000000  0  9G09G28G10G17G12G05G04G27G02
 -31347315.02347 -24069477.41845  22854261.5164                   22854262.3834
-108025568.92646 -84134912.75843  24194103.5394                   24194105.6334
 -30011160.37548 -23339486.73046  21286947.5314                   21286946.1684
 -89982816.71947 -70066333.30945  22596235.4454                   22596234.0514
 -13303195.21147 -10323115.62545  22391872.8204                   22391871.1214
   -102620.81647    -37054.48044  23442808.3134                   23442809.7894
 -66010688.28948 -51386451.88346  20789248.2894                   20789247.6054
 -46795922.77047 -35653944.28944  23225318.2894                   23225319.2774
 -42938582.62948 -33401197.68046  20810497.9304                   20810494.6914
 11  8  1  1  4  0.0000000  0  9G09G28G10G17G12G05G04G27G02
 -31391011.76247 -24103526.87144  22845946.2664                   22845946.7274
-108030182.63346 -84138507.94143  24193225.6804                   24193226.7194
 -30161430.16048 -23456580.01646  21258351.7974                   21258350.8404
 -90042346.63747 -70112720.25445  22584907.1564                   22584905.5474
 -13490292.59847 -10468905.75445  22356268.9454                   22356267.6844
   -312208.00047   -200368.94544  23402925.8834                   23402927.4964
 -66055202.67648 -51421138.43746  20780777.0944                   20780776.2114
 -46847411.16847 -35694065.18744  23215520.3914                   23215521.6024
 -43067354.21148 -33501539.16446  20785993.1884                   20785990.1684
 11  8  1  1  4 30.0000000  0  9G09G28G10G17G12G05G04G27G02
 -31434193.77347 -24137175.25444  22837729.6484                   22837729.9694
-108034464.22346 -84141844.28143  24192410.4614                   24192413.1684
 -30311038.51648 -23573157.91846  21229882.1804                   21229881.6884
 -90101631.98447 -70158916.62545  22573625.2974                   22573623.9614
 -13676996.79348 -10614389.50446  22320740.5084                   22320739.4614
   -521579.07447   -363515.02044  23363083.0864                   23363084.8984
 -66099287.76648 -51455490.46946  20772387.9384                   20772387.0004
 -46898523.48847 -35733893.08244  23205793.9774                   23205795.4884
 -43195645.63748 -33601506.49646  20761580.4614                   20761576.6564
 11  8  1  1  5  0.0000000  0  9G09G28G10G17G12G05G04G27G02
 -31476870.29347 -24170429.71144  22829608.0164                   22829608.9964
-108038421.50846 -84144927.97344  24191657.8134                   24191660.1254
 -30459989.32848 -23689223.42646  21201537.8674                   21201536.8554
 -90160678.44547 -70204926.86745  22562389.2194                   22562387.6914
 -13863310.99247 -10759569.35945  22285285.9144                   22285284.2624
   -730737.30547   -526495.27044  23323281.3524                   23323282.9384
 -66142951.89848 -51489514.48446  20764079.3204                   20764078.2814
 -46949268.39547 -35773434.64844  23196137.8674                   23196139.0784
 -43323463.48848 -33701104.80146  20737257.0704                   20737253.7544
 11  8  1  1  5 30.0000000  0  9G09G28G10G17G12G05G04G27G02
 -31519042.01647 -24203290.86344  22821583.0784                   22821583.5004
-108042053.98846 -84147758.55544  24190966.5314                   24190968.5314
 -30608277.57848 -23804772.66446  21173319.8444                   21173318.5354
 -90219482.87147 -70250748.50445  22551198.8524                   22551197.5204
 -14049230.68447 -10904441.81645  22249906.3364                   22249904.6414
   -939677.16847   -689305.31644  23283521.4614                   23283523.3714
 -66186195.11348 -51523210.49246  20755850.2114                   20755849.3954
 -46999646.11347 -35812690.08644  23186551.4774                   23186552.2584
 -43450805.82048 -33800332.58246  20713024.9304                   20713021.5044
 11  8  1  1  6  0.0000000  0  9G09G28G10G17G12G05G04G27G02
 -31560712.33247 -24235761.31644  22813653.5164                   22813654.6994
-108045363.85246 -84150337.74643  24190336.9144                   24190338.8834
 -30755901.20748 -23919804.01646  21145227.4304                   21145226.3914
 -90278044.18447 -70296380.72345  22540054.8754                   22540053.8484
 -14234753.10947 -11049004.70345  22214602.8914                   22214601.1374
  -1148395.81647   -851943.02345  23243803.5164                   23243805.0474
 -66229019.81648 -51556580.39846  20747701.2584                   20747700.1564
 -47049659.16047 -35851661.35544  23177034.3204                   23177035.1684
 -43577673.43748 -33899190.44946  20688882.6884                   20688878.9804
 11  8  1  1  6 30.0000000  0  9G09G28G10G17G12G05G04G27G02
 -31601885.64847 -24267844.44545  22805818.5394                   22805819.5664
-108048354.49246 -84152668.23043  24189767.2034                   24189769.4804
 -30902859.66048 -24034317.05146  21117261.9774                   21117261.1254
 -90336364.19147 -70341824.89845  22528957.5474                   22528955.7544
 -14419876.79747 -11193256.88345  22179375.2274                   22179373.5554
  -1356891.72747  -1014407.15645  23204127.5864                   23204130.0554
 -66271429.70348 -51589627.06646  20739630.6174                   20739629.6214
 -47099311.58247 -35890351.64144  23167585.3524                   23167587.1484
 -43704068.18048 -33997679.82846  20664830.5394                   20664827.5864
 11  8  1  1  7  0.0000000  0  9G09G28G10G17G12G05G04G27G02
 -31642567.71947 -24299544.82844  22798076.6484                   22798077.9224
-108051030.24646 -84154753.36343  24189258.4924                   24189260.6884
 -31049153.42248 -24148312.14146  21089423.3364                   21089422.8244
 -90394444.43447 -70387082.23045  22517904.7974                   22517903.7704
 -14604602.29347 -11337198.76646  22144222.5554                   22144221.0824
  -1565164.46547  -1176697.42245  23164495.0704                   23164496.2234
 -66313429.70348 -51622354.34046  20731638.6414                   20731637.5594
 -47148608.58647 -35928764.97744  23158204.7424                   23158206.6134
 -43829993.59448 -34095803.50446  20640867.6334                   20640864.2814
 11  8  1  1  7 30.0000000  0  9G09G28G10G17G12G05G04G27G02
 -31682763.36747 -24330866.15244  22790428.2814                   22790429.0664
-108053394.81646 -84156595.96943  24188808.8444                   24188810.3484
 -31194781.49248 -24261788.51646  21061711.3364                   21061710.5124
 -90452285.86347 -70432153.49245  22506898.2894                   22506896.7464
 -14788928.31648 -11480829.38346  22109146.6174                   22109145.7344
  -1773212.45747  -1338812.54745  23124904.4924                   23124906.1054
 -66355023.51248 -51654765.08646  20723723.2034                   20723722.7384
 -47197554.25047 -35966904.53544  23148890.7194                   23148892.0164
 -43955451.52048 -34193562.91446  20616993.4384                   20616990.2114
 11  8  1  1  8  0.0000000  0  9G09G28G10G17G12G05G04G27G02
 -31722477.05147 -24361811.95744  22782870.8134                   22782871.6844
-108055451.33245 -84158198.56242  24188416.3284                   24188419.5004
 -31339743.28948 -24374745.70746  21034125.9694                   21034124.5744
 -90509889.07847 -70477039.11345  22495936.9304                   22495935.1684
 -14972853.06648 -11624147.31246  22074146.9614                   22074145.9304
  -1981034.35547  -1500751.50045  23085356.9064                   23085358.5434
 -66396214.94148 -51686862.30946  20715885.3524                   20715883.8444
 -47246152.43447 -36004773.32044  23139643.5634                   23139643.8834
 -44080443.77748 -34290959.46946  20593208.5314                   20593205.0514
 11  8  1  1  8 30.0000000  0  9G09G28G10G17G12G05G04G27G02
 -31761712.08647 -24392384.77744  22775404.4384                   22775405.3484
-108057202.24245 -84159563.00042  24188083.3834                   24188086.4494
 -31484036.94548 -24487182.27346  21006668.0944                   21006666.6134
 -90567253.62147 -70521738.78545  22485020.5634                   22485019.1334
 -15156374.59448 -11767151.05546  22039223.6414                   22039222.6564
  -2188627.02047  -1662511.83645  23045853.6414                   23045855.1294
 -66437006.37548 -51718647.83646  20708122.6954                   20708121.1764
 -47294405.96947 -36042373.53544  23130460.2664                   23130461.9924
 -44204971.31648 -34387993.89846  20569512.0634                   20569508.3554
 11  8  1  1  9  0.0000000  0  8G09G10G17G12G05G04G27G02
 -31800472.09847 -24422587.44144  22768028.6174                   22768029.5514
 -31627660.58248 -24599096.75846  20979337.1414                   20979336.0744
 -90624379.44947 -70566252.39545  22474149.5784                   22474148.2934
 -15339490.67247 -11909838.85946  22004377.7194                   22004376.3134
  -2395987.89147  -1824091.55145  23006393.4694                   23006395.1724
 -66477400.53548 -51750123.78946  20700435.8134                   20700434.9884
 -47342317.77047 -36079707.48044  23121343.5164                   23121344.8054
 -44329034.91448 -34484666.81646  20545903.4064                   20545899.8594
 11  8  1  1  9 30.0000000  0  8G09G10G17G12G05G04G27G02
 -30263341.71547 -23224823.54744  23060535.1724                   23060536.3134
 -30195190.31248 -23482886.11746  21251927.0784                   21251926.3714
 -89105847.14147 -69382980.48445  22763117.1884                   22763115.6134
 -13946775.44547 -10824606.18745  22269402.7274                   22269401.3874
  -1027690.11747   -757885.30145  23266771.9774                   23266773.4224
 -64941981.25048 -50553693.16846  20992616.2194                   20992614.8364
 -45814471.97347 -34889178.35244  23412082.4064                   23412084.0044
 -42877214.30548 -33353378.01246  20822175.8364                   20822172.3754
 11  8  1  1 10  0.0000000  0  8G09G10G17G12G05G04G27G02
 -30301166.75447 -23254297.65644  23053337.4454                   23053337.7464
 -30337473.22748 -23593755.88746  21224851.2114                   21224850.3984
 -89162499.25847 -69427124.98045  22752336.6644                   22752335.1094
 -14129077.87948 -10966659.98045  22234711.7894                   22234710.3364
  -1234583.95747   -919101.09845  23227401.7664                   23227402.7544
 -64981593.07448 -50584559.50446  20985078.4454                   20985077.0354
 -45861713.91447 -34925990.32044  23403092.6094                   23403094.6684
 -43000357.52348 -33449333.74646  20798742.2974                   20798738.8324
 11  8  1  1 10 30.0000000  0  8G09G10G17G12G05G04G27G02
 -30338519.69947 -23283403.91044  23046230.1024                   23046230.6764
 -30479073.17648 -23704093.47346  21197905.6804                   21197904.6844
 -89218903.56647 -69471076.38745  22741603.4224                   22741602.2154
 -14310959.83647 -11108386.14545  22200100.9304                   22200099.2424
  -1441230.04747  -1080123.82845  23188077.3984                   23188079.3914
 -65020807.44148 -50615116.14846  20977616.0944                   20977615.0474
 -45908615.13347 -34962536.79344  23394168.6724                   23394169.3484
 -43123031.77748 -33544924.05146  20775397.9844                   20775394.5594
 11  8  1  1 11  0.0000000  0  8G09G10G17G12G05G04G27G02
 -30375405.45746 -23312146.13744  23039210.4924                   23039211.1604
 -30619989.88748 -23813898.66046  21171090.3674                   21171089.3444
 -89275062.00448 -69514836.22745  22730916.9924                   22730915.6954
 -14492420.77748 -11249784.26245  22165569.8594                   22165568.2114
  -1647627.50047  -1240952.83245  23148801.5314                   23148803.0124
 -65059628.67648 -50645366.45346  20970228.9924                   20970227.8284
 -45955180.28147 -34998821.41444  23385307.1414                   23385308.8204
 -43245239.68748 -33640150.97746  20752142.5944                   20752139.0434
 11  8  1  1 11 30.0000000  0  8G09G10G17G12G05G04G27G02
 -30411830.60546 -23340529.45344  23032278.9454                   23032280.1804
 -30760224.80148 -23923172.58246  21144404.3204                   21144403.2814
 -89330976.92647 -69558406.29345  22720276.8204                   22720275.3054
 -14673461.12148 -11390854.62946  22131118.9614                   22131117.4414
  -1853776.37547  -1401588.13745  23109572.9064                   23109574.0234
 -65098062.14848 -50675314.60946  20962915.0634                   20962914.2624
 -46001415.15647 -35034848.66444  23376509.3754                   23376510.3204
 -43366985.09048 -33735017.51646  20728975.3674                   20728971.8754
 11  8  1  1 12  0.0000000  0  8G09G10G17G12G05G04G27G02
 -30447799.60947 -23368557.32844  23025434.3204                   23025435.4734
 -30899777.09048 -24031914.58246  21117848.4844                   21117847.3204
 -89386648.73447 -69601786.90645  22709682.9454                   22709681.0944
 -14854079.45348 -11531596.16446  22096748.6414                   22096746.9964
  -2059674.87947  -1562028.36745  23070391.2344                   23070392.1804
 -65136111.65248 -50704963.55546  20955674.4844                   20955673.3484
 -46047323.52347 -35070621.49244  23367772.8444                   23367773.8054
 -43488269.94548 -33829525.16446  20705895.7664                   20705892.0124
 11  8  1  1 12 30.0000000  0  8G09G10G17G12G05G04G27G02
 -30483319.50847 -23396235.20344  23018675.2114                   23018675.6994
 -31038648.55948 -24140126.07846  21091422.1254                   21091421.1484
 -89442080.77347 -69644980.69545  22699134.0474                   22699132.9804
 -15034276.93748 -11672009.77046  22062458.2734                   22062456.3014
  -2265323.92247  -1722274.20345  23031257.7504                   23031257.8794
 -65173782.70348 -50734317.62146  20948506.0634                   20948504.9384
 -46092911.69946 -35106144.84044  23359097.8674                   23359098.7974
 -43609098.48448 -33923677.25846  20682902.6254                   20682899.4384
 11  8  1  1 13  0.0000000  0  8G09G10G17G12G05G04G27G02
 -30518394.35247 -23423566.32444  23012001.5004                   23012001.9024
 -31176838.15248 -24247806.25846  21065125.5004                   21065124.3634
 -89497273.24647 -69687987.82045  22688631.4144                   22688630.1884
 -15214052.07848 -11812094.27346  22028248.0944                   22028246.3984
  -2470720.99247  -1882323.71145  22992171.5554                   22992172.5554
 -65211078.95748 -50763379.61746  20941408.5704                   20941407.5204
 -46138183.36346 -35141421.54344  23350482.8594                   23350484.3714
 -43729472.34048 -34017475.04746  20659996.1174                   20659992.7544
 11  8  1  1 13 30.0000000  0  8G09G10G17G12G05G04G27G02
 -30553028.39547 -23450553.96545  23005410.4064                   23005411.5634
 -31314345.02348 -24354954.43446  21038958.6174                   21038957.4064
 -89552226.51247 -69730808.55145  22678173.7814                   22678173.7154
 -15393403.20348 -11951848.36346  21994118.8914                   21994117.3594
  -2675864.13747  -2042175.32845  22953134.1804                   22953134.8914
 -65248003.26248 -50792151.79346  20934382.1884                   20934380.8754
 -46183141.94947 -35176454.28544  23341927.6024                   23341928.4884
 -43849393.32048 -34110919.93746  20637175.9924                   20637172.7584
 11  8  1  1 14  0.0000000  0  8G09G10G17G12G05G04G27G02
 -30587224.95346 -23477200.70744  22998902.7664                   22998903.4694
 -31451167.44148 -24461569.25446  21012922.4224                   21012921.2544
 -89606940.14847 -69773442.55545  22667762.4924                   22667760.8164
 -15572327.29748 -12091269.71546  21960069.7344                   21960068.8444
  -2880750.53547  -2201826.88745  22914145.5394                   22914145.9884
 -65284558.27048 -50820636.20746  20927426.2664                   20927424.9494
 -46227790.28546 -35211245.27044  23333431.3594                   23333432.5474
 -43968861.91448 -34204012.30946  20614441.9614                   20614438.4964
 11  8  1  1 14 30.0000000  0  8G09G10G17G12G05G04G27G02
 -30620991.73847 -23503512.53544  22992477.1024                   22992479.5704
 -31587307.85548 -24567652.66446  20987015.5004                   20987014.6334
 -89661418.06647 -69815892.87545  22657395.3444                   22657394.4774
 -15750826.63748 -12230360.09046  21926102.9454                   21926101.4614
  -3085381.63747  -2361279.52045  22875205.2894                   22875206.0204
 -65320750.71148 -50848838.09846  20920539.0784                   20920538.0084
 -46272135.49246 -35245800.05944  23324992.3444                   23324994.0944
 -44087883.50448 -34296756.38746  20591792.5004                   20591789.4494
 11  8  1  1 15  0.0000000  0  8G09G10G17G12G05G04G27G02
 -30654334.90247 -23529494.29344  22986131.6804                   22986132.9264
 -31722767.45348 -24673205.54746  20961238.2504                   20961237.3524
 -89715662.30147 -69858161.11345  22647072.7114                   22647071.7074
 -15928901.50448 -12369119.70746  21892216.4384                   21892215.2934
  -3289757.37547  -2520533.16045  22836313.5084                   22836314.6484
 -65356585.52748 -50876761.33246  20913719.7664                   20913718.7774
 -46316183.07046 -35280122.95744  23316610.6174                   23316612.7664
 -44206461.48848 -34389154.78946  20569228.4064                   20569224.5514
 11  8  1  1 15 30.0000000  0  8G09G10G17G12G05G04G27G02
 -30687257.07047 -23555147.98444  22979867.9694                   22979868.8714
 -31857543.38748 -24778225.71546  20935591.4694                   20935590.0044
 -89769671.30547 -69900246.04345  22636795.0164                   22636794.1134
 -16106548.23848 -12507545.71946  21858411.9384                   21858410.7114
  -3493873.77747  -2679584.70345  22797471.4144                   22797472.0824
 -65392064.20348 -50904407.05546  20906968.5164                   20906967.3834
 -46359934.89146 -35314215.38344  23308284.8524                   23308287.0394
 -44324595.74248 -34481207.42246  20546747.7504                   20546744.2664
 11  8  1  1 16  0.0000000  0  8G09G10G17G12G05G04G27G02
 -30719761.90647 -23580476.50044  22973681.7894                   22973683.4614
 -31991634.44948 -24882712.20746  20910074.8594                   20910073.5554
 -89823445.12547 -69942147.73445  22626562.8594                   22626561.3054
 -16283764.48848 -12645636.29346  21824688.6334                   21824686.5354
  -3697728.20747  -2838432.13745  22758679.3834                   22758679.3914
 -65427189.24248 -50931777.20746  20900284.1334                   20900283.5124
 -46403393.93447 -35348079.66844  23300016.0084                   23300016.0514
 -44442287.81248 -34572915.49646  20524351.9384                   20524348.1914
 11  8  1  1 16 30.0000000  0  8G09G10G17G12G05G04G27G02
 -30751854.39547 -23605483.72344  22967575.6884                   22967577.0124
 -32125040.21148 -24986664.70346  20884688.6094                   20884687.1294
 -89876984.71547 -69983866.88345  22616374.5784                   22616373.5434
 -16460549.27747 -12783390.66846  21791047.5234                   21791046.0704
  -3901319.02747  -2997074.14545  22719936.5704                   22719937.0474
 -65461964.75048 -50958875.02046  20893666.5234                   20893665.7624
 -46446564.39547 -35381719.08244  23291799.7664                   23291802.5514
 -44559539.71148 -34664280.58646  20502039.4224                   20502035.7234
 11  8  1  1 17  0.0000000  0  8G09G10G17G12G05G04G27G02
 -29208118.66447 -22402572.81644  23261338.4144                   23261339.2034
 -30682337.13348 -23862480.45346  21159226.0004                   21159224.1724
 -88354869.62947 -68797803.18045  22906023.5314                   22906022.0314
 -15061476.39148 -11693203.99246  22057282.3134                   22057280.9884
  -2529218.75047  -1927904.91445  22981038.4144                   22981039.3444
 -63920973.59848 -49758102.71146  21186907.7734                   21186906.1294
 -44914029.77047 -34187536.37544  23583432.2424                   23583434.2504
 -43100929.98048 -33527701.54346  20779603.7504                   20779600.3834
 11  8  1  1 17 30.0000000  0  8G09G10G17G12G05G04G27G02
 -29239402.41447 -22426949.83244  23255384.6954                   23255386.6684
 -30814374.74248 -23965366.84446  21134100.2504                   21134098.5554
 -88407945.02347 -68839160.61745  22895923.4844                   22895921.9804
 -15237397.30947 -11830285.21146  22023805.3054                   22023804.0354
  -2732279.84447  -2086134.14145  22942397.5314                   22942398.2814
 -63955062.66448 -49784665.62546  21180420.6884                   21180419.6644
 -44956637.85547 -34220737.60544  23575324.6414                   23575326.2154
 -43217309.89548 -33618387.14846  20757457.4534                   20757453.3634
 11  8  1  1 18  0.0000000  0  8G09G10G17G12G05G04G27G02
 -29270285.00446 -22451014.23444  23249508.6094                   23249509.6374
 -30945723.61348 -24067716.55546  21109104.9384                   21109103.8284
 -88460785.65647 -68880335.14145  22885868.1174                   22885867.0124
 -15412880.32847 -11967025.21146  21990412.3204                   21990411.1604
  -2935069.69947  -2244152.05145  22903807.7034                   22903807.8674
 -63988810.22348 -49810962.43446  21173998.8594                   21173997.9344
 -44998966.88347 -34253721.37944  23567269.7894                   23567271.6094
 -43333252.98848 -33708732.38746  20735394.3364                   20735390.2664
 11  8  1  1 18 30.0000000  0  8G09G10G17G12G05G04G27G02
 -29300773.39147 -22474771.47744  23243706.9694                   23243708.4734
 -31076385.80548 -24169531.20746  21084240.8444                   21084239.4264
 -88513394.72347 -68921329.18445  22875857.0784                   22875854.8634
 -15587926.21148 -12103424.59846  21957101.8914                   21957101.1414
  -3137589.22747  -2401959.29345  22865269.3754                   22865269.0044
 -64022221.84048 -49836997.48046  21167640.9774                   21167639.7304
 -45041023.00447 -34286492.46944  23559266.5474                   23559268.0554
 -43448763.83648 -33798740.80946  20713412.7114                   20713409.5554
 11  8  1  1 19  0.0000000  0  8G09G10G17G12G05G04G27G02
 -29330871.36347 -22498224.50044  23237979.1954                   23237981.0904
 -31206360.14848 -24270809.87146  21059507.4144                   21059506.2544
 -88565771.93447 -68962142.56645  22865889.9144                   22865888.5394
 -15762533.61348 -12239482.30546  21923875.5164                   21923874.4964
  -3339835.67247  -2559553.76645  22826783.5554                   22826782.9574
 -64055300.56648 -49862773.12946  21161346.4224                   21161345.3674
 -45082809.59446 -34319053.57844  23551314.8984                   23551316.5234
 -43563844.08248 -33888413.71146  20691513.9224                   20691510.5904
 11  8  1  1 19 30.0000000  0  8G09G10G17G12G05G04G27G02
 -29360583.24647 -22521376.66444  23232325.8284                   23232326.3204
 -31335645.69948 -24371551.81646  21034904.9064                   21034903.6954
 -88617917.51647 -69002775.47345  22855967.0084                   22855965.3714
 -15936700.46948 -12375196.73846  21890732.4774                   21890731.2734
  -3541806.64847  -2716933.57445  22788349.1174                   22788349.7074
 -64088049.12148 -49888291.50046  21155114.5084                   21155113.0434
 -45124330.07446 -34351407.33644  23543413.4614                   23543415.7034
 -43678494.84848 -33977751.94146  20669696.8914                   20669692.7894
 11  8  1  1 20  0.0000000  0  8G09G10G17G12G05G04G27G02
 -29389912.48047 -22544230.66844  23226744.2194                   23226745.6134
 -31464241.59848 -24471756.36346  21010433.9304                   21010432.6094
 -88669830.85947 -69043227.39845  22846088.0554                   22846087.0864
 -16110424.41848 -12510566.04746  21857674.0084                   21857672.4574
  -3743499.82047  -2874096.91445  22749967.9924                   22749968.0434
 -64120470.43448 -49913554.86746  21148944.6724                   21148943.8984
 -45165587.47746 -34383556.11344  23535563.2814                   23535564.8914
 -43792717.52348 -34066756.59846  20647960.8054                   20647957.5904
 11  8  1  1 20 30.0000000  0  8G09G10G17G12G05G04G27G02
 -29418868.29747 -22566793.69944  23221234.6724                   23221234.8794
 -31592152.20748 -24571426.92646  20986093.4384                   20986092.2074
 -88721518.04747 -69083503.11745  22836252.1414                   22836250.8444
 -16283708.79348 -12645592.82446  21824698.9384                   21824697.6564
  -3944917.87947  -3031045.87545  22711639.0004                   22711639.1334
 -64152572.45348 -49938569.44146  21142835.7344                   21142834.9064
 -45206590.50846 -34415506.64844  23527760.0784                   23527761.9694
 -43906518.66848 -34155432.78146  20626305.1954                   20626301.4964
 11  8  1  1 21  0.0000000  0  8G09G10G17G12G05G04G27G02
 -29447451.87147 -22589066.69144  23215795.4454                   23215796.8484
 -31719373.73448 -24670560.53946  20961883.5864                   20961882.4454
 -88772975.82847 -69123600.05545  22826459.9454                   22826459.1454
 -16456548.83647 -12780273.37146  21791808.3754                   21791806.6954
  -4146055.72747  -3187776.50445  22673364.0784                   22673364.1524
 -64184355.21548 -49963335.23846  21136787.6954                   21136786.7584
 -45247339.57447 -34447259.32844  23520006.4694                   23520008.0634
 -44019896.84848 -34243779.38746  20604730.1954                   20604726.3834
 11  8  1  1 21 30.0000000  0  8G09G10G17G12G05G04G27G02
 -29475667.50847 -22611052.95744  23210425.8524                   23210426.6374
 -31845905.54348 -24769156.71146  20937805.6804                   20937804.0984
 -88824204.39147 -69163518.38345  22816711.5554                   22816710.5394
 -16628942.72748 -12914606.24646  21759002.8754                   21759001.6174
  -4346910.96947  -3344286.93045  22635142.0234                   22635142.2154
 -64215821.50848 -49987854.43446  21130800.0784                   21130798.7464
 -45287838.30146 -34478816.89544  23512300.1644                   23512301.3444
 -44132853.90648 -34331797.84446  20583235.1954                   20583231.3364
 11  8  1  1 22  0.0000000  0  8G09G10G17G12G05G04G27G02
 -29503521.78147 -22632757.65244  23205125.4224                   23205126.4844
 -31971749.61748 -24867216.97346  20913858.1484                   20913857.1804
 -88875206.28547 -69203260.11345  22807005.9064                   22807004.2704
 -16800891.38348 -13048592.18046  21726281.9454                   21726281.1914
  -4547484.01647  -3500577.43445  22596974.3364                   22596974.2504
 -64246977.09848 -50012131.51246  21124871.3444                   21124870.2894
 -45328092.77046 -34510184.13343  23504639.4614                   23504641.6414
 -44245393.67648 -34419491.14546  20561819.2504                   20561815.8164
 11  8  1  1 22 30.0000000  0  8G09G10G17G12G05G04G27G02
 -29531016.76647 -22654182.35944  23199893.3754                   23199894.4454
 -32096903.04348 -24964739.09046  20890042.3674                   20890040.5164
 -88925979.56647 -69242823.68445  22797344.4924                   22797342.8634
 -16972390.72748 -13182227.98846  21693646.8984                   21693645.8874
  -4747770.34847  -3656644.55545  22558861.2344                   22558860.6524
 -64277822.82448 -50036167.14846  21119001.5864                   21119000.3014
 -45368104.39246 -34541362.16643  23497025.0944                   23497027.4264
 -44357515.83648 -34506859.03146  20540483.2034                   20540479.2774
 11  8  1  1 23  0.0000000  0  8G09G10G17G12G05G04G27G02
 -29558158.18047 -22675331.60244  23194727.7814                   23194730.1294
 -32221366.89548 -25061723.85246  20866357.6884                   20866356.2624
 -88976526.41047 -69282210.80945  22787725.3524                   22787724.3164
 -17143440.76248 -13315513.67646  21661097.2894                   21661096.1294
  -4947769.39847  -3812487.82045  22520802.3984                   22520802.4304
 -64308363.31248 -50059964.92646  21113190.0004                   21113188.8364
 -45407878.21146 -34572354.87144  23489456.9224                   23489459.0314
 -44469223.94148 -34593904.27046  20519226.0704                   20519222.3984
 11  8  1  1 23 30.0000000  0  8G09G10G17G12G05G04G27G02
 -29584948.38746 -22696207.14544  23189629.9614                   23189631.3094
 -32345138.74648 -25158169.40646  20842804.6024                   20842803.1724
 -89026845.29747 -69321420.31245  22778150.8204                   22778149.1604
 -17314037.53548 -13448446.15646  21628633.9384                   21628632.2234
  -5147477.22747  -3968104.14545  22482798.3134                   22482798.8244
 -64338599.54348 -50083525.60946  21107436.0554                   21107434.8204
 -45447415.77347 -34603163.50043  23481933.5634                   23481935.1994
 -44580517.41448 -34680626.43046  20498047.7344                   20498043.6334
 11  8  1  1 24  0.0000000  0  9G09G25G10G17G12G05G04G27G02
 -29611393.12147 -22716813.49644  23184598.6254                   23184599.9574
  17026197.16456  13307475.80553  24520074.0944                   24520076.1254
 -32468219.55548 -25254076.48446  20819383.1094                   20819381.3054
 -89076937.62147 -69360453.27745  22768618.3284                   22768616.8404
 -17484181.27748 -13581025.61746  21596256.4384                   21596254.7814
  -5346893.09047  -4123492.96945  22444851.6484                   22444851.6414
 -64368536.41048 -50106853.01646  21101739.1484                   21101738.4414
 -45486722.26246 -34633792.12144  23474453.8834                   23474455.9064
 -44691399.65248 -34767028.14546  20476947.0004                   20476943.4494
 11  8  1  1 24 30.0000000  0  9G09G25G10G17G12G05G04G27G02
 -29637500.85547 -22737157.28544  23179630.2734                   23179631.5394
  16822341.09046  13148626.96943  24481280.9534                   24481283.7934
 -32590613.30148 -25349448.18746  20796092.0314                   20796091.1174
 -89126807.89847 -69399313.20345  22759128.0554                   22759126.1374
 -17653874.27348 -13713253.86346  21563964.8754                   21563963.5904
  -5546019.12947  -4278655.96945  22406959.2894                   22406958.6414
 -64398180.65248 -50129952.41846  21096098.0634                   21096096.9884
 -45525805.37947 -34664246.61743  23467017.7894                   23467018.6454
 -44801876.53948 -34853114.00846  20455923.9454                   20455920.0944
 11  8  1  1 25  0.0000000  0  9G09G25G10G17G12G05G04G27G02
 -28087859.26247 -21529644.44144  23474517.1254                   23474519.1484
  18194095.51246  14217526.51243  24742318.3524                   24742319.2304
 -31136899.93748 -24216684.48446  21072724.8674                   21072723.1844
 -87601039.51647 -68210402.74244  23049471.5474                   23049470.6254
 -16247693.80548 -12617528.75446  21831551.9614                   21831550.1094
  -4169430.93047  -3205989.69145  22668914.8204                   22668914.7624
 -62852118.88348 -48925228.93746  21390304.1644                   21390303.1804
 -43989251.73046 -33466932.21944  23759413.1024                   23759415.7664
 -43336530.47348 -33711285.86746  20734770.2664                   20734766.4064
 11  8  1  1 25 30.0000000  0  9G09G25G10G17G12G05G04G27G02
 -28113316.48847 -21549481.32444  23469673.0784                   23469674.7664
  17990606.21146  14058963.42643  24703594.5234                   24703595.8674
 -31257929.30948 -24310993.04346  21049693.5864                   21049692.2344
 -87650477.50047 -68248925.83644  23040064.0314                   23040062.8324
 -16416491.64848 -12749059.47346  21799430.9384                   21799429.0354
  -4367981.73847  -3360704.47745  22631132.0554                   22631131.2664
 -62881198.52348 -48947888.37946  21384770.5004                   21384769.6054
 -44027909.91447 -33497055.59443  23752056.9924                   23752058.9064
 -43446212.76248 -33796752.55146  20713898.1334                   20713894.5664
 11  8  1  1 26  0.0000000  0  9G09G25G10G17G12G05G04G27G02
 -28138456.23447 -21569070.81644  23464888.4064                   23464890.5944
  17787301.45746  13900544.17643  24664906.1094                   24664907.3984
 -31378276.99248 -24404770.41446  21026792.1024                   21026790.5314
 -87699701.47747 -68287282.16444  23030696.9224                   23030695.4534
 -16584840.68048 -12880240.48446  21767394.9844                   21767393.2234
  -4566242.77747  -3515193.44945  22593403.7974                   22593404.3364
 -62910001.56648 -48970332.29346  21379289.0004                   21379288.1294
 -44066362.24647 -33527018.60243  23744739.9694                   23744741.7974
 -43555501.58248 -33881912.64846  20693101.2734                   20693096.8714
 11  8  1  1 26 30.0000000  0  9G09G25G10G17G12G05G04G27G02
 -28163276.84847 -21588411.65644  23460166.1174                   23460167.1954
  17584188.62947  13742274.50443  24626255.5704                   24626255.8634
 -31497937.13748 -24498012.03546  21004021.7734                   21004020.1094
 -87748705.43047 -68325467.03144  23021372.6724                   23021370.8874
 -16752733.34448 -13011065.87546  21735446.2584                   21735444.5084
  -4764206.38747  -3669450.67645  22555732.5234                   22555732.1054
 -62938525.39148 -48992558.61746  21373860.9144                   21373860.4414
 -44104606.61347 -33556819.53143  23737462.9694                   23737464.1564
 -43664393.12148 -33966763.16846  20672379.7664                   20672376.0234
 11  8  1  1 27  0.0000000  0  9G09G25G10G17G12G05G04G27G02
 -28187783.80947 -21607508.08244  23455503.6094                   23455504.7624
  17381268.41047  13584154.92243  24587640.8444                   24587642.0234
 -31616910.43048 -24590718.45746  20981381.3594                   20981380.1914
 -87797490.43447 -68363481.30144  23012088.9774                   23012087.3794
 -16920169.15248 -13141535.28146  21703584.3914                   21703582.4924
  -4961871.45347  -3823475.27745  22518117.5704                   22518117.9184
 -62966773.92648 -49014570.45346  21368485.5634                   21368484.9454
 -44142647.55546 -33586461.92243  23730223.1414                   23730224.7074
 -43772890.16848 -34051306.29346  20651733.4694                   20651729.8914
 11  8  1  1 27 30.0000000  0  9G09G25G10G17G12G05G04G27G02
 -28211978.25847 -21626361.00044  23450898.9454                   23450899.7624
  17178545.46947  13426189.06643  24549064.1174                   24549064.8364
 -31735193.71948 -24682887.20346  20958872.5394                   20958871.2384
 -87846054.53547 -68401323.43045  23002847.7424                   23002846.3134
 -17087143.58648 -13271645.19546  21671809.5864                   21671807.8134
  -5159232.64847  -3977263.10945  22480561.1724                   22480560.9494
 -62994747.11748 -49036367.73046  21363162.7814                   21363161.6884
 -44180485.57446 -33615946.21943  23723023.2194                   23723025.0354
 -43880991.11348 -34135540.76646  20631162.2814                   20631158.5634
 11  8  1  1 28  0.0000000  0  9G09G25G10G17G12G05G04G27G02
 -28235864.60947 -21644973.83644  23446353.4224                   23446355.3094
  16976021.26246  13268378.00443  24510524.0164                   24510525.2234
 -31852786.95348 -24774518.24246  20936495.7974                   20936494.4414
 -87894397.86347 -68438993.54345  22993647.3754                   22993647.2704
 -17253654.77048 -13401394.12946  21640123.7814                   21640122.0354
  -5356287.88347  -4130812.51645  22443062.4534                   22443063.1054
 -63022448.32048 -49057953.06246  21357891.4924                   21357890.1884
 -44218124.49646 -33645275.35243  23715860.4774                   23715862.6334
 -43988698.18748 -34219468.33646  20610666.6564                   20610662.8674
 11  8  1  1 28 30.0000000  0  9G09G25G10G17G12G05G04G27G02
 -28259447.13347 -21663349.92644  23441866.1414                   23441867.7974
  16773697.39546  13110723.08243  24472023.1414                   24472024.2074
 -31969689.89148 -24865611.39546  20914249.9224                   20914248.2384
 -87942520.71147 -68476491.85245  22984490.5634                   22984489.2734
 -17419701.50848 -13530781.16446  21608525.9384                   21608524.1294
  -5553035.44547  -4284122.18745  22405623.3834                   22405622.4574
 -63049880.62148 -49079328.86745  21352671.1414                   21352669.9304
 -44255568.14546 -33674452.39543  23708735.3204                   23708737.3244
 -44096013.32848 -34303090.50046  20590245.5084                   20590241.5514
 11  8  1  1 29  0.0000000  0  9G09G25G10G17G12G05G04G27G02
 -28282727.82047 -21681490.82444  23437436.2734                   23437437.9224
  16571577.64847  12953227.19944  24433561.5944                   24433561.7894
 -32085900.23048 -24956164.86346  20892135.8524                   20892134.3404
 -87990421.12547 -68513816.84045  22975375.2194                   22975374.3284
 -17585280.04348 -13659803.38346  21577017.3594                   21577015.2624
  -5749471.30947  -4437188.95345  22368241.8054                   22368242.0474
 -63077044.77348 -49100495.72345  21347501.5784                   21347500.4924
 -44292817.97746 -33703478.35543  23701647.2974                   23701649.5164
 -44202936.19148 -34386406.99246  20569898.6094                   20569894.6604
 11  8  1  1 29 30.0000000  0  9G09G25G10G17G12G05G04G27G02
 -28305713.14547 -21699401.55544  23433061.6804                   23433063.5594
  16369661.83646  12795890.19543  24395137.3984                   24395138.6724
 -32201419.47348 -25046179.82446  20870153.1094                   20870151.7664
 -88038101.28947 -68550970.21145  22966301.3674                   22966300.3594
 -17750390.46948 -13788460.84846  21545598.2664                   21545596.4264
  -5945594.74647  -4590012.29745  22330920.8834                   22330920.7774
 -63103945.84048 -49121457.58245  21342382.5634                   21342381.3914
 -44329879.57046 -33732357.62143  23694595.0394                   23694596.7274
 -44309470.48848 -34469420.71146  20549625.6174                   20549622.0434
 11  8  1  1 30  0.0000000  0  9G09G25G10G17G12G05G04G27G02
 -28328404.60247 -21717083.33244  23428743.7974                   23428745.8874
  16167954.34446  12638715.53543  24356753.3364                   24356755.5234
 -32316245.07848 -25135654.27346  20848302.3834                   20848300.9734
 -88085559.02347 -68587950.27045  22957271.1884                   22957269.2704
 -17915028.33247 -13916750.06646  21514268.4844                   21514266.2624
  -6141400.89547  -4742588.39145  22293660.4064                   22293660.0864
 -63130583.67248 -49142214.32445  21337313.8984                   21337312.4574
 -44366753.64847 -33761090.78943  23687578.3444                   23687580.4344
 -44415615.12148 -34552130.78546  20529427.1954                   20529423.2544
 11  8  1  1 30 30.0000000  0  9G09G25G10G17G12G05G04G27G02
 -28350808.15647 -21734540.77044  23424480.6954                   23424482.3484
  15966455.21146  12481703.30143  24318409.6884                   24318411.3444
 -32430378.66448 -25224589.48846  20826583.5634                   20826582.0204
 -88132796.56247 -68624758.75445  22948282.3594                   22948280.9654
 -18079194.07448 -14044671.40646  21483028.6564                   21483026.8554
  -6336889.64547  -4894917.16445  22256459.8204                   22256459.6684
 -63156963.21948 -49162769.77345  21332293.5634                   21332292.6054
 -44403445.62946 -33789682.06243  23680596.1024                   23680598.1954
 -44521373.76248 -34634540.09446  20509301.7274                   20509297.7774
 11  8  1  1 31  0.0000000  0  9G09G25G10G17G12G05G04G27G02
 -28372921.69947 -21751772.20344  23420272.5554                   23420273.2774
  15765172.26646  12324859.41443  24280106.9614                   24280109.0594
 -32543814.19948 -25312980.77746  20804997.7504                   20804996.1884
 -88179807.57847 -68661390.70745  22939336.1724                   22939335.0824
 -18242880.21547 -14172219.02346  21451879.9384                   21451878.3324
  -6532052.49647  -5046991.96545  22219321.7344                   22219320.9104
 -63183081.34047 -49183121.55145  21327323.6414                   21327322.5434
 -44439952.89146 -33818129.40644  23673648.9694                   23673651.2814
 -44626742.10948 -34716645.27746  20489250.2664                   20489247.0004
 11  8  1  1 31 30.0000000  0  9G09G25G10G17G12G05G04G27G02
 -28394755.50847 -21768785.64144  23416117.3674                   23416119.0664
  15564101.48446  12168180.96943  24241844.3834                   24241847.3404
 -32656557.24248 -25400832.45746  20783542.9614                   20783541.7034
 -88226598.09847 -68697850.84845  22930432.5084                   22930430.9924
 -18406090.73048 -14299396.02046  21420822.4384                   21420820.4414
  -6726893.08247  -5198815.68045  22182244.6804                   22182244.2234
 -63208946.75848 -49203276.40646  21322401.5004                   21322400.8364
 -44476284.70746 -33846440.07843  23666735.1564                   23666737.2854
 -44731727.62148 -34798452.15246  20469272.7114                   20469269.2194
 11  8  1  1 32  0.0000000  0  9G09G25G10G17G12G05G04G27G02
 -28416311.09847 -21785582.30144  23412016.1174                   23412017.7464
  15363247.09046  12011671.11743  24203622.4924                   24203625.8984
 -32768605.11748 -25488142.44146  20762221.0394                   20762219.5164
 -88273165.86347 -68734137.39845  22921571.5314                   22921569.7154
 -18568821.14548 -14426198.91846  21389855.4534                   21389853.2504
  -6921406.55547  -5350384.47745  22145229.4384                   22145229.4224
 -63234559.72748 -49223234.55945  21317527.8984                   21317526.9264
 -44512442.27746 -33874614.93444  23659854.9224                   23659856.8284
 -44836329.39848 -34879960.00846  20449367.4844                   20449364.2114
 11  8  1  1 32 30.0000000  0  9G09G25G10G17G12G05G04G27G02
 -26862169.05947 -20574562.64844  23707759.5084                   23707761.0664
  16738040.42247  13082938.68843  24465238.7424                   24465240.8134
 -31304531.17648 -24347305.55946  21040825.0004                   21040823.5474
 -86744087.37547 -67542647.65645  23212545.0394                   23212543.3594
 -17155641.84448 -13325020.21146  21658774.6644                   21658773.1644
  -5540162.13747  -4274089.99245  22408071.6174                   22408071.8204
 -61684499.76648 -48015395.61345  21612494.4454                   21612492.7624
 -42973005.11346 -32675053.66844  23952800.5864                   23952802.4064
 -43365123.30148 -33733565.62546  20729328.4694                   20729325.0554
 11  8  1  1 33  0.0000000  0  9G09G25G10G17G12G05G04G27G02
 -26883181.34447 -20590935.91444  23703760.6484                   23703762.0124
  16537623.73847  12926769.89543  24427100.8444                   24427102.9414
 -31415189.11348 -24433532.47346  21019767.6414                   21019766.0434
 -86790211.78947 -67578588.74245  23203767.4774                   23203766.4614
 -17317408.09048 -13451071.80546  21627991.6094                   21627989.7894
  -5734016.19547  -4425144.97745  22371182.3204                   22371181.9884
 -61709617.27048 -48034967.67245  21607715.1724                   21607713.1604
 -43008825.26646 -32702965.64544  23945984.0234                   23945986.6414
 -43468964.31248 -33814480.67246  20709568.6024                   20709565.1374
 11  8  1  1 33 30.0000000  0  9G09G25G10G17G12G05G04G27G02
 -26903929.96946 -20607103.78144  23699813.3594                   23699814.0984
  16337426.69547  12770772.24244  24389004.5004                   24389007.5274
 -31525154.08648 -24519219.41846  20998842.0944                   20998839.9654
 -86836115.82447 -67614358.12145  23195032.1954                   23195030.7584
 -17478691.64547 -13576747.27046  21597300.4694                   21597298.6564
  -5927538.99647  -4575941.83645  22334356.1334                   22334355.8954
 -61734492.99648 -48054351.33245  21602980.8674                   21602979.5944
 -43044483.59046 -32730751.53943  23939197.9694                   23939201.2934
 -43572429.49648 -33895102.88346  20689879.5554                   20689875.8324
 11  8  1  1 34  0.0000000  0  9G09G25G10G17G12G05G04G27G02
 -26924414.20747 -20623065.62943  23695915.0084                   23695916.1214
  16137456.37147  12614951.25844  24350951.4224                   24350954.2114
 -31634420.86748 -24604362.32046  20978049.1724                   20978047.2704
 -86881795.56647 -67649952.74245  23186339.9064                   23186338.5704
 -17639485.64848 -13702041.25846  21566701.9924                   21566700.7234
  -6120723.11747  -4726474.78945  22297594.8754                   22297594.0044
 -61759124.64848 -48073544.80545  21598293.6564                   21598292.2854
 -43079978.68046 -32758410.19943  23932443.6254                   23932446.8164
 -43675514.76648 -33975429.03946  20670263.3444                   20670259.6134
 11  8  1  1 34 30.0000000  0  9G09G25G10G17G12G05G04G27G02
 -26944640.39547 -20638826.40644  23692066.2274                   23692068.0084
  15937712.24247  12459306.52744  24312940.6174                   24312944.3164
 -31742991.68448 -24688962.90646  20957388.5864                   20957386.8874
 -86927253.00847 -67685374.10945  23177688.9844                   23177687.9844
 -17799790.85948 -13826954.37546  21536197.5864                   21536195.2854
  -6313568.46547  -4876743.78545  22260897.5084                   22260896.5824
 -61783517.43748 -48092552.16445  21593651.6884                   21593650.4654
 -43115316.29746 -32785946.20343  23925719.6884                   23925722.7704
 -43778224.42248 -34055462.52046  20650717.9844                   20650714.4414
 11  8  1  1 35  0.0000000  0  9G09G25G10G17G12G05G04G27G02
 -26964613.89546 -20654390.30543  23688265.6484                   23688266.5004
  15738194.81347  12303838.43844  24274974.4384                   24274977.6804
 -31850867.88748 -24773022.24246  20936860.3594                   20936858.7384
 -86972489.61747 -67720623.39845  23169080.8674                   23169079.9804
 -17959606.91448 -13951486.32046  21505785.1174                   21505783.3484
  -6506074.35247  -5026748.25046  22224264.7034                   22224263.9414
 -61807675.34448 -48111376.49245  21589054.8054                   21589053.9844
 -43150501.31646 -32813363.25044  23919024.6484                   23919027.8794
 -43880562.02048 -34135206.08246  20631243.8284                   20631240.3554
 11  8  1  1 35 30.0000000  0  9G09G25G10G17G12G05G04G27G02
 -26984338.22746 -20669760.00443  23684511.6884                   23684512.4734
  15538906.67647  12148549.01644  24237050.7114                   24237053.4024
 -31958049.18048 -24856540.09446  20916464.7504                   20916462.5554
 -87017505.35947 -67755700.58245  23160515.3134                   23160513.7814
 -18118931.76648 -14075635.52746  21475466.9694                   21475464.5824
  -6698238.06247  -5176486.09046  22187696.8914                   22187696.0554
 -61831600.68048 -48130019.58645  21584502.1414                   21584500.5354
 -43185536.39847 -32840663.49644  23912357.2194                   23912360.7934
 -43982528.18448 -34214660.21146  20611840.5394                   20611836.9654
 11  8  1  1 36  0.0000000  0  9G09G25G10G17G12G05G04G27G02
 -27003815.05946 -20684936.86744  23680805.6484                   23680807.5634
  15339852.11347  11993441.59444  24199172.0864                   24199174.7734
 -32064533.05948 -24939514.50446  20896201.3754                   20896199.4774
 -87062297.53547 -67790603.54745  23151991.6644                   23151989.7154
 -18277761.13348 -14199398.63746  21445242.5164                   21445240.4534
  -6890054.82047  -5325953.58245  22151194.8054                   22151194.4304
 -61855293.68448 -48148481.65645  21579993.1564                   21579992.1094
 -43220422.64547 -32867847.78944  23905718.8134                   23905722.5204
 -44084122.33248 -34293824.45346  20592507.6024                   20592504.2154
 11  8  1  1 36 30.0000000  0  9G09G25G10G17G12G05G04G27G02
 -27023052.76647 -20699927.36743  23677144.5864                   23677146.0744
  15141028.67247  11838514.24644  24161337.3754                   24161340.4734
 -32170324.07848 -25021949.02046  20876069.8204                   20876068.2424
 -87106870.77047 -67825335.91844  23143508.7894                   23143508.1884
 -18436097.61348 -14322777.69146  21415111.6724                   21415110.2704
  -7081527.13347  -5475152.68745  22114758.7894                   22114758.5594
 -61878761.47348 -48166768.21545  21575527.3134                   21575526.1174
 -43255168.08646 -32894922.31243  23899107.0004                   23899110.3094
 -44185350.74648 -34372703.71147  20573244.4454                   20573240.8244
 11  8  1  1 37  0.0000000  0  9G09G25G10G17G12G05G04G27G02
 -27042055.93747 -20714735.13744  23673529.3204                   23673530.7544
  14942437.85246  11683768.22744  24123545.8984                   24123549.3014
 -32275422.55148 -25103843.88346  20856070.5314                   20856068.3754
 -87151225.80147 -67859898.26644  23135068.1724                   23135067.0864
 -18593940.11348 -14445771.80946  21385075.5234                   21385073.8874
  -7272652.52747  -5624081.46145  22078389.0314                   22078388.1054
 -61902007.09848 -48184881.68045  21571103.8204                   21571102.8594
 -43289776.32847 -32921889.95743  23892521.8364                   23892524.7304
 -44286215.44948 -34451299.55146  20554050.5084                   20554047.2074
 11  8  1  1 37 30.0000000  0  9G09G25G10G17G12G05G04G27G02
 -27060827.69547 -20729362.59844  23669956.4694                   23669957.9024
  14744082.57446  11529205.71143  24085800.9844                   24085803.5044
 -32379828.14848 -25185198.85246  20836202.7584                   20836200.8554
 -87195361.80547 -67894289.94944  23126669.7114                   23126668.0634
 -18751285.93048 -14568378.91446  21355133.3524                   21355131.9884
  -7463427.79347  -5772737.40645  22042085.8284                   22042084.9264
 -61925032.28948 -48202823.37545  21566722.0164                   21566721.1684
 -43324249.89847 -32948752.68444  23885962.5554                   23885964.9024
 -44386717.19948 -34529612.56247  20534926.0634                   20534922.2624
 11  8  1  1 38  0.0000000  0  9G09G25G10G17G12G05G04G27G02
 -27079372.51247 -20743813.21544  23666428.2424                   23666429.4494
  14545964.59846  11374828.17643  24048099.3364                   24048102.8364
 -32483541.09048 -25266014.09446  20816466.7114                   20816464.8594
 -87239279.14847 -67928511.25444  23118312.6804                   23118310.9734
 -18908133.99248 -14690598.14146  21325286.4454                   21325284.8754
  -7653851.09047  -5921119.10245  22005849.0784                   22005848.2384
 -61947840.01648 -48220595.63345  21562381.9844                   21562381.2734
 -43358592.33646 -32975513.23044  23879426.6954                   23879429.8914
 -44486857.70748 -34607644.08246  20515869.5474                   20515866.1054
 11  8  1  1 38 30.0000000  0  9G09G25G10G17G12G05G04G27G02
 -27097692.73447 -20758088.84044  23662941.9534                   23662943.1254
  14348087.28947  11220638.11743  24010444.2974                   24010446.7114
 -32586560.16048 -25346288.65246  20796862.8204                   20796861.1374
 -87282976.57047 -67962561.17244  23109997.0864                   23109994.9774
 -19064480.99647 -14812426.93746  21295534.6804                   21295532.8874
  -7843919.09047  -6069223.93045  21969680.1174                   21969679.4344
 -61970431.48848 -48238199.36745  21558083.2664                   21558081.9844
 -43392805.74246 -33002173.18043  23872916.7974                   23872919.3484
 -44586637.45748 -34685394.50046  20496882.0634                   20496878.2734
 11  8  1  1 39  0.0000000  0  9G09G25G10G17G12G05G04G27G02
 -27115792.25847 -20772192.44544  23659498.2814                   23659499.1954
  14150452.92647  11066637.35243  23972835.6094                   23972838.1914
 -32688885.13348 -25426022.35246  20777390.8134                   20777389.2624
 -87326453.98047 -67996439.62144  23101723.5784                   23101722.1174
 -19220325.14548 -14933863.90246  21265878.6724                   21265876.4144
  -8033628.83647  -6217049.60546  21933579.7504                   21933578.5164
 -61992809.10548 -48255636.45345  21553825.0944                   21553823.6254
 -43426893.15246 -33028734.97343  23866429.8444                   23866433.0824
 -44686057.99648 -34762865.00446  20477962.8754                   20477959.2584
 11  8  1  1 39 30.0000000  0  9G09G25G10G17G12G05G04G27G02
 -27133671.34847 -20786124.33644  23656095.6174                   23656096.9064
  13953067.40247  10912830.53144  23935275.2814                   23935276.3094
 -32790512.42248 -25505212.40246  20758051.8444                   20758050.2974
 -87369707.54347 -68030143.66044  23093492.8594                   23093490.4884
 -19375660.43448 -15054904.36346  21236318.9844                   21236317.5314
  -8222974.20747  -6364591.35246  21897548.1094                   21897547.3554
 -62014971.52748 -48272905.85945  21549607.5164                   21549606.2734
 -43460853.96546 -33055198.15643  23859967.7424                   23859971.0744
 -44785116.87148 -34840053.69146  20459112.6804                   20459108.8594
 11  8  1  1 40  0.0000000  0  9G09G25G10G17G12G05G04G27G02
 -27151337.91047 -20799890.60944  23652733.7034                   23652735.3134
  13755928.74247  10759216.03143  23897760.9064                   23897761.8914
 -32891446.20348 -25583862.05546  20738844.6484                   20738842.7464
 -87412741.30147 -68063676.43744  23085303.5784                   23085301.9304
 -19530489.55148 -15175550.39846  21206856.0634                   21206854.1024
  -8411957.04347  -6511850.60546  21861585.8594                   21861584.9574
 -62036925.32048 -48290012.70345  21545429.5314                   21545428.2704
 -43494695.48046 -33081568.35243  23853527.8914                   23853530.9304
 -44883819.88348 -34916965.08246  20440330.1414                   20440326.6994
 11  8  1  1 40 30.0000000  0  9G09G25G10G17G12G05G04G27G02
 -25593374.80947 -19585893.50044  23949204.4844                   23949206.2544
  15134465.84847  11833400.84843  24160087.7194                   24160088.3794
 -31416263.10248 -24434368.69546  21019562.7034                   21019560.9264
 -85880133.60247 -66869436.64844  23376949.4774                   23376947.4454
 -18109385.55148 -14068196.60246  21477283.3364                   21477281.0204
  -7025148.68747  -5431220.61346  22125486.9454                   22125486.0234
 -60483252.18048 -47079358.29345  21841083.5704                   21841083.1334
 -41952999.70347 -31880247.14143  24146903.2734                   24146906.1484
 -43406745.07048 -33765997.65246  20721407.9224                   20721404.4414
 11  8  1  1 41  0.0000000  0  9G09G25G10G17G12G05G04G27G02
 -25610630.94947 -19599339.95344  23945920.4304                   23945922.9144
  14937824.13347  11680173.62144  24122667.9844                   24122669.4534
 -31515813.85948 -24511940.67646  21000618.3984                   21000617.1564
 -85922730.92247 -66902629.38344  23368843.4384                   23368841.6094
 -18263200.34448 -14188052.24646  21448013.1414                   21448011.1524
  -7213402.60947  -5577911.88346  22089663.4774                   22089662.8444
 -60504799.28948 -47096148.25445  21836983.2034                   21836982.4144
 -41986615.70346 -31906441.62543  24140506.2194                   24140509.6254
 -43504744.52048 -33842360.81646  20702759.3444                   20702755.7544
 11  8  1  1 41 30.0000000  0  9G09G25G10G17G12G05G04G27G02
 -25627692.84047 -19612635.07444  23942674.1564                   23942676.3674
  14741428.83247  11527138.41844  24085294.9844                   24085296.4694
 -31614678.43448 -24588977.96946  20981805.3754                   20981803.6844
 -85965115.41047 -66935656.23044  23360777.3284                   23360776.3134
 -18416510.46148 -14307514.65246  21418839.0944                   21418836.9104
  -7401293.58647  -5724320.34446  22053908.3834                   22053908.0164
 -60526152.04748 -47112786.75846  21832920.1564                   21832919.1884
 -42020129.10246 -31932556.13743  24134129.0634                   24134131.4264
 -43602399.56648 -33918455.61346  20684176.1254                   20684172.1604
 11  8  1  1 42  0.0000000  0  9G09G25G10G17G12G05G04G27G02
 -25644560.25047 -19625778.65244  23939464.8914                   23939467.1484
  14545286.31647  11374300.19144  24047970.0474                   24047971.7704
 -31712852.46948 -24665477.17246  20963123.4454                   20963121.9414
 -86007282.84847 -66968513.95344  23352753.3134                   23352751.8834
 -18569310.24648 -14426579.38746  21389761.8834                   21389760.2544
  -7588815.08647  -5870440.87946  22018224.3054                   22018223.9844
 -60547309.02748 -47129272.71145  21828894.2814                   21828893.2424
 -42053538.97746 -31958590.07443  24127771.5784                   24127774.1684
 -43699707.20348 -33994279.71146  20665659.1484                   20665655.4454
 11  8  1  1 42 30.0000000  0  9G09G25G10G17G12G05G04G27G02
 -25661234.16746 -19638771.45844  23936291.1094                   23936294.1174
  14349401.48847  11221662.73844  24010694.3364                   24010696.3874
 -31810334.19548 -24741436.93746  20944572.9534                   20944571.3164
 -86049230.22347 -67001200.20744  23344771.5394                   23344769.5824
 -18721594.85548 -14545242.69146  21360783.4064                   21360781.3164
  -7775962.01647  -6016269.56246  21982611.7114                   21982610.6524
 -60568269.28548 -47145605.37145  21824905.6414                   21824904.2504
 -42086845.64146 -31984543.52743  24121432.4844                   24121436.9224
 -43796666.89848 -34069832.68746  20647208.1414                   20647204.0474
 11  8  1  1 43  0.0000000  0  9G09G25G10G17G12G05G04G27G02
 -25677718.93446 -19651616.83244  23933154.1334                   23933157.4924
  14153776.28147  11069227.62544  23973467.6644                   23973470.6884
 -31907123.94948 -24816857.48846  20926154.6024                   20926152.6334
 -86090957.88347 -67033715.24644  23336830.5704                   23336829.0164
 -18873362.91848 -14663503.48446  21331902.5944                   21331900.8054
  -7962732.19547  -6161804.66446  21947070.2344                   21947069.6994
 -60589035.59448 -47161786.89845  21820954.1094                   21820952.3874
 -42120052.34846 -32010419.12143  24115114.3914                   24115117.6294
 -43893280.44548 -34145115.93046  20628823.5084                   20628819.3914
 11  8  1  1 43 30.0000000  0  9G09G25G10G17G12G05G04G27G02
 -25694019.73847 -19664318.90244  23930053.7584                   23930055.4184
  13958411.21947  10916995.21944  23936291.2504                   23936293.5044
 -32003223.57048 -24891740.27746  20907867.6024                   20907866.0274
 -86132467.58647 -67066060.45344  23328931.4774                   23328930.2304
 -19024614.62948 -14781361.91446  21303120.3754                   21303118.9384
  -8149124.98847  -6307045.68746  21911600.6334                   21911600.2504
 -60609612.32448 -47177820.71545  21817038.3204                   21817037.0434
 -42153164.28946 -32036220.83243  24108813.8914                   24108816.9064
 -43989551.00048 -34220131.90646  20610503.6954                   20610499.9494
 11  8  1  1 44  0.0000000  0  9G09G25G10G17G12G05G04G27G02
 -25710141.89847 -19676881.76244  23926984.9924                   23926987.4924
  13763307.28947  10764966.30544  23899164.7974                   23899166.2974
 -32098634.41048 -24966086.34846  20889711.6644                   20889709.7704
 -86173760.75047 -67098236.93044  23321074.1484                   23321072.6254
 -19175349.39548 -14898817.52746  21274436.4384                   21274435.3364
  -8335139.31247  -6451991.80546  21876203.6884                   21876202.2114
 -60630002.72748 -47193709.32045  21813158.0314                   21813156.5864
 -42186185.57046 -32061951.91843  24102529.5784                   24102534.0784
 -44085481.00848 -34294882.52746  20592248.7814                   20592245.3754
 11  8  1  1 44 30.0000000  0  9G09G25G10G17G12G05G04G27G02
 -25726088.79747 -19689308.05943  23923951.3754                   23923952.7274
  13568466.93447  10613142.74244  23862087.7894                   23862089.5354
 -32193356.97348 -25039896.10246  20871686.4774                   20871684.6214
 -86214836.91847 -67130244.31644  23313257.4774                   23313255.8204
 -19325565.39848 -15015868.92646  21245851.2814                   21245849.3404
  -8520772.51247  -6596640.94546  21840878.7894                   21840877.2424
 -60650209.22348 -47209454.64545  21809313.0004                   21809311.7154
 -42219119.15246 -32087614.64543  24096263.4384                   24096266.8054
 -44181072.05148 -34369369.02046  20574058.4144                   20574054.6564
 11  8  1  1 45  0.0000000  0  9G09G25G10G17G12G05G04G27G02
 -25741863.50447 -19701600.18044  23920949.1724                   23920950.6294
  13373893.33247  10461527.03144  23825060.7734                   23825063.0984
 -32287390.68448 -25113169.08646  20853792.7114                   20853790.1024
 -86255695.11747 -67162081.87944  23305482.1484                   23305480.6884
 -19475259.22748 -15132513.40646  21217365.7034                   21217363.7774
  -8706020.78148  -6740990.15646  21805626.6174                   21805626.2384
 -60670232.99248 -47225057.58245  21805502.3914                   21805501.1804
 -42251967.56246 -32113211.07043  24090012.5944                   24090016.1684
 -44276324.65248 -34443591.79746  20555932.1954                   20555928.4064
 11  8  1  1 45 30.0000000  0  9G09G25G10G17G12G05G04G27G02
 -25757470.86747 -19713761.87544  23917979.7034                   23917981.1214
  13179587.52047  10310119.99244  23788085.8524                   23788088.1414
 -32380736.95348 -25185906.41046  20836029.0394                   20836027.2034
 -86296336.24247 -67193750.24644  23297748.4304                   23297746.9614
 -19624431.18448 -15248751.25046  21188978.9144                   21188977.0434
  -8890883.58247  -6885038.98846  21770448.1724                   21770447.5204
 -60690077.74648 -47240521.02745  21801726.9144                   21801724.9924
 -42284735.02346 -32138744.39143  24083776.8984                   24083781.2734
 -44371241.46948 -34517552.93046  20537870.1884                   20537866.2304
 11  8  1  1 46  0.0000000  0  9G09G25G10G17G12G05G04G27G02
 -25772914.53546 -19725796.01243  23915039.7114                   23915041.9384
  12985551.91047  10158923.52344  23751162.2974                   23751163.8284
 -32473396.16848 -25258108.37146  20818396.4454                   20818394.3404
 -86336760.50447 -67225249.65244  23290055.6954                   23290054.3914
 -19773079.24248 -15364580.85946  21160691.9454                   21160690.3054
  -9075357.95747  -7028785.16046  21735344.2894                   21735343.1334
 -60709745.36348 -47255846.41845  21797984.2734                   21797982.3554
 -42317424.50846 -32164216.98843  24077557.6254                   24077560.7274
 -44465823.82048 -34591253.43746  20519871.7504                   20519867.8954
 11  8  1  1 46 30.0000000  0  9G09G25G10G17G12G05G04G27G02
 -25788201.10546 -19737707.79343  23912131.2974                   23912133.4884
  12791785.75847  10007936.98044  23714289.1804                   23714291.6684
 -32565371.62548 -25329777.52346  20800893.9064                   20800892.0904
 -86376970.78547 -67256582.32844  23282404.0314                   23282402.4694
 -19921204.37548 -15480002.98846  21132504.6954                   21132502.7154
  -9259444.69147  -7172229.26646  21700313.9224                   21700312.4024
 -60729241.31248 -47271038.04345  21794273.8054                   21794272.1374
 -42350041.98446 -32189633.44543  24071350.2734                   24071353.9024
 -44560076.41848 -34664696.97746  20501935.9694                   20501932.4384
 11  8  1  1 47  0.0000000  0  9G09G25G10G17G12G05G04G27G02
 -25803337.20346 -19749502.29343  23909250.9924                   23909253.5864
  12598288.66447   9857160.09844  23677467.8754                   23677470.5164
 -32656666.44948 -25400916.31646  20783521.5164                   20783519.0554
 -86416969.63747 -67287750.22744  23274792.1254                   23274791.0394
 -20068808.00448 -15595018.75046  21104417.1644                   21104414.7464
  -9443143.89847  -7315371.41846  21665356.9534                   21665355.7504
 -60748570.40648 -47286099.66045  21790595.3134                   21790594.2424
 -42382593.30146 -32214998.34443  24065156.1954                   24065159.2734
 -44654003.53548 -34737886.91046  20484062.3054                   20484058.8954
 11  8  1  1 47 30.0000000  0  9G09G25G10G17G12G05G04G27G02
 -25818325.73846 -19761181.81644  23906398.9304                   23906401.5124
  12405063.55947   9706595.15644  23640698.6884                   23640701.4384
 -32747280.34448 -25471524.51246  20766278.4844                   20766275.9964
 -86456756.19547 -67318752.73044  23267221.7894                   23267219.7274
 -20215887.59448 -15709626.18046  21076428.4304                   21076426.5044
  -9626452.67648  -7458209.32846  21630474.0474                   21630472.8914
 -60767734.12148 -47301032.42245  21786948.5554                   21786947.4694
 -42415080.73446 -32240313.48443  24058973.7584                   24058977.6094
 -44747605.59848 -34810823.55146  20466250.3134                   20466246.7234
 11  8  1  1 48  0.0000000  0  9G09G25G10G17G12G05G04G27G02
 -25833169.86347 -19772748.84444  23903574.8984                   23903576.5164
  12212113.64847   9556244.59044  23603981.4924                   23603983.7194
 -32837212.89848 -25541601.78546  20749164.3914                   20749162.2704
 -86496329.79747 -67349589.30944  23259691.1804                   23259689.5124
 -20362440.68048 -15823823.34446  21048540.5554                   21048538.3914
  -9809367.60947  -7600740.35546  21595666.5004                   21595665.3794
 -60786734.14848 -47315837.61745  21783333.4614                   21783331.9614
 -42447506.69546 -32265580.62142  24052803.5944                   24052807.5394
 -44840883.58248 -34883507.67646  20448500.0004                   20448496.2624
 11  8  1  1 48 30.0000000  0  9G09G25G10G17G12G05G04G27G02
 -24272452.00847 -18556605.21144  24200569.4304                   24200571.9964
  13594868.07447  10633715.66044  23867110.8754                   23867113.2704
 -31351041.55548 -24383546.15646  21031973.3204                   21031971.6684
 -84960268.55947 -66152658.46144  23551994.4384                   23551992.3244
 -18933040.03948 -14710004.62546  21320546.2814                   21320543.9144
  -8416459.90648  -6515357.64846  21860728.1724                   21860726.9734
 -59230151.55548 -46102916.08645  22079540.8204                   22079539.8054
 -40904452.68846 -31063201.10843  24346437.8364                   24346441.1524
 -43358415.38348 -33728337.62146  20730604.8134                   20730600.7814
 11  8  1  1 49  0.0000000  0  9G09G25G10G17G12G05G04G27G02
 -24287015.28147 -18567953.36344  24197798.2424                   24197800.8014
  13402477.83247  10483801.23043  23830499.8524                   23830501.9494
 -31439611.25448 -24452561.47746  21015119.1804                   21015117.1724
 -84999413.50447 -66183161.00444  23544544.3834                   23544543.3404
 -19078532.47748 -14823375.30546  21292860.0554                   21292857.7234
  -8598577.58248  -6657267.43046  21826072.4694                   21826070.6724
 -59248828.10948 -46117469.21945  22075986.6254                   22075985.3134
 -40936762.24646 -31088377.66843  24340289.0784                   24340292.9264
 -43451047.27048 -33800518.28546  20712976.9694                   20712973.1454
 11  8  1  1 49 30.0000000  0  9G09G25G10G17G12G05G04G27G02
 -24301448.64147 -18579200.27743  24195052.1804                   24195054.3324
  13210365.82847  10334103.56343  23793942.0004                   23793942.4144
 -31527504.98848 -24521050.05946  20998393.4064                   20998391.9574
 -85038348.95747 -66213500.30544  23537135.6254                   23537134.7274
 -19223497.19948 -14936334.79346  21265274.0634                   21265271.6724
  -8780298.22748  -6798867.84446  21791491.6174                   21791490.5594
 -59267351.08248 -46131902.69145  22072462.2584                   22072461.1954
 -40969023.31646 -31113516.42642  24334149.7734                   24334154.7814
 -43543363.28148 -33872452.81646  20695410.0554                   20695405.9534
 11  8  1  1 50  0.0000000  0  9G09G25G10G17G12G05G04G27G02
 -24315751.96147 -18590345.85544  24192329.3594                   24192333.1524
  13018538.35547  10184627.72744  23757437.6954                   23757439.2154
 -31614719.87147 -24589009.66846  20981797.3054                   20981795.8364
 -85077071.09447 -66243673.38744  23529766.8524                   23529765.7974
 -19367928.60248 -15048878.69146  21237789.1954                   21237787.8364
  -8961615.82448  -6940154.19946  21756988.1024                   21756987.2774
 -59285718.96548 -46146215.30545  22068966.7194                   22068965.4804
 -41001235.05946 -31138616.81642  24328020.9454                   24328025.5594
 -43635360.99648 -33944139.31246  20677903.6254                   20677899.6484
 11  8  1  1 50 30.0000000  0  9G09G25G10G17G12G05G04G27G02
 -24329931.82847 -18601395.26244  24189631.9384                   24189634.1524
  12826994.87947  10035373.11744  23720988.4924                   23720990.1954
 -31701259.00448 -24656442.72346  20965329.2814                   20965327.3554
 -85115582.46547 -66273682.25844  23522438.0864                   23522437.2814
 -19511828.07048 -15161008.11346  21210406.1954                   21210404.2274
  -9142530.50048  -7081126.59046  21722560.9844                   21722560.2464
 -59303936.59048 -46160410.83245  22065500.5784                   22065498.7934
 -41033403.32046 -31163683.16842  24321901.1564                   24321904.8754
 -43727044.55948 -34015581.03146  20660457.0084                   20660452.9654
 11  8  1  1 51  0.0000000  0  9G09G25G10G17G12G05G04G27G02
 -24343989.02747 -18612349.11344  24186957.5634                   24186959.7894
  12635740.32447   9886343.68044  23684594.5164                   23684595.8634
 -31787120.35948 -24723347.64146  20948989.9304                   20948988.0594
 -85153880.65247 -66303524.99244  23515150.7194                   23515149.2074
 -19655190.84848 -15272719.33246  21183125.2894                   21183123.1644
  -9323037.03548  -7221780.94946  21688212.0474                   21688210.3954
 -59322003.43448 -46174488.88345  22062062.3054                   22062060.6564
 -41065528.57445 -31188716.10542  24315787.3054                   24315791.0004
 -43818413.30148 -34086777.42246  20643069.8364                   20643065.5944
 11  8  1  1 51 30.0000000  0  9G09G25G10G17G12G05G04G27G02
 -24357927.75447 -18623210.63744  24184304.8054                   24184307.5784
  12444776.61747   9737540.86344  23648256.0944                   23648257.6054
 -31872305.19148 -24789725.39846  20932780.1724                   20932778.3284
 -85191965.84847 -66333201.76644  23507903.3364                   23507902.0044
 -19798016.16848 -15384011.76246  21155946.5704                   21155944.6644
  -9503133.73848  -7362115.96146  21653940.5084                   21653939.7504
 -59339922.17648 -46188451.51245  22058652.4924                   22058651.2234
 -41097614.07445 -31213718.09042  24309681.2584                   24309685.9264
 -43909468.79748 -34157729.73046  20625742.5084                   20625738.4184
 11  8  1  1 52  0.0000000  0  9G09G25G10G17G12G05G04G27G02
 -24371752.43447 -18633983.30143  24181674.6174                   24181676.6094
  12254105.30147   9588965.89844  23611971.8984                   23611974.4534
 -31956815.23448 -24855577.34046  20916698.5864                   20916696.6764
 -85229838.89847 -66362713.21144  23500696.1724                   23500694.5664
 -19940303.34848 -15494884.86746  21128870.3444                   21128867.9574
  -9682818.88348  -7502130.28546  21619747.6334                   21619746.3874
 -59357695.96148 -46202301.19945  22055269.8984                   22055268.8834
 -41129663.62546 -31238692.01243  24303583.1804                   24303587.3014
 -44000213.42648 -34228439.80946  20608474.2504                   20608470.2234
 11  8  1  1 52 30.0000000  0  9G09G25G10G17G12G05G04G27G02
 -24385466.98846 -18644670.15644  24179063.5234                   24179067.3324
  12063728.57047   9440620.48844  23575743.6954                   23575746.0554
 -32040651.03948 -24920903.90246  20900745.5164                   20900743.2734
 -85267500.03547 -66392059.56244  23493529.8984                   23493527.8484
 -20082050.59448 -15605337.23846  21101896.4384                   21101894.6094
  -9862090.62548  -7641822.46946  21585633.1484                   21585631.6764
 -59375326.47748 -46216039.24645  22051914.9064                   22051914.0004
 -41161680.35946 -31263640.35943  24297490.2894                   24297495.6564
 -44090649.04748 -34298909.09046  20591264.8674                   20591260.7194
 11  8  1  1 53  0.0000000  0  9G09G25G10G17G12G05G04G27G02
 -24399076.32447 -18655275.02744  24176474.5084                   24176478.0124
  11873647.39147   9292505.34045  23539573.6094                   23539575.6094
 -32123814.70748 -24985706.72346  20884919.8134                   20884917.4844
 -85304950.39547 -66421241.62544  23486403.0944                   23486401.9064
 -20223258.27048 -15715369.16046  21075025.5704                   21075023.4694
 -10040947.60948  -7781191.47746  21551598.0634                   21551596.4654
 -59392817.62148 -46229668.70745  22048586.4844                   22048585.3094
 -41193668.78546 -31288566.67643  24291403.4774                   24291408.0004
 -44180778.30148 -34369139.65246  20574113.7734                   20574110.0904
 11  8  1  1 53 30.0000000  0  9G09G25G10G17G12G05G04G27G02
 -24412583.22746 -18665800.05143  24173904.1254                   24173907.4614
  11683864.84047   9144622.89844  23503458.0554                   23503460.8674
 -32206306.44548 -25049985.96546  20869221.8524                   20869219.9184
 -85342189.25047 -66450258.88344  23479316.3594                   23479315.2544
 -20363923.57448 -15824978.45346  21048257.7344                   21048255.9654
 -10219386.92248  -7920235.01646  21517642.3284                   21517640.3244
 -59410170.58647 -46243190.48045  22045284.5554                   22045283.6054
 -41225631.18746 -31313472.65643  24285320.3204                   24285326.3634
 -44270601.77748 -34439131.94546  20557021.0634                   20557017.1764
 11  8  1  1 54  0.0000000  0  9G09G25G10G17G12G05G04G27G02
 -24425991.80547 -18676248.49243  24171353.6644                   24171356.6054
  11494383.01247   8996974.78144  23467400.9304                   23467403.0744
 -32288127.27048 -25113742.41846  20853651.8444                   20853650.3204
 -85379216.43047 -66479111.22344  23472270.7664                   23472269.1804
 -20504045.39148 -15934164.25846  21021593.2424                   21021591.5004
 -10397406.46548  -8058951.46946  21483765.7034                   21483764.1764
 -59427387.82047 -46256606.48445  22042007.9534                   22042006.3484
 -41257570.83246 -31338360.97343  24279243.0864                   24279248.5274
 -44360121.31248 -34508887.40646  20539985.8204                   20539982.3634
 11  8  1  1 54 30.0000000  0  9G09G25G10G17G12G05G04G27G02
 -24439306.75046 -18686623.97343  24168819.3594                   24168822.7734
  11305202.88747   8849561.75444  23431401.5234                   23431403.5944
 -32369279.44548 -25176977.85246  20838209.2584                   20838207.3204
 -85416033.74247 -66507800.02344  23465264.9304                   23465263.2194
 -20643623.52348 -16042926.39546  20995032.7734                   20995030.8164
 -10575005.35948  -8197340.14546  21449969.7344                   21449968.7464
 -59444472.47747 -46269919.18445  22038756.9774                   22038755.9414
 -41289491.94146 -31363234.84843  24273169.4534                   24273174.5164
 -44449339.76248 -34578408.24246  20523008.2274                   20523004.4384
 11  8  1  1 55  0.0000000  0  9G09G25G10G17G12G05G04G27G02
 -24452529.49246 -18696927.59843  24166303.3594                   24166306.6174
  11116329.01247   8702387.37144  23395460.1174                   23395462.0434
 -32449761.14548 -25239690.84046  20822893.4384                   20822891.7734
 -85452639.08247 -66536323.64144  23458298.6884                   23458296.9534
 -20782654.36748 -16151262.06646  20968576.1644                   20968573.9184
 -10752179.01648  -8335397.47346  21416255.0004                   21416252.8954
 -59461424.69947 -46283128.67245  22035531.2504                   22035529.3874
 -41321395.43445 -31388094.96143  24267097.8054                   24267103.6994
 -44538256.13348 -34647693.69546  20506088.0004                   20506083.9804
 11  8  1  1 55 30.0000000  0  9G09G25G10G17G12G05G04G27G02
 -24465664.14146 -18707162.64543  24163803.5234                   24163807.0904
  10927763.23847   8555453.03944  23359577.3054                   23359578.7464
 -32529574.01248 -25301882.65646  20807705.5704                   20807704.0434
 -85489032.59847 -66564682.19544  23451373.4774                   23451371.5864
 -20921136.73848 -16259170.37546  20942223.6484                   20942221.7544
 -10928925.84848  -8473122.21146  21382621.0234                   21382619.1484
 -59478246.91847 -46296236.86745  22032329.6024                   22032328.5514
 -41353284.70746 -31412944.02743  24261030.3984                   24261035.8554
 -44626872.84048 -34716745.64846  20489224.6884                   20489221.0164
 11  8  1  1 56  0.0000000  0  9G09G25G10G17G12G05G04G27G02
 -24478713.68046 -18717331.34843  24161321.1724                   24161322.9304
  10739508.46147   8408761.05544  23323753.6644                   23323755.0664
 -32608718.69148 -25363553.80946  20792644.9844                   20792643.3444
 -85525213.77747 -66592875.28544  23444488.0164                   23444486.9184
 -21059068.61348 -16366649.73446  20915976.1094                   20915974.0204
 -11105242.86348  -8610512.03146  21349068.9694                   21349067.2074
 -59494940.60947 -46309244.92645  22029153.1724                   22029151.8714
 -41385162.18445 -31437783.85942  24254963.6484                   24254969.8674
 -44715191.39848 -34785565.27346  20472418.3984                   20472414.4804
 11  8  1  1 56 30.0000000  0  9G09G25G10G17G12G05G04G27G02
 -24491680.44947 -18727435.52343  24158854.4614                   24158856.4964
  10551568.29347   8262314.21144  23287989.5084                   23287991.2894
 -32687194.91448 -25424704.07446  20777711.3834                   20777709.4144
 -85561181.16847 -66620901.78144  23437643.3674                   23437641.8754
 -21196447.44148 -16473698.13746  20889833.8444                   20889831.4344
 -11281126.43048  -8747564.07846  21315599.1644                   21315597.8524
 -59511506.62547 -46322153.46945  22026000.5704                   22026000.0124
 -41417029.43445 -31462615.72742  24248899.8134                   24248906.4654
 -44803211.18448 -34854152.09446  20455668.5784                   20455664.8874
 11  8  1  1 57  0.0000000  0  9G09G25G10G17G12G05G04G27G02
 -22929151.92646 -17509881.05543  24456193.2114                   24456196.4264
  11939367.09447   9343715.92244  23552078.9924                   23552080.1564
 -31189585.10248 -24257735.35246  21062696.9384                   21062695.5904
 -84021518.25047 -65421164.40644  23730631.9384                   23730630.5944
 -19757851.49648 -15352714.25446  21163589.4614                   21163587.2034
  -9881153.02348  -7656675.64146  21582005.1724                   21582003.4184
 -57952530.69947 -45107367.01245  22322664.1724                   22322662.9614
 -39873472.68045 -30259844.50842  24542628.7664                   24542636.0514
 -43315514.87948 -33694908.19546  20738768.1644                   20738763.9694
 11  8  1  1 57 30.0000000  0  9G09G25G10G17G12G05G04G27G02
 -22941973.23446 -17519871.92643  24453753.0084                   24453756.7774
  11752054.10547   9197757.82044  23516434.4844                   23516435.3794
 -31266736.06248 -24317852.96146  21048016.0004                   21048013.8984
 -84057067.70347 -65448865.25444  23723866.9384                   23723864.6724
 -19894129.30948 -15458904.71546  21137656.4384                   21137654.0514
 -10056172.20348  -7793054.16046  21548700.5084                   21548698.6414
 -57968856.34847 -45120088.26645  22319557.2894                   22319556.0164
 -39905337.496 5                  24536565.766
 -43402950.87548 -33763040.11346  20722129.3284                   20722125.3014
 11  8  1  1 58  0.0000000  0  9G09G25G10G17G12G05G04G27G02
 -22954726.04346 -17529809.39843  24451327.1724                   24451330.0474
  11565059.40247   9052047.71944  23480849.8594                   23480851.7624
 -31343224.77048 -24377454.52046  21033460.5784                   21033458.3364
 -84092406.65646 -65476402.06244  23717141.9064                   23717140.7234
 -20029852.93448 -15564663.35546  21111829.4844                   21111827.0514
 -10230754.55947  -7929092.28946  21515478.3054                   21515476.2464
 -57985063.60247 -45132717.27745  22316473.1024                   22316472.0824
 -39937204.590 5                  24530502.688
 -43490095.96548 -33830945.35946  20705546.3364                   20705542.4064
 11  8  1  1 58 30.0000000  0  9G09G25G10G17G12G05G04G27G02
 -22967411.58246 -17539694.47743  24448912.8364                   24448916.4064
  11378387.25047   8906588.99644  23445327.4224                   23445329.1684
 -31419050.21948 -24436539.27046  21019031.1644                   21019029.4694
 -84127533.65647 -65503773.73044  23710458.1024                   23710455.9964
 -20165019.38348 -15669987.82446  21086107.9144                   21086105.6024
 -10404896.08648  -8064786.91846  21482339.5864                   21482338.5904
 -58001152.49247 -45145254.04345  22313411.0004                   22313410.2934
 -39969074.86345 -30304377.70352  24524437.5634                   24524443.1024
 -43576949.89148 -33898623.71547  20689018.5004                   20689014.2664
 11  8  1  1 59  0.0000000  0  9G09G25G10G17G12G05G04G27G02
 -22980033.86346 -17549530.29343  24446510.7814                   24446515.1054
  11192039.81647   8761383.31344  23409866.5944                   23409868.5084
 -31494213.78948 -24495108.25046  21004728.1414                   21004726.4184
 -84162448.94146 -65530980.44144  23703812.6804                   23703811.9144
 -20299627.17648 -15774876.97346  21060492.9844                   21060490.7704
 -10578594.68747  -8200136.40246  21449286.2504                   21449284.8404
 -58017125.36747 -45157700.42245  22310371.6094                   22310370.2664
                                  24518371.5944                   24518378.5044
 -43663514.58648 -33966076.70746  20672545.5554                   20672541.4964
 11  8  1  1 59 30.0000000  0  9G09G25G10G17G12G05G04G27G02
 -22992596.10946 -17559319.23443  24444120.6334                   24444124.5984
  11006019.64147   8616432.62944  23374468.5394                   23374470.2894
 -31568716.57848 -24553162.34846  20990550.8054                   20990548.7074
 -84197151.98446 -65558021.73844  23697208.9844                   23697208.0634
 -20433674.98448 -15879329.77346  21034984.3524                   21034982.4844
 -10751848.04748  -8335138.95346  21416317.2114                   21416315.5434
 -58032983.68747 -45170057.54745  22307354.0634                   22307353.1134
 -40032837.02746 -30354063.07442  24512304.4144                   24512311.4614
 -43749791.09048 -34033305.12546  20656127.7814                   20656124.0434
 11  8  1  2  0  0.0000000  0  9G09G25G10G17G12G05G04G27G02
 -23005105.92646 -17569067.44943  24441741.5864                   24441745.3094
  10820325.03947   8471735.63744  23339131.6484                   23339133.4654
 -31642563.55548 -24610705.41046  20976497.8444                   20976496.2814
 -84231646.87146 -65584900.83644  23690645.3754                   23690643.7894
 -20567165.66848 -15983348.46546  21009581.9774                   21009579.9694
 -10924658.07048  -8469796.04346  21383432.4844                   21383430.9574
 -58048733.52047 -45182330.11745  22304356.9454                   22304355.7584
 -40064738.32446 -30378921.52742  24506233.7584                   24506240.1374
 -43835784.79748 -34100313.18046  20639763.8204                   20639759.8244
 11  8  1  2  0 30.0000000  0  8G09G25G10G17G12G05G04G02
 -23017566.86746 -17578777.54743  24439370.6094                   24439373.3404
  10634958.27047   8327294.12145  23303857.3524                   23303859.6414
 -31715755.89848 -24667738.39546  20962569.8054                   20962568.1454
 -84265933.75046 -65611617.86744  23684120.9304                   23684119.7544
 -20700097.69548 -16086931.83646  20984285.7034                   20984283.6054
 -11097022.18448  -8604105.68446  21350633.0394                   21350630.9574
 -58064377.00447 -45194519.85245  22301380.3524                   22301378.7034
 -43921497.50848 -34167102.27746  20623453.1254                   20623449.2544
 11  8  1  2  1  0.0000000  0  8G09G25G10G17G12G05G04G02
 -23029978.73846 -17588449.38743  24437007.8054                   24437011.7114
  10449925.31647   8183112.70744  23268646.7734                   23268648.5704
 -31788291.39548 -24724259.53546  20948766.5314                   20948764.6024
 -84300009.11346 -65638170.07844  23677636.1954                   23677635.1134
 -20832466.31648 -16190076.19146  20959097.0164                   20959094.6294
 -11268935.07448  -8738063.71146  21317918.7344                   21317916.8634
 -58079912.73047 -45206625.57445  22298423.6724                   22298422.6374
 -44006926.85248 -34233670.57846  20607196.4454                   20607192.8164
 11  8  1  2  1 30.0000000  0  8G09G25G10G17G12G05G04G02
 -23042343.35546 -17598084.37943  24434656.0394                   24434658.8834
  10265230.15647   8039194.50045  23233500.5164                   23233502.3794
 -31860169.21548 -24780268.19146  20935089.0004                   20935087.2194
 -84333871.25046 -65664556.17644  23671192.5394                   23671191.8914
 -20964268.57448 -16292779.21546  20934015.4844                   20934013.1994
 -11440392.73848  -8871667.01246  21285290.9534                   21285289.6914
 -58095340.48847 -45218647.19145  22295488.2274                   22295486.4184
 -44092072.97348 -34300018.18046  20590993.7344                   20590989.6214
 11  8  1  2  2  0.0000000  0  8G09G25G10G17G12G05G04G02
 -23054661.47746 -17607683.15243  24432311.8284                   24432315.6954
  10080877.95347   7895543.53945  23198419.1024                   23198421.5354
 -31931388.15248 -24835763.44546  20921536.7274                   20921534.7584
 -84367517.32847 -65690773.85244  23664790.0554                   23664788.3094
 -21095500.48048 -16395037.82046  20909043.0634                   20909040.8714
 -11611390.09448  -9004911.64846  21252751.4224                   21252749.8954
 -58110659.45747 -45230584.02345  22292572.5634                   22292571.5474
 -44176934.21948 -34366143.80146  20574845.4384                   20574841.2504
 11  8  1  2  2 30.0000000  0  8G09G25G10G17G12G05G04G02
 -23066935.52046 -17617247.63742  24429975.6564                   24429980.9844
   9896871.89547   7752162.28945  23163404.1564                   23163406.3834
 -32001948.39548 -24890745.42246  20908109.4924                   20908107.8054
 -84400946.62147 -65716822.61344  23658428.2114                   23658427.0784
 -21226159.51648 -16496850.04346  20884179.5944                   20884176.8834
 -11781924.27748  -9137795.35946  21220299.7734                   21220298.2234
 -58125870.66047 -45242436.90645  22289678.2584                   22289677.3094
 -44261511.40648 -34432048.07446  20558750.5004                   20558746.9454
 11  8  1  2  3  0.0000000  0  8G09G25G10G17G12G05G04G02
 -23079166.13746 -17626778.19542  24427648.7344                   24427653.2344
   9713217.53947   7609055.13345  23128455.4144                   23128457.5704
 -32071848.07448 -24945212.68046  20894807.8444                   20894806.5594
 -84434156.07847 -65742700.08244  23652108.8284                   23652108.0204
 -21356241.70348 -16598212.76646  20859425.5004                   20859423.3674
 -11951990.15248  -9270314.15646  21187937.4454                   21187935.5044
 -58140972.81647 -45254204.79745  22286804.1564                   22286803.1294
 -44345802.71948 -34497729.58646  20542710.6954                   20542706.5514
 11  8  1  2  3 30.0000000  0  8G09G25G10G17G12G05G04G02
 -23091358.16045 -17636278.77042  24425328.9924                   24425333.1214
   9529915.61747   7466222.54345  23093574.6644                   23093576.4964
 -32141090.22748 -24999167.57446  20881631.5474                   20881629.5944
 -84467147.02747 -65768407.29744  23645831.0704                   23645829.8554
 -21485747.23848 -16699126.14546  20834781.3054                   20834779.2774
 -12121586.92248  -9402467.41846  21155664.1024                   21155662.2424
 -58155969.51247 -45265890.51645  22283950.6804                   22283949.1684
 -44429811.23048 -34563190.73446  20526723.9224                   20526720.2234
 11  8  1  2  4  0.0000000  0  8G09G25G10G17G12G05G04G02
 -23103520.82845 -17645756.48842  24423015.3364                   24423019.4734
   9346962.98447   7323662.14845  23058759.8204                   23058761.0904
 -32209681.62548 -25052615.39846  20868579.2974                   20868576.7814
 -84499925.09447 -65793948.64144  23639593.8054                   23639592.2424
 -21614680.44148 -16799593.55546  20810246.1484                   20810244.6094
 -12290718.12548  -9534257.90246  21123479.5554                   21123477.4344
 -58170867.88747 -45277499.63345  22281115.4454                   22281114.6294
 -44513543.89848 -34628436.94946  20510790.1724                   20510786.4844
 11  8  1  2  4 30.0000000  0  8G09G25G10G17G12G05G04G02
 -23115658.46546 -17655214.52743  24420705.9304                   24420710.0124
   9164360.71547   7181374.72744  23024011.5864                   23024012.6844
 -32277625.05548 -25105558.29746  20855649.8444                   20855648.0864
 -84532491.90646 -65819325.36744  23633396.2194                   23633394.5204
 -21743041.22748 -16899614.92646  20785819.6484                   20785817.7154
 -12459382.89548  -9665684.92646  21091383.5634                   21091381.6994
 -58185671.26247 -45289034.73044  22278298.6024                   22278297.0594
 -44597003.63748 -34693470.47746  20494908.3054                   20494904.2584
 11  8  1  2  5  0.0000000  0  8G09G25G10G17G12G05G04G02
 -21552355.31646 -16437056.56243  24718191.9064                   24718196.2194
  10557536.14847   8266966.03544  23289123.7664                   23289125.2034
 -30769500.55148 -23930396.32046  21142636.2504                   21142634.3324
 -82989427.20747 -64616937.25444  23927032.3594                   23927030.4694
 -20295405.59448 -15771587.13746  21061295.7974                   21061293.5434
 -11052154.55548  -8569143.30146  21359170.0164                   21359167.9574
 -56624961.87947 -44072897.53945  22575291.9844                   22575290.3364
 -43104770.05548 -33530691.03946  20778871.1254                   20778867.1724
 11  8  1  2  5 30.0000000  0  8G09G25G10G17G12G05G04G02
 -21564456.28946 -16446486.12943  24715890.2894                   24715894.2894
  10375638.75447   8125227.85945  23254509.9224                   23254510.7384
 -30836154.61748 -23982334.53146  21129952.3914                   21129950.6334
 -83021574.10947 -64641986.76244  23920913.7664                   23920913.0864
 -20422621.58648 -15870716.45746  21037087.3204                   21037085.2734
 -11219883.05948  -8699840.77346  21327252.5474                   21327250.6374
 -56639583.23047 -44084290.78145  22572509.1094                   22572507.7034
 -43187691.16848 -33595304.85546  20763091.7584                   20763087.7464
 11  8  1  2  6  0.0000000  0  8G09G25G10G17G12G05G04G02
 -21576544.27046 -16455905.53143  24713588.5474                   24713594.7384
  10194096.98847   7983766.77744  23219964.2814                   23219964.0944
 -30902166.34048 -24033772.20346  21117390.7584                   21117388.7894
 -83053511.47347 -64666873.00044  23914837.3284                   23914835.0864
 -20549263.68748 -15969398.59046  21012988.4694                   21012985.9414
 -11387140.37148  -8830171.07846  21295424.6334                   21295422.3954
 -56654116.79347 -44095615.62145  22569743.6644                   22569742.2974
 -43270345.40248 -33659710.72346  20747362.9614                   20747358.7664
 11  8  1  2  6 30.0000000  0  8G09G25G10G17G12G05G04G02
 -21588621.33246 -16465316.52743  24711292.3834                   24711296.2034
  10012914.62947   7842585.78145  23185485.7814                   23185486.5474
 -30967535.90248 -24084709.50446  21104951.3134                   21104949.4414
 -83085237.80546 -64691594.81244  23908798.9224                   23908798.0514
 -20675329.23848 -16067631.46146  20988999.1254                   20988996.6644
 -11553923.37948  -8960131.81246  21263686.4694                   21263684.7624
 -56668562.86747 -44106872.29744  22566994.8674                   22566993.2664
 -43352732.54748 -33723908.47346  20731685.1804                   20731681.3714
 11  8  1  2  7  0.0000000  0  8G09G25G10G17G12G05G04G02
 -21600690.09446 -16474721.03543  24708995.3134                   24708999.1024
   9832094.60247   7701687.08644  23151076.6414                   23151077.7034
 -31032264.41848 -24135147.27746  21092633.7584                   21092632.1374
 -83116752.81646 -64716151.94944  23902802.5164                   23902801.1804
 -20800816.70748 -16165413.87946  20965119.4844                   20965116.8714
 -11720229.62548  -9089721.02746  21232039.7344                   21232037.5944
 -56682922.45347 -44118061.55144  22564262.0634                   22564260.6134
 -43434853.87948 -33787899.09046  20716057.7194                   20716054.1994
 11  8  1  2  7 30.0000000  0  8G09G25G10G17G12G05G04G02
 -21612760.98046 -16484127.19142  24706698.2344                   24706703.2234
   9651632.37947   7561067.23045  23116735.9534                   23116736.8794
 -31096360.18448 -24185092.01246  21080436.6724                   21080435.2034
 -83148063.33646 -64740549.73444  23896844.0234                   23896843.3134
 -20925731.65248 -16262750.17646  20941349.0864                   20941346.5744
 -11886063.67648  -9218942.30946  21200482.5784                   21200480.8164
 -56697204.34847 -44129190.27044  22561544.1954                   22561542.4264
 -43516717.30548 -33851688.74646  20700479.9774                   20700475.6174
 11  8  1  2  8  0.0000000  0  8G09G25G10G17G12G05G04G02
 -21624829.14546 -16493531.17243  24704402.5784                   24704407.0944
   9471538.50447   7420734.34045  23082465.2424                   23082466.2114
 -31159816.74648 -24234538.66846  21068361.1804                   21068359.3204
 -83179161.29746 -64764781.89844  23890926.2974                   23890925.1684
 -21050065.26248 -16359633.48846  20917688.8284                   20917686.4104
 -12051415.41448  -9347787.75446  21169016.9384                   21169015.4734
 -56711402.23447 -44140253.54744  22558842.4924                   22558840.4534
 -43598316.47748 -33915272.48046  20684951.7734                   20684947.9144
 11  8  1  2  8 30.0000000  0  8G09G25G10G17G12G05G04G02
 -21636900.90646 -16502938.02343  24702105.1334                   24702109.2194
   9291812.03947   7280687.79745  23048264.9924                   23048265.6994
 -31222638.77348 -24283490.88346  21056406.8364                   21056404.4574
 -83210050.00046 -64788850.99244  23885048.3204                   23885047.1024
 -21173819.66048 -16456065.44546  20894139.3914                   20894136.9574
 -12216285.98048  -9476258.27046  21137643.3204                   21137641.1094
 -56725520.79347 -44151255.00845  22556156.3444                   22556153.8364
 -43679655.99248 -33978653.89146  20669473.8364                   20669469.5434
 11  8  1  2  9  0.0000000  0  8G09G25G10G17G12G05G04G02
 -21648980.28946 -16512350.78143  24699806.4144                   24699811.3444
   9112455.00047   7140929.11345  23014134.4064                   23014136.0004
 -31284828.11348 -24331950.08246  21044572.5784                   21044570.5474
 -83240729.73446 -64812757.27044  23879210.8364                   23879208.2544
 -21296994.13348 -16552045.52046  20870699.9924                   20870697.4264
 -12380673.88748  -9604352.67646  21106360.9924                   21106359.0394
 -56739562.39547 -44162196.50044  22553483.3594                   22553482.7464
 -43760737.67648 -34041834.38746  20654044.2974                   20654040.3244
 11  8  1  2  9 30.0000000  0  8G09G25G10G17G12G05G04G02
 -21661071.29346 -16521772.60942  24697506.3524                   24697510.4884
   8933468.94147   7001459.49645  22980073.9774                   22980075.4344
 -31346386.87547 -24379917.93046  21032858.2424                   21032856.5204
 -83271201.81646 -64836501.75444  23873411.5474                   23873410.7624
 -21419588.21148 -16647573.33246  20847370.8364                   20847368.3674
 -12544577.73448  -9732069.90646  21075170.8834                   21075169.1724
 -56753529.49247 -44173079.95344  22550825.7814                   22550824.4694
 -43841563.53148 -34104815.55546  20638663.3754                   20638659.6454
 11  8  1  2 10  0.0000000  0  8G09G25G10G17G12G05G04G02
 -21673175.54745 -16531204.80142  24695203.2424                   24695208.3874
   8754857.96147   6862282.16845  22946085.4774                   22946087.0664
 -31407315.35248 -24427394.64146  21021264.0164                   21021261.9884
 -83301464.21946 -64860082.84843  23867652.3364                   23867651.4884
 -21541599.03548 -16742646.66846  20824153.3054                   20824150.7034
 -12707993.80948  -9859407.04346  21044074.1804                   21044071.8914
 -56767421.82847 -44183905.13344  22548182.1174                   22548180.9144
 -43922133.51648 -34167597.32446  20623331.4384                   20623327.2624
 11  8  1  2 10 30.0000000  0  8G09G25G10G17G12G05G04G02
 -21685296.23845 -16540649.69542  24692895.7114                   24692902.2424
   8576624.50047   6723398.98845  22912168.6644                   22912170.4064
 -31467614.84048 -24474381.22746  21009789.4384                   21009787.2154
 -83331517.05146 -64883500.63744  23861934.3984                   23861932.3874
 -21663026.22348 -16837265.23446  20801046.2504                   20801043.3594
 -12870920.29348  -9986362.68446  21013070.2664                   21013068.2734
 -56781240.98447 -44194673.32444  22545552.2584                   22545551.2194
 -44002448.82848 -34230180.66446  20608048.0234                   20608043.5394
 11  8  1  2 11  0.0000000  0  8G09G25G10G17G12G05G04G02
 -21697438.36345 -16550111.44542  24690586.0164                   24690593.2934
   8398769.04747   6584810.37545  22878323.7344                   22878325.3134
 -31527288.90248 -24520880.48846  20998433.8594                   20998431.7074
 -83361362.10546 -64906756.50843  23856254.6174                   23856253.4614
 -21783870.10248 -16931429.27046  20778050.5084                   20778047.3714
 -13033356.92648 -10112936.61746  20982159.3364                   20982157.4384
 -56794990.54347 -44205387.22745  22542935.6884                   22542935.0124
 -44082512.65648 -34292568.02746  20592812.2504                   20592808.3164
 11  8  1  2 11 30.0000000  0  8G09G25G10G17G12G05G04G02
 -21709608.09445 -16559594.57042  24688270.0864                   24688278.8284
   8221291.03947   6446515.85945  22844551.2114                   22844551.9144
 -31586342.03148 -24566895.90646  20987196.4844                   20987194.1644
 -83391002.37146 -64929852.82043  23850613.8984                   23850613.2814
 -21904132.80148 -17025140.42646  20755165.3284                   20755162.2734
 -13195304.84048 -10239129.74246  20951341.7274                   20951339.6684
 -56808675.23047 -44216050.61744  22540332.1804                   22540330.5664
 -44162329.29348 -34354762.78146  20577623.8914                   20577620.0394
 11  8  1  2 12  0.0000000  0  8G09G25G10G17G12G05G04G02
 -21721807.293 5                  24685949.344
   8044194.00447   6308518.21545  22810850.3594                   22810850.4804
 -31644774.73848 -24612427.85246  20976077.0704                   20976074.9494
 -83420436.60246 -64952788.57844  23845013.1024                   23845011.3204
 -22023812.50048 -17118397.31246  20732390.5164                   20732388.0354
 -13356760.73848 -10364939.46946  20920617.3834                   20920615.6524
 -56822295.28547 -44226663.62544  22537740.2664                   22537738.8284
 -44241899.14548 -34416765.24246  20562481.8834                   20562478.2194
 11  8  1  2 12 30.0000000  0  8G09G25G10G17G12G05G04G02
 -21734040.086 5                  24683621.641
   7867479.60547   6170818.74645  22777222.6884                   22777222.4924
 -31702589.54348 -24657478.34846  20965075.5634                   20965073.3284
 -83449666.12546 -64975564.79344  23839451.1254                   23839449.8094
 -22142908.52348 -17211199.37546  20709727.4384                   20709724.4964
 -13517723.26248 -10490364.75046  20889987.4694                   20889985.5204
 -56835853.00447 -44237228.05144  22535160.0084                   22535158.6334
 -44321224.18048 -34478576.93446  20547387.0474                   20547382.5984
 11  8  1  2 13  0.0000000  0  8G09G25G10G17G12G05G04G02
 -20170887.070 5                  24981079.445
   9266578.46147   7261025.68845  23043462.3594                   23043462.4804
 -30184364.05548 -23474445.47346  21253984.0474                   21253981.6024
 -81903267.41846 -63770578.79743  24133720.5084                   24133719.5204
 -20685993.89848 -16075941.19146  20986968.7114                   20986966.7344
 -12102763.05148  -9387798.30546  21159245.3914                   21159243.3524
 -55273927.21147 -43020143.00845  22832384.8834                   22832384.5944
 -42824880.59048 -33312594.89846  20832131.5474                   20832127.5594
 11  8  1  2 13 30.0000000  0  8G09G25G10G17G12G05G04G02
 -20183194.566 5                  24978738.438
   9090638.61747   7123929.76645  23009982.1094                   23009982.9144
 -30240946.05548 -23518535.31246  21243217.1174                   21243214.3754
 -81932084.69946 -63793033.80143  24128236.8134                   24128235.9804
 -20803918.10548 -16167830.14846  20964528.9454                   20964526.5904
 -12262731.35948  -9512448.86346  21128804.3204                   21128802.5234
 -55287362.85947 -43030612.35245  22829828.4144                   22829827.4534
 -42903717.78148 -33374026.45346  20817129.6024                   20817125.2624
 11  8  1  2 14  0.0000000  0  7G25G10G17G12G05G04G02
   8915093.80947   6987141.67645  22976577.1644                   22976578.3754
 -30296910.02748 -23562143.59046  21232567.2034                   21232565.0634
 -81960691.98046 -63815325.18744  24122793.4924                   24122791.7034
 -20921250.87148 -16259258.25846  20942201.0234                   20942198.7464
 -12422195.58648  -9636706.66046  21098459.5474                   21098457.8054
 -55300735.62547 -43041032.65645  22827283.0164                   22827282.5704
 -42982308.94948 -33435266.30946  20802173.9534                   20802169.7074
 11  8  1  2 14 30.0000000  0  7G25G10G17G12G05G04G02
   8739945.05547   6850662.20745  22943247.1334                   22943249.3094
 -30352259.05548 -23605272.69146  21222034.2894                   21222032.5164
 -81989090.55546 -63837453.94543  24117389.6954                   24117388.3714
 -21037992.62148 -16350225.82846  20919985.7974                   20919983.3594
 -12581154.89548  -9760570.99646  21068210.5394                   21068208.1214
 -55314048.27747 -43051406.14844  22824750.0004                   22824748.8484
 -43060656.59848 -33496316.39846  20787265.0944                   20787260.7034
 11  8  1  2 15  0.0000000  0  7G25G10G17G12G05G04G02
   8565195.03147   6714493.43445  22909993.8914                   22909995.4304
 -30406994.54748 -23647923.70346  21211618.7584                   21211616.4344
 -82017280.16846 -63859419.84443  24112024.0634                   24112023.1094
 -21154142.16848 -16440731.93746  20897883.3594                   20897880.7384
 -12739607.28148  -9884040.32846  21038057.6414                   21038055.8674
 -55327301.99647 -43061733.69544  22822227.8834                   22822226.5594
 -43138761.82848 -33557177.59446  20772402.1644                   20772397.9144
 11  8  1  2 15 30.0000000  0  7G25G10G17G12G05G04G02
   8390850.07447   6578640.28545  22876816.4844                   22876818.3444
 -30461114.31248 -23690094.92646  21201319.9924                   21201318.3364
 -82045257.02046 -63881220.00043  24106701.2194                   24106699.5514
 -21269694.51248 -16530772.69946  20875894.4844                   20875891.8834
 -12897546.83248 -10007110.05146  21008002.9534                   21008000.8054
 -55340494.44547 -43072013.51244  22819717.1564                   22819716.9264
 -43216622.12948 -33617847.94146  20757585.8054                   20757581.7304
 11  8  1  2 16  0.0000000  0  7G25G10G17G12G05G04G02
   8216913.71948   6443105.53945  22843717.6804                   22843719.4494
 -30514618.81648 -23731786.73846  21191138.3364                   21191136.7934
 -82073019.70746 -63902853.23443  24101418.4694                   24101415.9184
 -21384648.32448 -16620347.08246  20854019.5314                   20854017.0864
 -13054970.57048 -10129777.84846  20978046.1954                   20978043.8834
 -55353625.77347 -43082245.72744  22817218.8914                   22817217.5984
 -43294237.46948 -33678327.39546  20742816.0314                   20742811.8554
 11  8  1  2 16 30.0000000  0  7G25G10G17G12G05G04G02
   8043388.96947   6307891.48845  22810697.1884                   22810698.7074
 -30567509.50047 -23773000.24246  21181073.7664                   21181071.5944
 -82100567.87146 -63924319.31643  24096175.4924                   24096173.4844
 -21499001.68748 -16709453.57846  20832258.7114                   20832255.9844
 -13211875.99248 -10252041.76246  20948187.8364                   20948185.6564
 -55366696.98847 -43092431.05544  22814730.3914                   22814729.9654
 -43371608.72348 -33738616.66846  20728092.8594                   20728088.4024
 11  8  1  2 17  0.0000000  0  7G25G10G17G12G05G04G02
   7870271.63748   6172994.94545  22777753.7584                   22777755.8094
 -30619794.85248 -23813742.05546  21171124.1564                   21171122.1134
 -82127908.15646 -63945623.43043  24090973.8984                   24090971.5314
 -21612760.59048 -16798096.85946  20810611.0864                   20810608.8984
 -13368267.68748 -10373905.36746  20918427.9614                   20918425.5554
 -55379715.98447 -43102575.70344  22812254.2424                   22812252.4184
 -43448743.46948 -33798721.64546  20713414.5864                   20713410.6134
 11  8  1  2 17 30.0000000  0  7G25G10G17G12G05G04G02
   7697565.41048   6038418.71945  22744888.9304                   22744890.1484
 -30671475.22748 -23854012.46146  21161289.5944                   21161287.6374
 -82155039.46946 -63966764.71143  24085810.6804                   24085808.5274
 -21725922.78148 -16886275.16446  20789076.8834                   20789074.8054
 -13524142.68448 -10495366.35246  20888765.5474                   20888762.8634
 -55392682.89847 -43112679.73844  22809786.7194                   22809784.6484
 -43525641.69548 -33858642.31246  20698781.4694                   20698777.1724
 11  8  1  2 18  0.0000000  0  7G25G10G17G12G05G04G02
   7525270.62548   5904163.10245  22712102.1884                   22712102.7544
 -30722554.73847 -23893814.67245  21151569.3054                   21151567.2384
 -82181963.83646 -63987744.74643  24080687.1564                   24080684.6844
 -21838489.55148 -16973989.50046  20767655.9384                   20767653.7934
 -13679501.05948 -10616424.77346  20859201.5554                   20859199.6024
 -55405601.08247 -43122745.82444  22807328.0234                   22807326.0394
 -43602306.71148 -33918381.26246  20684192.5554                   20684187.8204
 11  8  1  2 18 30.0000000  0  7G25G10G17G12G05G04G02
   7353391.03947   5770231.00845  22679394.0234                   22679395.0594
 -30773033.58247 -23933148.81246  21141963.4694                   21141961.2854
 -82208679.72346 -64008562.33243  24075602.8834                   24075600.7384
 -21950458.91848 -17061238.33246  20746349.7424                   20746346.9574
 -13834339.54748 -10737078.09846  20829737.1094                   20829734.9344
 -55418470.55947 -43132773.96544  22804879.1254                   22804876.7814
 -43678738.61348 -33977938.55946  20669647.8594                   20669643.5984
 11  8  1  2 19  0.0000000  0  7G25G10G17G12G05G04G02
   7181928.54347   5636623.91445  22646766.2974                   22646766.1374
 -30822914.42247 -23972016.99646  21132471.8204                   21132469.5554
 -82235187.79746 -64029217.92243  24070557.9774                   24070556.4184
 -22061830.40248 -17148021.28546  20725156.2034                   20725153.6884
 -13988657.17648 -10857325.53946  20800371.1414                   20800369.0204
 -55431293.30147 -43142765.68444  22802438.9454                   22802436.7544
 -43754938.91448 -34037315.39146  20655147.3364                   20655142.8914
 11  8  1  2 19 30.0000000  0  7G25G10G17G12G05G04G02
   7010884.72347   5503343.06345  22614217.2274                   22614217.2424
 -30872199.70747 -24010421.10245  21123093.2734                   21123090.3714
 -82261488.82446 -64049712.28943  24065553.8204                   24065551.7234
 -22172604.33248 -17234338.60946  20704076.5394                   20704074.0864
 -14142452.64848 -10977166.12946  20771104.8204                   20771102.9344
 -55444071.22347 -43152722.48044  22800007.9304                   22800005.8404
 -43830909.69148 -34096513.37546  20640690.4304                   20640686.2154
 11  8  1  2 20  0.0000000  0  7G25G10G17G12G05G04G02
   6840262.92647   5370391.07045  22581749.1954                   22581748.9534
 -30920890.34047 -24048361.82845  21113827.5004                   21113825.0274
 -82287582.05546 -64070044.69143  24060588.6884                   24060585.9844
 -22282778.97748 -17320188.96146  20683111.1484                   20683108.8204
 -14295723.50848 -11096597.91846  20741938.4224                   20741936.5004
 -55456804.75847 -43162644.71144  22797584.1724                   22797582.6524
 -43906651.19948 -34155532.70346  20626277.4144                   20626272.8204
 11  8  1  2 20 30.0000000  0  7G25G10G17G12G05G04G02
   6670064.06347   5237768.63745  22549361.4534                   22549361.5634
 -30968990.22347 -24085842.23446  21104674.2194                   21104671.6884
 -82313469.07047 -64090216.34043  24055661.6644                   24055660.5234
 -22392354.96548 -17405572.81246  20662259.1094                   20662256.5984
 -14448469.43048 -11215620.66446  20712871.8834                   20712869.4184
 -55469496.72347 -43172534.53944  22795168.3754                   22795167.7154
 -43982166.12548 -34214375.47346  20611907.3754                   20611903.0944
 11  8  1  2 21  0.0000000  0  7G25G10G17G12G05G04G02
   6500288.25047   5105475.84445  22517053.6254                   22517054.6764
 -31016502.96147 -24122865.13746  21095632.9384                   21095631.0784
 -82339152.23847 -64110229.19544  24050775.5314                   24050772.9494
 -22501334.16848 -17490491.65246  20641521.0634                   20641518.5744
 -14600690.35248 -11334234.32446  20683905.1954                   20683903.3244
 -55482150.50447 -43182394.62544  22792761.1414                   22792759.9384
 -44057457.69948 -34273044.20346  20597579.7664                   20597575.3284
 11  8  1  2 21 30.0000000  0  7G25G10G17G12G05G04G02
   7906364.00447   6201119.35545  22784621.1724                   22784622.1174
 -29488008.72347 -22931830.67246  21386496.0314                   21386493.8094
 -80789209.98446 -62902481.96143  24345718.7734                   24345717.0704
 -21034291.92248 -16347341.81646  20920689.8674                   20920687.0984
 -13176959.43048 -10224833.56246  20954831.9454                   20954829.9224
 -53919346.65247 -41964625.36344  23090152.9694                   23090151.4964
 -42557104.51648 -33103937.79746  20883087.9694                   20883083.3324
 11  8  1  2 22  0.0000000  0  7G25G10G17G12G05G04G02
   7737443.42647   6069492.99245  22752476.9774                   22752477.9694
 -29534351.70747 -22967942.05545  21377676.9614                   21377674.7304
 -80814483.02047 -62922175.25444  24340909.7504                   24340907.1174
 -21142073.70748 -16431327.59446  20900179.6804                   20900177.3834
 -13328123.93448 -10342624.03946  20926066.3364                   20926064.2704
 -53931926.11747 -41974427.53144  23087759.3444                   23087757.3524
 -42631951.43748 -33162260.05146  20868844.9224                   20868839.7934
 11  8  1  2 22 30.0000000  0  7G25G10G17G12G05G04G02
   7568955.94547   5938204.11745  22720414.5784                   22720415.8134
 -29580110.86347 -23003598.52745  21368969.7894                   21368967.0554
 -80839549.30547 -62941707.43044  24336140.0554                   24336137.9454
 -21249253.10948 -16514843.98046  20879784.1484                   20879781.0314
 -13478755.66848 -10459999.37146  20897402.0864                   20897399.9534
 -53944468.35247 -41984200.68744  23085372.0554                   23085370.5124
 -42706575.96548 -33220409.00846  20854643.8524                   20854639.7234
 11  8  1  2 23  0.0000000  0  7G25G10G17G12G05G04G02
   7400900.73847   5807252.05945  22688434.5234                   22688435.9024
 -29625291.25447 -23038804.01646  21360371.5554                   21360369.5594
 -80864411.85947 -62961080.85243  24331408.2664                   24331406.4694
 -21355833.69548 -16597893.76246  20859502.6954                   20859499.9534
 -13628856.22748 -10576960.79346  20868838.8284                   20868836.6524
 -53956977.86747 -41993948.34044  23082991.5554                   23082990.3014
 -42780982.25448 -33278387.89846  20840485.1484                   20840480.6414
 11  8  1  2 23 30.0000000  0  8G29G25G10G17G12G05G04G02
  29676158.54756  23160546.71553  24713973.8834                   24713975.4304
   7233281.66047   5676639.85945  22656537.3134                   22656539.4184
 -29669893.36347 -23073558.88346  21351884.5234                   21351881.5984
 -80889069.58647 -62980294.66044  24326716.3834                   24326714.8524
 -21461813.43448 -16680475.34446  20839335.0864                   20839332.5664
 -13778422.06648 -10693505.57046  20840377.2814                   20840375.0944
 -53969454.16047 -42003670.12944  23080617.3594                   23080616.2034
 -42855170.10948 -33336196.59446  20826367.8284                   20826363.0164
 11  8  1  2 24  0.0000000  0  8G29G25G10G17G12G05G04G02
  29500930.69146  23024005.59443  24680628.9694                   24680629.2464
   7066094.35547   5546364.10545  22624722.8054                   22624724.3244
 -29713926.05147 -23107870.05546  21343505.2664                   21343502.8164
 -80913529.18047 -62999354.03543  24322062.5084                   24322059.9614
 -21567198.21148 -16762593.32846  20819280.8674                   20819278.6724
 -13927458.50848 -10809637.81246  20812016.6484                   20812014.9734
 -53981905.23847 -42013372.25844  23078247.7424                   23078246.7464
 -42929147.18448 -33393841.02746  20812290.1564                   20812286.0554
 11  8  1  2 24 30.0000000  0  8G29G25G10G17G12G05G04G02
  29325648.34046  22887421.98843  24647273.8054                   24647274.1684
   6899341.14147   5416426.60945  22592990.8364                   22592992.5744
 -29757391.32447 -23141739.09846  21335233.9304                   21335231.6254
 -80937790.46946 -63018258.96543  24317444.8914                   24317443.5554
 -21671987.41848 -16844247.22746  20799340.3594                   20799337.7894
 -14075963.95748 -10925356.30946  20783756.6724                   20783755.1994
 -53994332.36747 -42023055.72344  23075882.6724                   23075882.2114
 -43002914.60948 -33451322.11746  20798252.8524                   20798248.2304
 11  8  1  2 25  0.0000000  0  8G29G25G10G17G12G05G04G02
  29150308.26646  22750793.42243  24613907.1804                   24613908.4304
   6733020.75447   5286826.37145  22561341.1414                   22561342.3324
 -29800294.85248 -23175170.40645  21327069.3914                   21327067.4184
 -80961857.48846 -63037012.49643  24312864.7344                   24312863.7894
 -21776184.16848 -16925439.48046  20779512.4304                   20779509.6094
 -14223940.18448 -11040662.41446  20755597.8364                   20755595.9924
 -54006740.25047 -42032724.19544  23073521.7344                   23073520.8984
 -43076477.19948 -33508643.59446  20784254.0784                   20784249.5904
 11  8  1  2 25 30.0000000  0  8G29G25G10G17G12G05G04G02
  28974915.78146  22614124.03943  24580531.1954                   24580530.6484
   6567140.40647   5157569.02345  22529775.0314                   22529776.1294
 -29842633.98047 -23208161.90645  21319012.4774                   21319010.6024
 -80985725.29347 -63055610.72744  24308323.6254                   24308321.8524
 -21879783.09848 -17006165.89146  20759797.8134                   20759795.0434
 -14371380.91048 -11155551.25046  20727540.7424                   20727538.6724
 -54019125.10947 -42042374.73444  23071165.7344                   23071164.6094
 -43149831.28548 -33565802.59846  20770295.4384                   20770290.7234
 11  8  1  2 26  0.0000000  0  8G29G25G10G17G12G05G04G02
  28799468.75846  22477412.08643  24547145.9064                   24547145.0004
   6401699.82847   5028654.35545  22498292.5784                   22498294.2194
 -29884413.41047 -23240717.30145  21311062.0944                   21311060.3484
 -81009396.73846 -63074056.04344  24303818.5004                   24303817.9224
 -21982786.41848 -17086428.19946  20740197.0314                   20740194.8244
 -14518287.00848 -11270023.50846  20699585.4384                   20699583.1954
 -54031490.69547 -42052010.25444  23068812.3444                   23068811.0274
 -43222980.33648 -33622801.82446  20756375.5944                   20756371.1054
 11  8  1  2 26 30.0000000  0  8G29G25G10G17G12G05G04G02
  28623970.43446  22340660.19543  24513748.6804                   24513750.1024
   6236704.06347   4900086.29745  22466894.6954                   22466896.3524
 -29925632.44147 -23272836.01646  21303218.5704                   21303216.7934
 -81032868.91446 -63092346.10244  24299352.6174                   24299351.2304
 -22085190.98848 -17166223.94146  20720710.2114                   20720707.5084
 -14664654.20348 -11384075.81646  20671732.5394                   20671730.4494
 -54043835.37947 -42061629.47744  23066463.6954                   23066462.1254
 -43295923.09448 -33679640.31646  20742494.6884                   20742490.6524
 11  8  1  2 27  0.0000000  0  8G29G25G10G17G12G05G04G02
  28448421.85746  22203869.13743  24480342.3754                   24480344.1214
   6072155.80547   4771866.93445  22435582.2584                   22435582.9734
 -29966293.16047 -23304519.68445  21295480.7424                   21295479.1564
 -81056141.64147 -63110480.70344  24294924.1564                   24294922.0354
 -22186995.88748 -17245552.41046  20701337.4064                   20701334.7774
 -14810480.63748 -11497706.75846  20643982.6174                   20643980.4734
 -54056159.98047 -42071233.05544  23064118.2424                   23064116.6334
 -43368660.28548 -33736318.62146  20728653.3754                   20728649.2074
 11  8  1  2 27 30.0000000  0  8G29G25G10G17G12G05G04G02
  28272825.88746  22067041.15243  24446927.0864                   24446930.4104
   5908059.64547   4643999.85545  22404355.4304                   22404357.1684
 -30006394.97747 -23335767.83646  21287850.2584                   21287848.0904
 -81079212.78947 -63128458.25444  24290533.6644                   24290532.3444
 -22288198.75048 -17324411.76246  20682079.0474                   20682076.2974
 -14955762.50448 -11610913.37546  20616336.7194                   20616334.4534
 -54068463.29347 -42080820.06644  23061776.7664                   23061775.4304
 -43441190.50448 -33792835.64846  20714851.3444                   20714847.0394
 11  8  1  2 28  0.0000000  0  8G29G25G10G17G12G05G04G02
  28097178.50446  21930173.10543  24413503.6644                   24413505.9494
   5744413.51247   4516483.45345  22373215.5474                   22373215.8954
 -30045944.36747 -23366585.52345  21280323.7664                   21280321.8794
 -81102086.51246 -63146281.95344  24286180.6094                   24286179.9574
 -22388803.19548 -17402804.82046  20662934.6094                   20662932.0514
 -15100502.46948 -11723697.71946  20588793.5704                   20588791.3594
 -54080750.73447 -42090394.68444  23059438.5704                   23059437.0204
 -43513519.12548 -33849195.59846  20701087.5234                   20701083.4344
 11  8  1  2 28 30.0000000  0  8G29G25G10G17G12G05G04G02
  27921483.32046  21793267.74243  24380069.5474                   24380073.3364
   5581222.48847   4389321.67645  22342160.6254                   22342162.1174
 -30084941.00447 -23396972.50845  21272903.4454                   21272901.1684
 -81124760.46146 -63163950.00443  24281866.2814                   24281864.8874
 -22488806.52748 -17480729.46546  20643904.6484                   20643902.1454
 -15244696.16448 -11836056.39546  20561354.5784                   20561352.4384
 -54093020.50447 -42099955.50844  23057103.3364                   23057101.8634
 -43585644.71948 -33905397.32846  20687362.9224                   20687358.3054
 11  8  1  2 29  0.0000000  0  8G29G25G10G17G12G05G04G02
  27745738.40246  21656323.70343  24346626.9454                   24346629.5354
   5418486.92248   4262514.81345  22311193.4384                   22311194.2154
 -30123388.80947 -23426931.80945  21265586.7194                   21265584.5084
 -81147236.93446 -63181464.13743  24277589.2584                   24277587.7974
 -22588209.99648 -17558186.69546  20624988.9844                   20624985.9184
 -15388344.01648 -11947989.76246  20534019.0234                   20534016.7544
 -54105275.57047 -42109504.88744  23054770.8914                   23054769.7854
 -43657570.05548 -33961443.02746  20673675.7424                   20673671.3794
 11  8  1  2 29 30.0000000  0  8G29G25G10G17G12G05G04G02
  29145373.39846  22746948.35243  24612968.2114                   24612970.4884
   6831637.42247   5363671.10945  22580106.9534                   22580108.6564
 -28585865.84847 -22228861.96546  21558167.2504                   21558165.9804
 -79594092.05946 -61971221.40643  24573142.5944                   24573141.4844
 -21111587.36348 -16407571.63346  20905980.6334                   20905978.0044
 -13956016.96148 -10831890.71146  20806581.7034                   20806579.1564
 -52542093.87147 -40891441.21943  23352235.0864                   23352233.1884
 -42153870.95748 -32789729.42246  20959820.1884                   20959816.0824
 11  8  1  2 30  0.0000000  0  8G29G25G10G17G12G05G04G02
  28969537.20346  22609933.20343  24579507.5944                   24579509.9964
   6669825.23048   5237583.75045  22549314.6254                   22549316.3134
 -28623217.27347 -22257966.95745  21551059.3834                   21551057.8284
 -79616167.71946 -61988423.19543  24568942.1724                   24568940.2624
 -21209784.71148 -16484089.03146  20887294.5634                   20887291.6334
 -14098563.13748 -10942965.61746  20779455.6414                   20779453.6054
 -52554317.34047 -40900965.98444  23349909.1724                   23349907.5704
 -42225393.41848 -32845461.19546  20946209.7974                   20946205.5314
 11  8  1  2 30 30.0000000  0  8G29G25G10G17G12G05G04G02
  28793653.14146  22472880.78543  24546037.7664                   24546039.0164
   6508474.97748   5111856.34845  22518611.0944                   22518612.1994
 -28660026.91447 -22286649.77345  21544055.0634                   21544052.7894
 -79638046.14546 -62005471.34843  24564777.4774                   24564776.8204
 -21307381.69948 -16560138.59846  20868722.2974                   20868719.7074
 -14240559.30548 -11053611.94546  20752435.0634                   20752432.6374
 -52566529.59047 -40910481.98844  23347585.0784                   23347583.0164
 -42296719.26248 -32901039.75846  20932636.9224                   20932632.5784
 11  8  1  2 31  0.0000000  0  8G29G25G10G17G12G05G04G02
  28617722.77346  22335792.35243  24512559.0944                   24512559.0434
   6347590.23448   4986491.69545  22487995.5554                   22487996.6954
 -28696295.60948 -22314911.07845  21537153.5944                   21537151.1454
 -79659726.39846 -62022365.12143  24560653.3364                   24560651.6684
 -21404376.76648 -16635719.16846  20850264.6954                   20850262.0274
 -14382003.12948 -11163827.87146  20725519.0944                   20725516.8554
 -52578730.26247 -40919989.02044  23345263.5944                   23345262.1174
 -42367848.06248 -32956464.78146  20919101.6174                   20919097.0784
 11  8  1  2 31 30.0000000  0  8G29G25G10G17G12G05G04G02
  28441747.81346  22198669.13743  24479072.3914                   24479071.2504
   6187173.93847   4861492.03946  22457469.3674                   22457470.7304
 -28732024.84848 -22342752.03146  21530354.2194                   21530352.1414
 -79681207.73846 -62039103.87143  24556564.7424                   24556563.3364
 -21500769.18748 -16710830.11746  20831921.7344                   20831919.3094
 -14522892.42648 -11273611.70746  20698708.5234                   20698706.4774
 -52590919.71147 -40929487.26644  23342943.4384                   23342942.6604
 -42438780.31648 -33011736.64846  20905603.2974                   20905599.2504
 11  8  1  2 32  0.0000000  0  8G29G25G10G17G12G05G04G02
  28265728.46146  22061511.28943  24445577.0864                   24445575.9734
   6027227.62547   4736858.61745  22427032.5394                   22427033.5864
 -28767217.93748 -22370175.20745  21523657.6334                   21523655.3874
 -79702490.97346 -62055688.21543  24552515.7424                   24552513.7504
 -21596559.59048 -16785471.97346  20813693.5634                   20813690.7624
 -14663226.24248 -11382962.69547  20672003.9614                   20672001.7734
 -52603099.52747 -40938978.00844  23340625.9924                   23340625.1134
 -42509517.63348 -33066856.61346  20892142.3204                   20892138.3204
 11  8  1  2 32 30.0000000  0  8G29G25G10G17G12G05G04G02
  28089665.54746  21924319.55943  24412073.9774                   24412072.5634
   5867754.07447   4612593.58245  22396685.8134                   22396686.0824
 -28801876.32448 -22397181.72345  21517061.6094                   21517059.7624
 -79723575.69946 -62072117.85242  24548502.3524                   24548501.4494
 -21691747.03548 -16859643.98446  20795580.1484                   20795577.3094
 -14803002.69548 -11491879.37946  20645405.3054                   20645403.0744
 -52615270.03147 -40948461.53144  23338310.2274                   23338308.8874
 -42580060.53148 -33121825.08646  20878718.6024                   20878714.8404
 11  8  1  2 33  0.0000000  0  7G29G25G10G12G05G04G02
  27913559.35946  21787094.08643  24378562.0084                   24378560.5944
   5708755.16047   4488698.37545  22366428.9694                   22366429.4654
 -28836002.62947 -22423773.63745  21510568.1804                   21510565.8244
 -21786331.53548 -16933346.17646  20777581.0864                   20777578.1294
 -14942221.07048 -11600361.19146  20618913.0474                   20618910.9144
 -52627432.69946 -40957938.91444  23335995.3914                   23335994.2074
 -42650409.97748 -33176642.82446  20865331.7974                   20865327.6294
 11  8  1  2 33 30.0000000  0  7G29G25G10G12G05G04G02
  27737411.55946  21649836.18043  24345040.3674                   24345040.3284
   5550233.93847   4365175.39845  22336263.2114                   22336263.7894
 -28869598.24247 -22449952.02745  21504174.7114                   21504172.7464
 -21880312.25048 -17006577.86746  20759697.2504                   20759694.5784
 -15080878.79348 -11708406.14846  20592527.5314                   20592525.0984
 -52639587.54747 -40967410.23044  23333682.7664                   23333681.2734
 -42720566.62948 -33231310.32846  20851981.5784                   20851977.1604
 11  8  1  2 34  0.0000000  0  7G29G25G10G12G05G04G02
  27561225.33246  21512548.37543  24311513.8364                   24311514.0904
   5392195.04748   4242028.26645  22306189.7194                   22306190.1134
 -28902663.30547 -22475716.99645  21497882.8134                   21497880.9844
 -21973686.57848 -17079337.06646  20741928.5234                   20741925.8094
 -15218972.16848 -11816011.33246  20566249.1804                   20566246.6214
 -52651733.19147 -40976874.36744  23331371.4454                   23331370.0124
 -42790528.91448 -33285826.37146  20838668.1414                   20838663.7814
 11  8  1  2 34 30.0000000  0  7G29G25G10G12G05G04G02
  27385003.70346  21375232.96543  24277979.8284                   24277979.7274
   5234643.03147   4119260.49646  22276208.6174                   22276209.2894
 -28935197.78148 -22501068.52745  21491691.9304                   21491689.3984
 -22066451.94148 -17151621.75446  20724275.5944                   20724273.2034
 -15356497.89148 -11923174.20346  20540078.4304                   20540076.3714
 -52663867.98447 -40986330.06244  23329062.3054                   23329060.6414
 -42860295.26248 -33340189.74646  20825392.0634                   20825387.7424
 11  8  1  2 35  0.0000000  0  7G29G25G10G12G05G04G02
  27208746.10246  21237889.50043  24244438.9384                   24244439.4614
   5077578.70348   3996872.76646  22246319.8674                   22246321.2934
 -28967205.28547 -22526009.43045  21485600.8284                   21485598.8794
 -22158609.89848 -17223433.13346  20706738.7034                   20706735.7274
 -15493455.75448 -12029894.58246  20514016.4144                   20514014.2154
 -52675994.09447 -40995778.97744  23326754.7664                   23326753.7624
 -42929867.87148 -33394402.14546  20812152.2344                   20812148.1994
 11  8  1  2 35 30.0000000  0  7G29G25G10G12G05G04G02
  27032453.55546  21100518.82043  24210892.1484                   24210891.4844
   4921004.57048   3874867.00046  22216525.1174                   22216525.7384
 -28998687.89547 -22550541.34045  21479609.8674                   21479607.7274
 -22250159.87148 -17294770.75446  20689317.3594                   20689314.8284
 -15629844.07448 -12136171.16847  20488062.6644                   20488060.1604
 -52688112.25846 -41005221.70343  23324448.2344                   23324447.6644
 -42999247.68748 -33448464.32046  20798949.8054                   20798945.5274
 11  8  1  2 36  0.0000000  0  7G29G25G10G12G05G04G02
  26856125.43846  20963120.39143  24177337.9304                   24177337.1454
   4764921.55547   3753243.90645  22186823.3594                   22186823.9654
 -29029649.29348 -22574667.09445  21473718.3524                   21473715.9104
 -22341103.46148 -17365635.87546  20672011.8054                   20672008.9224
 -15765662.85548 -12242003.94547  20462217.3284                   20462215.0594
 -52700224.39846 -41014659.71544  23322143.5704                   23322141.9964
 -43068437.07048 -33502378.10946  20785783.8674                   20785779.2584
 11  8  1  2 36 30.0000000  0  7G29G25G10G12G05G04G02
  26679760.88746  20825693.57443  24143776.3204                   24143776.3634
   4609330.16848   3632003.91445  22157215.3914                   22157216.1524
 -29060093.51248 -22598389.84045  21467924.8914                   21467922.8324
 -22431442.06648 -17436029.57846  20654820.9064                   20654817.9104
 -15900912.44948 -12347393.21547  20436479.9694                   20436477.7544
 -52712333.04346 -41024095.03143  23319839.1804                   23319838.5204
 -43137438.44948 -33556145.39146  20772653.1334                   20772649.0204
 11  8  1  2 37  0.0000000  0  7G29G25G10G12G05G04G02
  26503361.48446  20688239.59043  24110208.9774                   24110209.5044
   4454233.17648   3511149.14545  22127701.2034                   22127702.0784
 -29090022.10948 -22621710.81245  21462229.3834                   21462227.2934
 -22521175.12948 -17505951.43746  20637744.8984                   20637742.4654
 -16035591.31248 -12452337.74246  20410851.6484                   20410849.2584
 -52724438.57846 -41033527.89843  23317536.0864                   23317533.9574
 -43206251.91048 -33609766.25046  20759558.1254                   20759554.0084
 11  8  1  2 37 30.0000000  0  7G29G25G10G12G05G04G02
  26326924.21946  20550756.11344  24076633.6334                   24076635.2074
   4299628.88348   3390678.30945  22098280.7734                   22098281.6844
 -29119441.06247 -22644634.66445  21456631.4064                   21456629.4384
 -22610306.32448 -17575404.30146  20620783.8984                   20620781.1374
 -16169702.12948 -12556839.64846  20385331.0394                   20385328.8094
 -52736545.30546 -41042961.72743  23315231.5474                   23315230.1524
 -43274882.25048 -33663244.41846  20746498.6644                   20746494.5354
 11  8  1  2 38  0.0000000  0  7G29G25G10G12G05G04G02
  27725877.89147  21640849.97344  24342846.1644                   24342846.7154
   5720946.72748   4498198.75045  22368748.9064                   22368749.2734
 -27572929.75048 -21439560.91045  21750922.4774                   21750920.6604
 -21123410.85948 -16416784.44146  20903730.2734                   20903728.1054
 -14727817.04748 -11433292.79746  20659712.8524                   20659710.1604
 -51173231.64846 -39824795.21143  23612719.7034                   23612718.3754
 -41767905.97348 -32488977.16446  21033266.5704                   21033262.2504
 11  8  1  2 38 30.0000000  0  7G29G25G10G12G05G04G02
  27549367.64847  21503309.59444  24309256.8364                   24309258.2854
   5567334.74248   4378501.14846  22339517.1484                   22339517.7584
 -27601336.52347 -21461696.05545  21745516.7034                   21745515.0744
 -21211338.28948 -16485299.31246  20886998.6884                   20886996.1994
 -14860787.32448 -11536905.96946  20634409.0704                   20634406.8444
 -51185342.98046 -39834232.60943  23610415.3914                   23610414.2544
 -41836172.34848 -32542171.72746  21020275.7034                   21020271.1804
 11  8  1  2 39  0.0000000  0  7G29G25G10G12G05G04G02
  27372822.75447  21365742.23444  24275661.8134                   24275661.7194
   5414222.77047   4259193.16446  22310380.7504                   22310381.1804
 -27629240.41848 -21483439.35245  21740207.7194                   21740205.0554
 -21298663.28948 -16553344.76246  20870381.0864                   20870378.7504
 -14993184.84848 -11640072.84047  20609214.8594                   20609212.3594
 -51197457.12147 -39843672.21944  23608111.1884                   23608109.4924
 -41904257.37148 -32595224.96946  21007319.6024                   21007315.5474
 11  8  1  2 39 30.0000000  0  7G29G25G10G12G05G04G02
  27196243.64547  21228148.16843  24242059.8134                   24242059.2544
   5261612.41847   4140276.05146  22281340.3284                   22281341.2304
 -27656643.96548 -21504792.75045  21734992.5554                   21734989.9304
 -21385386.48848 -16620921.27046  20853878.2584                   20853876.0514
 -15125009.07048 -11742792.98446  20584129.0314                   20584126.8134
 -51209575.35247 -39853114.96144  23605804.6414                   23605803.3714
 -41972162.34448 -32648137.91046  20994397.9384                   20994393.0944
 11  8  1  2 40  0.0000000  0  7G29G25G10G12G05G04G02
  27019630.96947  21090527.99643  24208450.4614                   24208451.3634
   5109505.31348   4021751.08646  22252395.2584                   22252396.2194
 -27683550.18048 -21525758.60945  21729872.4694                   21729869.7774
 -21471508.41848 -16688029.25446  20837489.8284                   20837487.4734
 -15256259.42248 -11845065.94946  20559153.2114                   20559150.9494
 -51221698.60247 -39862561.61744  23603497.9224                   23603495.4884
 -42039888.77048 -32700911.72746  20981509.9304                   20981505.1804
 11  8  1  2 40 30.0000000  0  7G29G25G10G12G05G04G02
  26842983.54746  20952880.70343  24174836.2584                   24174835.8014
   4957901.49648   3903618.28946  22223546.0234                   22223546.4804
 -27709963.55148 -21546340.46145  21724846.6484                   21724843.4654
 -21557031.09448 -16754670.28546  20821215.2584                   20821212.8204
 -15386936.80948 -11946892.46147  20534286.2344                   20534283.6564
 -51233829.67247 -39872014.38744  23601189.5864                   23601188.0394
 -42107439.39848 -32753548.56246  20968655.6174                   20968651.1914
 11  8  1  2 41  0.0000000  0  7G29G25G10G12G05G04G02
  26666301.82846  20815206.72743  24141214.3524                   24141214.1804
   4806802.60948   3785878.94546  22194792.8984                   22194793.6094
 -27735886.75048 -21566540.35245  21719913.1804                   21719910.5864
 -21641955.08648 -16820844.82046  20805055.0864                   20805052.3714
 -15517040.45748 -12048271.89147  20509527.9304                   20509525.9494
 -51245969.87947 -39881474.25044  23598879.7814                   23598877.5904
 -42174815.57848 -32806049.45746  20955834.3754                   20955829.8834
 11  8  1  2 41 30.0000000  0  7G29G25G10G12G05G04G02
  26489583.42646  20677504.15643  24107586.1884                   24107585.4144
   4656207.41048   3668532.09046  22166135.5394                   22166135.8714
 -27761325.87548 -21586363.03545  21715071.9924                   21715069.6134
 -21726284.59848 -16886556.11746  20789007.8594                   20789005.2034
 -15646572.79748 -12149206.16446  20484879.2424                   20484876.8714
 -51258123.10247 -39890944.28544  23596567.1414                   23596564.8134
 -42242021.38748 -32858417.59446  20943044.8204                   20943040.6564
 11  8  1  2 42  0.0000000  0  7G29G25G10G12G05G04G02
  26312835.16846  20539778.35943  24073951.7504                   24073951.9144
   4506123.95748   3551583.98446  22137575.9694                   22137574.9104
 -27786277.02347 -21605805.47745  21710324.1724                   21710321.5514
 -21810013.26248 -16951799.22346  20773074.3204                   20773071.7974
 -15775526.76248 -12249689.74246  20460339.7034                   20460337.5594
 -51270284.04747 -39900420.32444  23594252.3834                   23594250.4024
 -42309051.48848 -32910648.82846  20930289.9844                   20930284.9884
 11  8  1  2 42 30.0000000  0  7G29G25G10G12G05G04G02
  26136058.39846  20402030.32043  24040311.9844                   24040313.4224
   4356554.42648   3435036.33645  22109113.4384                   22109113.0554
 -27810742.62147 -21624869.55945  21705668.6024                   21705666.1564
 -21893141.40648 -17016574.39846  20757255.8674                   20757253.1954
 -15903901.22348 -12349721.75447  20435910.7344                   20435908.3244
 -51282453.20347 -39909902.77044  23591936.6564                   23591936.0394
 -42375906.87148 -32962743.91046  20917567.4694                   20917563.0704
 11  8  1  2 43  0.0000000  0  7G29G25G10G12G05G04G02
  25959248.88746  20264256.75044  24006667.1884                   24006667.1414
   4207495.83648   3318886.82446  22080748.3284                   22080748.3634
 -27834730.08247 -21643561.07845  21701103.7974                   21701101.5514
 -21975673.78148 -17080885.33246  20741549.9384                   20741547.3444
 -16031700.16048 -12449305.31647  20411591.5704                   20411589.3874
 -51294636.26247 -39919396.05144  23589617.6724                   23589616.7344
 -42442593.18048 -33014707.25846  20904878.0084                   20904873.3164
 11  8  1  2 43 30.0000000  0  7G29G25G10G12G05G04G02
  25782413.52046  20126463.03543  23973016.3594                   23973016.2114
   4058956.28548   3203141.76246  22052481.7734                   22052482.2154
 -27858236.04747 -21661877.39845  21696630.5864                   21696628.6294
 -22057605.30948 -17144728.07846  20725959.4304                   20725956.1134
 -16158916.47348 -12548434.88347  20387383.0234                   20387380.9574
 -51306827.59847 -39928895.78544  23587298.9304                   23587296.8984
 -42509105.03548 -33066534.65246  20892220.8674                   20892216.1524
 11  8  1  2 44  0.0000000  0  7G29G25G10G12G05G04G02
  25605548.57447  19988646.28544  23939359.8054                   23939360.1334
   3910932.49648   3087798.60946  22024314.0944                   22024313.8244
 -27881268.19148 -21679824.52045  21692248.1024                   21692245.7274
 -22138941.19148 -17208106.67246  20710481.6724                   20710478.9964
 -16285554.19548 -12647113.59847  20363284.5314                   20363282.5744
 -51319033.19546 -39938406.64844  23584975.0634                   23584974.5474
 -42575448.32448 -33118230.70346  20879596.4924                   20879591.5514
 11  8  1  2 44 30.0000000  0  7G29G25G10G12G05G04G02
  25428655.57047  19850807.64844  23905698.6174                   23905697.7584
   3763427.26248   2972859.50846  21996244.4614                   21996244.7584
 -27903827.91447 -21697403.51245  21687954.7664                   21687952.6054
 -22219681.00048 -17271020.80946  20695117.2424                   20695114.6054
 -16411612.15248 -12745340.55947  20339296.6564                   20339294.3914
 -51331252.89846 -39947928.48843  23582649.6414                   23582648.9264
 -42641623.09848 -33169795.44546  20867003.3834                   20866998.7344
 11  8  1  2 45  0.0000000  0  7G29G25G10G12G05G04G02
  25251734.37147  19712947.04743  23872030.6884                   23872030.1844
   3616441.37948   2858325.10246  21968274.2814                   21968274.4574
 -27925919.05547 -21714617.39545  21683750.8594                   21683748.7854
 -22299826.40648 -17333471.76246  20679865.8834                   20679863.2934
 -16537090.30148 -12843115.71147  20315418.9304                   20315416.9104
 -51343488.49646 -39957462.76643  23580321.6564                   23580320.3754
 -42707631.62548 -33221230.64846  20854442.4924                   20854438.0434
 11  8  1  2 45 30.0000000  0  7G29G25G10G12G05G04G02
  25074787.69947  19575066.62143  23838358.9844                   23838358.6094
   3469978.70748   2744198.37946  21940403.2274                   21940403.1994
 -27947542.34447 -21731466.69145  21679635.9064                   21679633.9734
 -22379375.62148 -17395458.16046  20664728.1804                   20664725.8674
 -16661985.82848 -12940436.87147  20291652.6094                   20291650.2034
 -51355738.37546 -39967008.12943  23577990.6484                   23577988.9144
 -42773472.50848 -33272535.22346  20841913.4454                   20841908.8364
 11  8  1  2 46  0.0000000  0  7G29G25G10G12G05G04G02
  24897817.25047  19437167.68443  23804683.0864                   23804681.7154
   3324041.60548   2630481.18846  21912632.2424                   21912632.8364
 -27968699.83647 -21747953.04345  21675610.1804                   21675607.9224
 -22458328.84848 -17456980.15246  20649703.7814                   20649701.2154
 -16786297.48848 -13037303.07447  20267996.4454                   20267993.8554
 -51368002.92646 -39976564.88343  23575656.5634                   23575655.3674
 -42839146.02048 -33323709.37546  20829416.1334                   20829411.7154
 11  8  1  2 46 30.0000000  0  7G29G25G10G12G05G04G02
  26296246.79747  20526853.14844  24070794.6254                   24070793.7504
   4754053.59448   3744776.29346  22184754.5864                   22184754.7624
 -26413976.57847 -20536480.36745  21971463.5554                   21971461.8204
 -20961266.92248 -16290438.38746  20934585.3754                   20934582.8594
 -15334603.51648 -11906112.94147  20544245.1804                   20544242.1844
 -49804865.37147 -38758535.61743  23873111.4064                   23873110.8014
 -41329233.98048 -32147154.51646  21116743.2734                   21116738.2664
 11  8  1  2 47  0.0000000  0  7G29G25G10G12G05G04G02
  26119226.10546  20388915.05943  24037109.3524                   24037107.5784
   4609167.66448   3631878.20346  22157183.9614                   22157183.8094
 -26434215.56647 -20552251.00845  21967612.5864                   21967610.3754
 -21039034.62548 -16351036.59446  20919786.9534                   20919784.3364
 -15457750.77048 -12002071.82447  20520810.3444                   20520807.8324
 -49817166.55947 -38768120.98043  23870771.0864                   23870769.8054
 -41394580.71548 -32198074.03546  21104307.5634                   21104303.0744
 11  8  1  2 47 30.0000000  0  7G29G25G10G12G05G04G02
  25942182.51646  20250959.11743  24003418.3524                   24003416.5004
   4464810.73048   3519392.31646  22129713.3984                   22129714.0044
 -26453998.48847 -20567666.26645  21963848.3364                   21963846.1024
 -21116210.03548 -16411173.26646  20905100.8364                   20905098.3634
 -15580314.35548 -12097575.88347  20497487.4144                   20497485.0434
 -49829486.13747 -38777720.64143  23868427.9454                   23868425.7034
 -41459764.57848 -32248866.64546  21091903.5234                   21091898.9884
 11  8  1  2 48  0.0000000  0  7G29G25G10G12G05G04G02
  25765116.21547  20112985.50443  23969723.7664                   23969722.4024
   4320983.41448   3407319.11346  22102344.0554                   22102344.6954
 -26473329.10547 -20582729.08645  21960169.3204                   21960167.6644
 -21192794.89548 -16470849.77346  20890527.1954                   20890524.5514
 -15702294.28948 -12192625.16447  20474275.0084                   20474272.9224
 -49841826.14147 -38787336.20743  23866079.0084                   23866077.8094
 -41524787.70348 -32299534.01246  21079530.0004                   21079525.5434
 11  8  1  2 48 30.0000000  0  7G29G25G10G12G05G04G02
  25588028.80146  19974995.41843  23936024.9774                   23936024.1884
   4177688.16448   3295660.51646  22075075.8524                   22075076.2544
 -26492209.16847 -20597440.82045  21956576.7194                   21956574.7584
 -21268788.79348 -16530065.79346  20876066.2194                   20876063.4344
 -15823689.22348 -12287218.59047  20451174.5554                   20451172.3014
 -49854186.23847 -38796967.45743  23863726.6954                   23863724.6454
 -41589649.91848 -32350075.98446  21067187.4924                   21067182.8244
 11  8  1  2 49  0.0000000  0  7G29G25G10G12G05G04G02
  25410922.53146  19836990.69144  23902322.4694                   23902322.4224
   4034928.30948   3184419.10946  22047909.1414                   22047910.2034
 -26510640.08247 -20611802.56645  21953069.5084                   21953067.4344
 -21344190.78148 -16588820.57446  20861717.2584                   20861714.6524
 -15944497.09448 -12381354.56647  20428185.4924                   20428183.1994
 -49866565.50447 -38806613.62143  23861370.7114                   23861369.1844
 -41654350.18448 -32400491.76646  21054875.4384                   21054870.5864
 11  8  1  2 49 30.0000000  0  7G29G25G10G12G05G04G02
  25233793.54347  19698968.22344  23868617.0164                   23868615.2114
   3892700.66848   3073592.41446  22020844.3984                   22020845.2934
 -26528629.29747 -20625820.12945  21949646.7274                   21949644.6134
 -21419006.90248 -16647118.84446  20847480.5164                   20847477.8834
 -16064722.34448 -12475036.56247  20405307.3444                   20405304.9694
 -49878969.56646 -38816279.12543  23859010.5474                   23859008.5944
 -41718894.90648 -32450786.34046  21042592.6954                   21042588.4774
 11  8  1  2 50  0.0000000  0  7G29G25G10G12G05G04G02
  25056647.48046  19560932.46144  23834906.0004                   23834906.5084
   3751011.16848   2963185.05146  21993881.5704                   21993882.5164
 -26546175.27747 -20639492.32845  21946307.5634                   21946305.3134
 -21493233.16048 -16704957.46946  20833355.2734                   20833353.1884
 -16184359.80148 -12568260.52747  20382541.3364                   20382538.6054
 -49891394.73847 -38825961.05143  23856646.2034                   23856644.3754
 -41783280.25048 -32500956.73846  21030340.4694                   21030336.4064
 11  8  1  2 50 30.0000000  0  7G29G25G10G12G05G04G02
  24879482.59046  19422881.98844  23801192.8984                   23801192.3164
   3609859.22748   2853196.56346  21967021.2504                   21967022.1604
 -26563282.99647 -20652823.03945  21943051.8674                   21943050.3014
 -21566872.60248 -16762338.84846  20819342.4614                   20819339.9924
 -16303411.45348 -12661028.03147  20359886.6334                   20359883.9694
 -49903843.89547 -38835661.66043  23854277.5474                   23854275.4654
 -41847509.53948 -32551005.52346  21018118.1254                   21018113.9734
 11  8  1  2 51  0.0000000  0  7G29G25G10G12G05G04G02
  24702300.68447  19284818.27744  23767476.3054                   23767475.3164
   3469246.87148   2743628.52046  21940263.6954                   21940264.9734
 -26579954.65247 -20665813.94545  21939879.6334                   21939877.9494
 -21639925.86748 -16819263.44946  20805441.0784                   20805438.2464
 -16421876.45348 -12753338.39547  20337343.3054                   20337340.8164
 -49916317.06247 -38845381.03143  23851904.2734                   23851901.4654
 -41911582.64148 -32600932.60946  21005925.7194                   21005921.3874
 11  8  1  2 51 30.0000000  0  7G29G25G10G12G05G04G02
  24525105.02046  19146743.81344  23733755.8674                   23733756.0124
   3329178.10248   2634484.05546  21913609.3594                   21913610.3484
 -26596190.90648 -20678465.57045  21936790.2664                   21936787.6254
 -21712391.34048 -16875730.04346  20791650.9774                   20791648.2894
 -16539751.63748 -12845189.16847  20314912.4614                   20314909.7704
 -49928812.58647 -38855117.76643  23849525.5554                   23849524.2344
 -41975498.34848 -32650737.04746  20993762.9144                   20993758.1884
 11  8  1  2 52  0.0000000  0  7G29G25G10G12G05G04G02
  24347895.12947  19008658.27744  23700034.6564                   23700033.6604
   3189652.76648   2525763.05546  21887058.5084                   21887059.5164
 -26611996.02347 -20690781.25845  21933782.3444                   21933780.3484
 -21784271.53148 -16931740.56246  20777972.8204                   20777969.8524
 -16657038.51248 -12936581.52047  20292593.4534                   20292590.8524
 -49941332.48046 -38864873.55543  23847143.3984                   23847141.8164
 -42039259.10948 -32700420.76246  20981629.8444                   20981625.0084
 11  8  1  2 52 30.0000000  0  7G29G25G10G12G05G04G02
  24170671.70347  18870562.16844  23666310.4614                   23666309.2464
   3050672.18448   2417466.53146  21860611.8364                   21860612.3324
 -26627373.10247 -20702763.38745  21930856.1804                   21930853.6724
 -21855567.42648 -16987295.78946  20764405.7734                   20764403.0084
 -16773736.89848 -13027515.30547  20270386.4224                   20270384.0354
 -49953877.84046 -38874649.12143  23844756.1414                   23844754.2194
 -42102865.88748 -32749984.48046  20969525.6954                   20969520.9304
 11  8  1  2 53  0.0000000  0  7G29G25G10G12G05G04G02
  23993434.73847  18732455.50044  23632584.3204                   23632582.7034
   2912236.97348   2309594.95746  21834268.0944                   21834268.7544
 -26642325.61347 -20714414.68745  21928010.7974                   21928008.4264
 -21926280.98048 -17042397.24646  20750949.3754                   20750946.7894
 -16889847.55548 -13117991.11747  20248291.0314                   20248288.7344
 -49966450.16846 -38884445.80943  23842363.4534                   23842362.3754
 -42166320.57848 -32799429.68046  20957450.4454                   20957445.9264
 11  8  1  2 53 30.0000000  0  7G29G25G10G12G05G04G02
  23816185.74247  18594339.50044  23598854.2344                   23598853.7894
   2774348.84048   2202149.69146  21808028.9224                   21808029.5704
 -26656856.29347 -20725737.29745  21925245.9384                   21925243.8444
 -21996412.64548 -17097045.28546  20737603.7424                   20737601.1484
 -17005369.75048 -13208008.39147  20226307.9844                   20226305.6174
 -49979049.70746 -38894263.61743  23839965.7504                   23839964.8054
 -42229623.62548 -32848756.72346  20945404.4224                   20945399.6564
 11  8  1  2 54  0.0000000  0  7G29G25G10G12G05G04G02
  23638926.02346  18456215.12944  23565122.2504                   23565120.9024
   2637009.54748   2095132.08646  21781894.0784                   21781894.2584
 -26670967.52747 -20736733.06645  21922560.6334                   21922558.1724
 -22065963.37948 -17151240.65246  20724368.9304                   20724365.8834
 -17120302.56648 -13297566.41047  20204437.0234                   20204434.7664
 -49991676.73046 -38904102.85943  23837563.1884                   23837561.4734
 -42292775.36348 -32897965.85246  20933387.0944                   20933382.2274
 11  8  1  2 54 30.0000000  0  7G29G25G10G12G05G04G02
  25037080.41447  19545686.14844  23831182.4614                   23831180.6644
   4075643.28948   3216145.41446  22055657.0704                   22055657.1954
 -25109243.48847 -19519805.23845  22219746.3444                   22219743.9414
 -20559513.69148 -15977383.73846  21011036.6254                   21011033.7544
 -15659224.14548 -12159063.72347  20482471.1884                   20482468.6054
 -48428913.30146 -37686365.11343  24134947.0004                   24134945.7504
 -40780356.55148 -31719457.67646  21221190.9144                   21221186.1914
 11  8  1  2 55  0.0000000  0  7G29G25G10G12G05G04G02
  24859801.07447  19407546.47344  23797446.9384                   23797445.3484
   3939405.10248   3109985.80946  22029731.9614                   22029732.0164
 -25122525.15647 -19530154.59045  22217218.5234                   22217216.7974
 -20627905.99648 -16030676.43746  20998021.7424                   20998018.9964
 -15772978.97348 -12247703.82047  20460824.1644                   20460821.8634
 -48441597.97746 -37696249.27043  24132532.9694                   24132531.7194
 -40843209.43448 -31768433.94546  21209230.2194                   21209225.2544
 11  8  1  2 55 30.0000000  0  7G29G25G10G12G05G04G02
  24682514.33647  19269401.00444  23763710.8204                   23763709.5274
   3803720.19148   3004257.33646  22003911.6804                   22003911.5234
 -25135395.89847 -19540183.73845  22214769.5394                   22214767.7424
 -20695720.61348 -16083518.99646  20985117.4774                   20985114.3244
 -15886144.10548 -12335884.42647  20439289.8674                   20439287.2584
 -48454311.99246 -37706156.29743  24130113.3834                   24130112.3244
 -40905913.44948 -31817294.19946  21197298.0784                   21197293.9024
 11  8  1  2 56  0.0000000  0  7G29G25G10G12G05G04G02
  24505218.96947  19131248.83644  23729972.2814                   23729971.6294
   3668587.84448   2898959.41046  21978196.7734                   21978196.6884
 -25147860.55147 -19549896.45745  22212397.7114                   22212395.4494
 -20762960.27348 -16135913.53546  20972321.7974                   20972319.1414
 -15998721.01648 -12423606.66847  20417866.9924                   20417864.3134
 -48467057.56246 -37716087.85543  24127688.6174                   24127687.1804
 -40968471.39848 -31866040.65646  21185393.3754                   21185389.2074
 11  8  1  2 56 30.0000000  0  7G29G25G10G12G05G04G02
  24327916.30147  18993090.93444  23696232.4534                   23696232.0984
   3534009.19948   2794092.96946  21952587.7194                   21952587.8594
 -25159922.01647 -19559294.99645  22210102.9774                   22210100.6294
 -20829626.35948 -16187861.12946  20959635.6484                   20959632.7974
 -16110709.79748 -12510870.63347  20396556.0944                   20396553.6884
 -48479835.57846 -37726044.76643  24125256.8364                   24125255.5234
 -41030884.28148 -31914674.05946  21173516.3914                   21173512.5004
 11  8  1  2 57  0.0000000  0  7G29G25G10G12G05G04G02
  24150605.83647  18854927.00044  23662491.9844                   23662491.2664
   3399984.43848   2689658.11346  21927083.5704                   21927083.0824
 -25171584.43447 -19568382.60245  22207883.2664                   22207881.7234
 -20895721.26248 -16239363.65246  20947058.3984                   20947055.8484
 -16222111.55148 -12597677.16847  20375356.8674                   20375354.5164
 -48492647.75447 -37736028.29743  24122819.1094                   24122817.5514
 -41093153.98048 -31963195.87946  21161667.0164                   21161662.8164
 11  8  1  2 57 30.0000000  0  7G29G25G10G12G05G04G02
  23973290.43047  18716759.20744  23628749.6724                   23628749.1414
   3266516.44948   2585657.10246  21901685.3834                   21901685.7974
 -25182849.18447 -19577160.33645  22205740.0234                   22205738.2774
 -20961244.35948 -16290420.61746  20934589.6724                   20934586.9844
 -16332924.68748 -12684025.04747  20354270.1644                   20354267.6254
 -48505493.28546 -37746037.78543  24120373.4694                   24120372.3054
 -41155279.73848 -32011605.55146  21149844.9064                   21149840.6334
 11  8  1  2 58  0.0000000  0  7G29G25G10G12G05G04G02
  23795971.29347  18578588.51244  23595007.7734                   23595006.6644
   3133606.60548   2482091.01246  21876393.4614                   21876393.1484
 -25193718.76247 -19585630.14145  22203671.1334                   22203669.3554
 -21026196.34848 -16341032.55146  20922229.9064                   20922227.0554
 -16443148.81648 -12769913.95747  20333295.1484                   20333292.2344
 -48518372.20747 -37756073.29744  24117923.5394                   24117922.1884
 -41217262.23048 -32059903.57046  21138050.0234                   21138045.5084
 11  8  1  2 58 30.0000000  0  7G29G25G10G12G05G04G02
  23618648.66847  18440415.11744  23561263.5314                   23561262.8874
   3001255.36348   2378960.19146  21851207.4064                   21851207.8444
 -25204196.82847 -19593794.86345  22201677.7424                   22201675.6294
 -21090580.02048 -16391201.64846  20909978.1254                   20909975.2034
 -16552785.12948 -12855344.83647  20312432.0314                   20312429.2234
 -48531286.02746 -37766136.00043  24115465.6804                   24115464.9304
 -41279103.48048 -32108091.54346  21126282.0084                   21126277.6134
 11  8  1  2 59  0.0000000  0  7G29G25G10G12G05G04G02
  23441323.84047  18302240.02344  23527520.0394                   23527518.6334
   2869463.95748   2276265.61346  21826128.6024                   21826128.8204
 -25214286.66047 -19601657.06245  22199758.1024                   22199755.3714
 -21154396.50048 -16440928.77746  20897833.9454                   20897830.9494
 -16661833.16848 -12940317.31247  20291681.0944                   20291678.2624
 -48544235.24246 -37776226.26643  24113002.0084                   24113000.7814
 -41340803.65248 -32156169.58646  21114540.8284                   21114536.4064
 11  8  1  2 59 30.0000000  0  7G29G25G10G12G05G04G02
  23263997.04747  18164063.37544  23493775.3054                   23493774.5554
   2738232.84048   2174007.62146  21801155.8754                   21801155.8014
 -25223991.73847 -19609219.44545  22197910.9774                   22197908.4304
 -21217647.64548 -16490215.37946  20885797.8754                   20885794.9264
 -16770293.75448 -13024832.03547  20271041.3284                   20271038.3954
 -48557221.14546 -37786345.16843  24110529.7814                   24110528.7344
 -41402364.14548 -32204138.78946  21102826.0004                   21102822.1454
 11  8  1  3  0  0.0000000  0  7G29G25G10G12G05G04G02
  23086672.78547  18025888.71945  23460031.6644                   23460031.1804
   2607566.43448   2072189.65646  21776290.7814                   21776291.2154
 -25233311.50447 -19616481.59845  22196136.9384                   22196135.3284
 -21280331.49648 -16539059.94146  20873869.3754                   20873866.5434
 -16878163.75848 -13108886.55947  20250514.3284                   20250511.6724
 -48570241.05546 -37796490.53543  24108053.1804                   24108051.5044
 -41463782.91048 -32251997.54746  21091138.7894                   21091134.0554
 11  8  1  3  0 30.0000000  0  7G29G25G10G12G05G04G02
  22909351.23847  17887716.14544  23426288.3364                   23426286.5124
   2477465.03948   1970811.97346  21751533.7114                   21751533.3054
 -25242249.91847 -19623446.58245  22194436.1724                   22194434.0944
 -21342449.69548 -16587463.72746  20862048.6414                   20862045.7814
 -16985443.90248 -13192481.46147  20230099.6094                   20230096.9574
 -48583296.19946 -37806663.39143  24105568.9454                   24105567.5904
 -41525061.46948 -32299747.06246  21079477.2974                   21079473.5204
 11  8  1  3  1  0.0000000  0  7G29G25G10G12G05G04G02
  22732032.25447  17749545.53544  23392545.4614                   23392544.6724
   2347928.52348   1869874.43846  21726883.7584                   21726883.5084
 -25250811.20347 -19630117.71945  22192806.5784                   22192805.5514
 -21404005.54748 -16635429.32046  20850334.6884                   20850332.2624
 -17092135.67248 -13275617.88347  20209796.7034                   20209794.3634
 -48596388.33246 -37816865.04743  24103077.2504                   24103075.5944
 -41586201.67248 -32347388.77046  21067843.1564                   21067838.7624
 11  8  1  3  1 30.0000000  0  7G29G25G10G12G05G04G02
  22554717.77347  17611378.45744  23358803.3754                   23358803.1374
   2218958.57048   1769378.38746  21702341.6484                   21702341.8674
 -25258997.58647 -19636496.73045  22191249.1174                   22191246.9694
 -21464999.72348 -16682957.25446  20838728.1484                   20838725.0554
 -17198238.73448 -13358295.58247  20189606.2114                   20189603.3134
 -48609517.44546 -37827095.51643  24100578.6884                   24100577.8524
 -41647203.84448 -32394922.90646  21056234.6564                   21056230.3914
 11  8  1  3  2  0.0000000  0  7G29G25G10G12G05G04G02
  22377407.74647  17473214.84044  23325062.9614                   23325062.1954
   2090555.17648   1669323.80546  21677906.8914                   21677907.3484
 -25266813.17647 -19642586.80144  22189761.5944                   22189759.5704
 -21525434.87948 -16730049.57846  20827227.4614                   20827224.9024
 -17303754.43748 -13440515.59047  20169527.1414                   20169523.9184
 -48622685.13746 -37837356.07843  24098073.3674                   24098072.0234
 -41708069.74248 -32442350.87546  21044652.5164                   21044648.1054
 11  8  1  3  2 30.0000000  0  7G29G25G10G12G05G04G02
  22200104.52046  17335056.53944  23291322.8594                   23291321.9844
   1962720.59848   1569712.44946  21653581.0554                   21653581.8364
 -25274259.69147 -19648389.28144  22188344.5394                   22188343.1914
 -21585310.87148 -16776706.19546  20815833.8444                   20815831.3054
 -17408681.52048 -13522276.93047  20149560.0004                   20149557.6604
 -48635890.57046 -37847646.04343  24095559.9694                   24095559.1414
 -41768798.82848 -32489672.23046  21033096.1094                   21033092.0904
 11  8  1  3  3  0.0000000  0  7G29G25G10G12G05G04G02
  23598236.82047  18424510.34444  23557379.0394                   23557378.3094
   3410881.74248   2698149.73046  21929156.9694                   21929157.2504
 -23705918.23047 -18426305.03145  22486790.6174                   22486788.4494
 -20069205.77748 -15595325.60246  21104339.0944                   21104336.3404
 -15937595.01648 -12375975.73847  20429498.4064                   20429495.8244
 -47073712.21546 -36630364.24243  24392833.1564                   24392831.9614
 -40253968.08648 -31309284.63346  21321358.7344                   21321354.2504
 11  8  1  3  3 30.0000000  0  7G29G25G10G12G05G04G02
  23420950.71946  18286365.39844  23523642.1414                   23523641.2584
   3284187.73848   2599427.13346  21905047.7034                   21905048.0274
 -23712635.67647 -18431539.39544  22485511.1174                   22485509.3874
 -20127968.30948 -15641114.59046  21093156.7344                   21093154.2034
 -16041345.58648 -12456820.32847  20409755.6334                   20409753.0004
 -47086994.70346 -36640714.22743  24390305.9064                   24390303.9104
 -40314425.87548 -31356394.58646  21309854.1254                   21309849.5474
 11  8  1  3  4  0.0000000  0  7G29G25G10G12G05G04G02
  23243672.34047  18148226.47744  23489906.6094                   23489906.8364
   3158062.82448   2501147.99646  21881047.0474                   21881047.2894
 -23718995.52747 -18436495.12144  22484301.3914                   22484300.3054
 -20186179.04348 -15686473.60246  21082079.7424                   21082077.2344
 -16144511.02348 -12537208.96547  20390123.7504                   20390121.0634
 -47100319.13347 -36651096.91843  24387770.2664                   24387768.2704
 -40374751.78548 -31403401.78146  21298374.6024                   21298369.7154
 11  8  1  3  4 30.0000000  0  7G29G25G10G12G05G04G02
  23066405.12547  18010096.27744  23456174.6334                   23456173.3204
   3032510.21148   2403314.82846  21857155.3524                   21857155.7234
 -23724998.54747 -18441172.81645  22483160.3984                   22483157.7154
 -20243837.09448 -15731401.93746  21071107.4224                   21071104.9614
 -16247089.21548 -12617140.00847  20370603.6174                   20370601.4144
 -47113683.73847 -36661510.91843  24385227.6884                   24385224.8364
 -40434944.54348 -31450305.22346  21286920.1024                   21286915.7814
 11  8  1  3  5  0.0000000  0  7G29G25G10G12G05G04G02
  22889148.03547  17871973.96544  23422443.5004                   23422441.9614
   2907528.61748   2305926.57846  21833371.9064                   21833371.9384
 -23730649.98047 -18445576.52745  22482084.3204                   22482082.1454
 -20300945.96148 -15775902.35246  21060240.1884                   21060237.5164
 -16349082.91848 -12696615.60247  20351195.1644                   20351192.5204
 -47127091.13746 -36671958.24643  24382676.9534                   24382673.1844
 -40495006.57448 -31497106.79346  21275490.7584                   21275486.2814
 11  8  1  3  5 30.0000000  0  8G29G25G10G26G12G05G04G02
  22711906.01647  17733863.39144  23388715.5784                   23388713.6604
   2783122.64148   2208986.88346  21809698.4384                   21809699.1024
 -23735948.95347 -18449705.60544  22481075.6724                   22481073.4964
  37531373.72756  29290183.53953  24853905.7974                   24853906.8674
 -20357504.61348 -15819974.03146  21049477.2734                   21049474.5274
 -16450488.52048 -12775632.94147  20331898.2034                   20331895.5984
 -47140538.19546 -36682436.45343  24380116.9694                   24380114.8134
 -40554935.39148 -31543804.56246  21264086.6254                   21264082.1804
 11  8  1  3  6  0.0000000  0  8G29G25G10G26G12G05G04G02
  22534678.46947  17595764.10544  23354989.5944                   23354987.5004
   2659291.27748   2112494.91846  21786133.6414                   21786134.1564
 -23740900.18447 -18453563.69544  22480133.9304                   22480131.3594
  37343004.69146  29143402.66043  24818060.0704                   24818061.1844
 -20413515.77748 -15863619.09446  21038819.2424                   21038815.9734
 -16551308.26248 -12854193.76647  20312712.5944                   20312710.0434
 -47154027.09846 -36692947.32043  24377550.0864                   24377547.7934
 -40614733.47748 -31590400.48046  21252707.3754                   21252702.9924
 11  8  1  3  6 30.0000000  0  8G29G25G10G26G12G05G04G02
  22357460.05147  17457671.89544  23321266.1174                   23321264.5514
   2536028.62948   2016446.12946  21762678.0474                   21762678.0634
 -23745513.52047 -18457158.48844  22479255.1724                   22479252.9694
  37154517.24646  28996529.49243  24782192.7424                   24782193.2664
 -20468987.78948 -15906844.03546  21028262.9304                   21028260.2934
 -16651549.55148 -12932303.84847  20293637.5634                   20293634.8634
 -47167565.05946 -36703496.41443  24374973.7344                   24374972.1214
 -40674407.90648 -31636900.02346  21241352.1564                   21241347.0274
 11  8  1  3  7  0.0000000  0  8G29G25G10G26G12G05G04G02
  22180251.22346  17319587.19144  23287543.6564                   23287542.3674
   2413335.02748   1920840.75446  21739329.8914                   21739330.2854
 -23749792.56647 -18460492.80944  22478441.6334                   22478438.6454
  36965913.27346  28849565.52743  24746303.1174                   24746302.4774
 -20523922.56248 -15949650.35546  21017809.3364                   21017806.7544
 -16751213.00848 -13009963.66447  20274672.2814                   20274669.3874
 -47181152.86347 -36714084.32043  24372388.8284                   24372386.1804
 -40733960.05548 -31683304.28946  21230019.3524                   21230014.8134
 11  8  1  3  7 30.0000000  0  8G29G25G10G26G12G05G04G02
  22003056.79346  17181513.70744  23253825.1094                   23253823.2344
   2291214.71548   1825682.09046  21716091.3984                   21716091.7074
 -23753736.85947 -18463566.27744  22477691.0084                   22477688.4774
  36777199.18046  28702515.74243  24710391.2344                   24710391.7774
 -20578319.00048 -15992037.18446  21007458.1564                   21007455.4534
 -16850295.89148 -13087171.09847  20255817.2734                   20255815.0394
 -47194787.58646 -36724708.78543  24369793.5864                   24369792.5084
 -40793387.04348 -31729611.02346  21218710.6334                   21218706.0434
 11  8  1  3  8  0.0000000  0  8G29G25G10G26G12G05G04G02
  21825877.91846  17043452.34844  23220108.5784                   23220107.9104
   2169668.34048   1730970.67246  21692961.6644                   21692961.8324
 -23757349.67247 -18466381.46144  22477003.6804                   22477001.3134
  36588377.55946  28555382.12943  24674460.0554                   24674460.0634
 -20632178.37948 -16034005.52746  20997208.7504                   20997206.1844
 -16948798.42648 -13163926.30147  20237072.9534                   20237070.2074
 -47208469.66847 -36735370.15243  24367189.8754                   24367188.0314
 -40852690.05148 -31775821.15246  21207425.7034                   21207421.2234
 11  8  1  3  8 30.0000000  0  8G29G25G10G26G12G05G04G02
  21648718.04747  16905405.78944  23186396.9924                   23186395.2774
   2048698.94548   1636708.81646  21669941.6334                   21669942.2234
 -23760631.70347 -18468938.87944  22476378.8444                   22476376.9104
  36399453.55946  28408168.76643  24638509.0704                   24638508.5554
 -20685500.69148 -16075555.39146  20987061.7274                   20987058.6844
 -17046719.41848 -13240228.35247  20218439.3134                   20218436.5204
 -47222197.29347 -36746066.99643  24364577.6414                   24364576.3324
 -40911867.31648 -31821933.32446  21196164.6174                   21196160.6914
 11  8  1  3  9  0.0000000  0  8G29G25G10G26G12G05G04G02
  21471576.55947  16767373.58245  23152687.4694                   23152686.6954
   1928305.33648   1542895.64546  21647031.4844                   21647032.1994
 -23763587.51247 -18471242.12544  22475816.2504                   22475814.2664
  36210428.17246  28260876.42643  24602538.3524                   24602538.4694
 -20738289.13348 -16116689.23846  20977017.0164                   20977013.8914
 -17144060.73448 -13316078.71147  20199915.7584                   20199912.9774
 -47235972.94547 -36756801.28543  24361956.2734                   24361954.3754
 -40970921.28148 -31867949.39546  21184927.1724                   21184923.1214
 11  8  1  3  9 30.0000000  0  8G29G25G10G26G12G05G04G02
  21294456.95347  16629358.38345  23118982.9614                   23118982.6134
   1808490.22748   1449533.24246  21624231.5314                   21624231.5354
 -23766217.98047 -18473291.85244  22475315.7814                   22475313.6884
  36021306.14846  28113508.75843  24566549.1884                   24566549.4494
 -20790543.71548 -16157407.10946  20967072.9454                   20967070.1374
 -17240821.02048 -13391476.31647  20181503.0314                   20181500.1764
 -47249794.64546 -36767571.46543  24359325.7734                   24359324.9454
 -41029850.74248 -31913868.45346  21173713.2344                   21173708.8244
 11  8  1  3 10  0.0000000  0  8G29G25G10G26G12G05G04G02
  21117361.80947  16491362.25445  23085282.6484                   23085281.3634
   1689255.59048   1356623.16046  21601542.0944                   21601542.1454
 -23768525.05547 -18475089.58644  22474876.6484                   22474874.6214
  35832091.87546  27966069.15643  24530543.4844                   24530543.7894
 -20842264.53948 -16197709.03946  20957231.2034                   20957227.7074
 -17336999.53548 -13466420.60247  20163200.7664                   20163198.0904
 -47263661.79746 -36778377.04343  24356687.7734                   24356685.6174
 -41088655.06648 -31959690.00046  21162523.0864                   21162518.5164
 11  8  1  3 10 30.0000000  0  8G29G25G10G26G12G05G04G02
  20940293.12547  16353386.73044  23051587.7814                   23051586.4884
   1570602.92648   1264166.55546  21578963.2034                   21578963.5164
 -23770510.67247 -18476636.82844  22474499.2894                   22474496.8484
  35642788.85946  27818560.50443  24494519.5234                   24494520.0354
 -20893453.07048 -16237596.21146  20947489.7344                   20947487.0554
 -17432596.19548 -13540911.49647  20145009.3364                   20145006.7424
 -47277573.85546 -36789217.62543  24354039.3754                   24354038.3014
 -41147333.85948 -32005413.72746  21151356.6644                   21151352.2624
 11  8  1  3 11  0.0000000  0  8G29G25G10G26G12G05G04G02
  20763254.65647  16215434.75444  23017898.6804                   23017896.6724
   1452535.28148   1172165.81346  21556496.0784                   21556496.0514
 -23772175.40247 -18477934.00444  22474182.5704                   22474179.1524
  35453402.75046  27670987.07443  24458480.3674                   24458480.9224
 -20944108.03548 -16277067.61346  20937850.5474                   20937847.9064
 -17527609.13348 -13614947.52747  20126928.7274                   20126926.3014
 -47291528.64546 -36800091.48843  24351384.6254                   24351382.5204
 -41205885.40248 -32051038.30146  21140214.8754                   21140209.9804
 11  8  1  3 11 30.0000000  0  8G29G25G10G26G12G05G04G02
  22161669.70747  17305108.89144  23284008.1644                   23284006.4774
   2910472.96948   2308221.17646  21833932.1484                   21833932.5554
 -22198106.47747 -17251386.80544  22773718.1954                   22773715.0744
  36839358.16046  28750952.43443  24722219.0634                   24722218.8984
 -19418814.48448 -15088527.18446  21228104.3364                   21228101.3714
 -16046620.07848 -12460930.07447  20408751.7034                   20408749.1374
 -45730110.28546 -35583401.87543  24648512.0314                   24648510.9024
 -39688892.47348 -30868965.89546  21428889.4064                   21428884.9964
 11  8  1  3 12  0.0000000  0  8G29G25G10G26G12G05G04G02
  21984688.89147  17167201.83644  23250329.8524                   23250327.7624
   2793570.08648   2217128.02746  21811686.2894                   21811686.2234
 -22199145.78947 -17252196.64544  22773520.1094                   22773517.6884
  36649806.94146  28603250.35543  24686149.1804                   24686148.3954
 -19468416.16048 -15127177.85246  21218665.6954                   21218663.0784
 -16140474.55148 -12534063.40247  20390891.5164                   20390889.3204
 -45744158.82446 -35594348.79743  24645839.2194                   24645838.0354
 -39747198.43448 -30914399.10946  21417794.1484                   21417789.8094
 11  8  1  3 12 30.0000000  0  8G29G25G10G26G12G05G04G02
  21807740.39147  17029319.96544  23216657.5394                   23216655.9774
   2677251.96548   2126490.55946  21789551.4224                   21789552.1214
 -22199875.10547 -17252764.93444  22773381.1334                   22773378.9344
  36460179.23446  28455488.64143  24650062.9614                   24650063.4064
 -19517492.01248 -15165418.78546  21209326.5704                   21209323.9184
 -16233749.21548 -12606744.95347  20373142.1644                   20373139.4304
 -45758253.20346 -35605331.44943  24643156.4614                   24643155.2664
 -39805380.85548 -30959736.05546  21406722.2504                   21406717.8164
 11  8  1  3 13  0.0000000  0  8G29G25G10G26G12G05G04G02
  21630822.56647  16891462.01245  23182991.0944                   23182989.6054
   2561516.15248   2036306.82446  21767527.6334                   21767527.9654
 -22200300.66047 -17253096.55944  22773300.3834                   22773298.2074
  36270474.83246  28307667.17642  24613963.7814                   24613963.2504
 -19566047.67248 -15203254.36346  21200086.7424                   21200083.9574
 -16326447.53948 -12678977.38747  20355502.3284                   20355499.2934
 -45772396.74646 -35616352.42643  24640465.9304                   24640463.9224
 -39863443.56248 -31004979.72346  21395672.9614                   21395668.8874
 11  8  1  3 13 30.0000000  0  8G29G25G10G26G12G05G04G02
  21453939.93847  16753631.43844  23149330.9064                   23149329.0704
   2446366.07848   1946579.50846  21745615.3054                   21745615.6024
 -22200422.55147 -17253191.54744  22773277.0944                   22773274.7154
  36080699.52346  28159790.43843  24577851.3914                   24577850.2854
 -19614081.63348 -15240683.43046  21190946.1724                   21190943.4104
 -16418567.72748 -12750759.34047  20337972.2894                   20337969.9694
 -45786586.66446 -35627409.50843  24637764.7274                   24637763.9024
 -39921384.14848 -31050128.22346  21384647.0634                   21384642.5044
 11  8  1  3 14  0.0000000  0  8G29G25G10G26G12G05G04G02
  21277093.43447  16615829.02744  23115677.7734                   23115676.6684
   2331801.91848   1857308.75846  21723814.4224                   21723814.8164
 -22200243.82847 -17253052.28944  22773310.7974                   22773308.9884
  35890856.12546  28011860.72742  24541723.7194                   24541724.4774
 -19661596.29748 -15277707.85246  21181904.4144                   21181901.9884
 -16510110.80548 -12822091.59047  20320552.1564                   20320549.4144
 -45800823.82446 -35638503.40243  24635056.2584                   24635053.9064
 -39979203.73048 -31095182.43446  21373644.9384                   21373640.1524
 11  8  1  3 14 30.0000000  0  8G29G25G10G26G12G05G04G02
  21100284.12947  16478055.61345  23082032.5004                   23082031.1414
   2217823.86348   1768494.69946  21702124.7734                   21702125.2584
 -22199767.73847 -17252681.29744  22773401.6254                   22773399.1604
  35700947.56346  27863880.12543  24505586.1334                   24505585.7424
 -19708593.41848 -15314328.99246  21172961.3674                   21172958.8714
 -16601077.72348 -12892974.89147  20303241.8594                   20303239.1524
 -45815108.74646 -35649634.50843  24632337.1954                   24632336.4844
 -40036902.55148 -31140142.55146  21362665.0314                   21362660.4144
 11  8  1  3 15  0.0000000  0  8G29G25G10G26G12G05G04G02
  20923514.69547  16340313.25844  23048393.4844                   23048392.9454
   2104433.30948   1680138.44546  21680547.3754                   21680547.9614
 -22198996.43047 -17252080.27744  22773548.5084                   22773545.7544
  35510977.55146  27715851.68443  24469436.5394                   24469435.3054
 -19755074.52748 -15350548.04346  21164116.1094                   21164113.8404
 -16691468.23848 -12963409.04747  20286040.7894                   20286038.5594
 -45829440.82446 -35660802.41043  24629610.4224                   24629608.7584
 -40094480.70748 -31185008.63746  21351708.0394                   21351703.5274
 11  8  1  3 15 30.0000000  0  8G29G25G10G26G12G05G04G02
  20746783.88347  16202600.99645  23014763.7584                   23014762.5784
   1991628.41048   1592238.54746  21659081.3134                   21659081.1254
 -22197934.95347 -17251253.17244  22773750.6884                   22773748.2974
  35320946.78546  27567775.90243  24433273.9144                   24433274.7034
 -19801043.81248 -15386368.27046  21155368.7114                   21155366.1764
 -16781285.37548 -13033396.40247  20268949.3134                   20268946.3444
 -45843822.51246 -35672008.90243  24626873.6414                   24626872.3954
 -40151941.11748 -31229782.97346  21340773.5394                   21340769.5904
 11  8  1  3 16  0.0000000  0  8G29G25G10G26G12G05G04G02
  20570095.35947  16064921.68445  22981140.8834                   22981138.9534
   1879411.77748   1504797.02346  21637727.3054                   21637727.7624
 -22196584.45747 -17250200.84044  22774007.0784                   22774004.7814
  35130860.56647  27419656.86743  24397102.5314                   24397102.0514
 -19846501.26248 -15421789.65646  21146718.3284                   21146715.4384
 -16870527.76248 -13102935.91447  20251966.8524                   20251964.3594
 -45858251.82046 -35683252.61743  24624128.0474                   24624126.2034
 -40209281.80947 -31274464.03146  21329862.1334                   21329857.5124
 11  8  1  3 16 30.0000000  0  8G29G25G10G26G12G05G04G02
  20393445.73447  15927272.65245  22947525.8364                   22947524.1214
   1767778.43448   1417810.02346  21616484.1334                   21616484.8164
 -22194953.13347 -17248929.67244  22774317.4304                   22774315.8754
  34940716.57446  27271492.84043  24360918.8674                   24360918.7234
 -19891454.03948 -15456817.80546  21138163.8284                   21138161.6134
 -16959201.71548 -13172032.48847  20235093.1094                   20235090.3444
 -45872734.50046 -35694537.78143  24621371.3444                   24621370.6994
 -40266508.68747 -31319056.39146  21318972.5164                   21318968.1604
 11  8  1  3 17  0.0000000  0  8G29G25G10G26G12G05G04G02
  20216838.67647  15789656.82045  22913918.9534                   22913916.6954
   1656731.26648   1331279.77046  21595352.5234                   21595352.7034
 -22193041.26647 -17247439.90244  22774681.7274                   22774678.9384
  34750520.28946  27123288.08243  24324725.7344                   24324723.8914
 -19935901.83648 -15491452.46146  21129705.9384                   21129703.1254
 -17047305.60548 -13240684.85947  20218327.2424                   20218324.7504
 -45887268.08646 -35705862.68043  24618606.3834                   24618605.8164
 -40323619.75848 -31363558.52046  21308104.4144                   21308100.1374
 11  8  1  3 17 30.0000000  0  7G29G25G10G26G12G05G02
  20040280.20347  15652078.83645  22880320.5704                   22880318.5634
   1546275.10248   1245210.05546  21574333.2504                   21574334.2974
 -22190847.20347 -17245730.24244  22775099.1954                   22775097.0314
  34560279.57447  26975048.66843  24288524.1254                   24288523.1174
 -19979841.93448 -15525691.50446  21121344.3984                   21121341.7154
 -17134835.60248 -13308890.03547  20201670.7344                   20201668.3594
 -40380611.39548 -31407967.57046  21297259.3834                   21297254.9024
 11  8  1  3 18  0.0000000  0  7G29G25G10G26G12G05G02
  19863770.48847  15514538.83245  22846731.2664                   22846729.4694
   1436408.71948   1159599.89846  21553426.3674                   21553426.7304
 -22188375.60247 -17243804.30944  22775570.0474                   22775567.3364
  34369995.67646  26826775.59443  24252313.5704                   24252313.4454
 -20023277.80148 -15559537.62546  21113078.4614                   21113076.0274
 -17221794.47348 -13376650.17247  20185123.0784                   20185120.5394
 -40437485.41848 -31452284.98446  21286436.5864                   21286432.1994
 11  8  1  3 18 30.0000000  0  7G29G25G10G26G12G05G02
  19687310.73847  15377037.78145  22813152.3054                   22813150.8674
   1327132.17648   1074449.35546  21532632.0084                   21532632.2774
 -22185629.66047 -17241664.59444  22776092.0704                   22776089.6564
  34179671.54746  26678471.21543  24216096.1954                   24216096.3834
 -20066212.14548 -15592992.96546  21104908.7664                   21104906.0704
 -17308183.12948 -13443965.99247  20168684.1024                   20168681.1844
 -40494241.98448 -31496510.86346  21275636.0394                   21275631.4454
 11  8  1  3 19  0.0000000  0  7G29G25G10G26G12G05G02
  19510908.43447  15239581.49645  22779583.5084                   22779583.0164
   1218451.93448    989763.46546  21511950.7034                   21511950.9224
 -22182605.80147 -17239308.35244  22776666.6724                   22776665.4734
  33989316.55546  26530142.80143  24179872.9064                   24179871.8094
 -20108640.34448 -15626053.89846  21096834.8674                   21096832.0594
 -17393996.52748 -13510833.56247  20152354.1954                   20152351.5124
 -40550875.73448 -31540641.04746  21264859.0474                   21264854.6564
 11  8  1  3 19 30.0000000  0  7G29G25G10G26G12G05G02
  19334562.85247  15102169.42245  22746025.8284                   22746025.2344
   1110365.69548    905540.41446  21491382.8524                   21491382.5664
 -22179309.43046 -17236739.77044  22777294.1174                   22777292.4264
  33798931.43447  26381790.85943  24143643.7814                   24143642.5514
 -20150567.57048 -15658724.46546  21088856.6174                   21088853.5634
 -17479237.85948 -13577255.36747  20136133.2424                   20136130.5434
 -40607389.87548 -31584678.02746  21254104.9224                   21254100.3284
 11  8  1  3 20  0.0000000  0  7G29G25G10G26G12G05G02
  20733702.34047  16192408.05945  23012273.7114                   23012272.6764
   2578298.46148   2049384.13746  21770721.1414                   21770721.0314
 -20600322.52347 -16006360.35944  23077765.7664                   23077763.8914
  35183946.38746  27461023.41843  24407203.0394                   24407202.8594
 -18616573.69948 -14463404.57446  21380766.0084                   21380762.5824
 -15988484.33248 -12415629.23047  20419814.1724                   20419811.4924
 -39088361.76248 -30401019.76246  21543166.0164                   21543161.8014
 11  8  1  3 20 30.0000000  0  7G29G25G10G26G12G05G02
  20557477.05547  16055089.74245  22978739.4534                   22978738.1844
   2471403.49248   1966089.35946  21750379.3914                   21750379.5664
 -20596487.61747 -16003372.13344  23078496.1414                   23078493.8444
  34993512.64147  27312633.62143  24370964.9694                   24370963.5664
 -18657502.91448 -14495297.46146  21372977.1954                   21372974.1914
 -16072582.34448 -12481160.13747  20403810.8674                   20403808.0204
 -39144635.27748 -30444869.25446  21532457.6724                   21532453.0204
 11  8  1  3 21  0.0000000  0  7G29G25G10G26G12G05G02
  20381312.15647  15917818.45745  22945216.5314                   22945214.8834
   2365101.98048   1883257.01246  21730151.2814                   21730151.1994
 -20592390.42647 -16000179.52044  23079275.4144                   23079273.1414
  34803056.89547  27164226.65243  24334721.7504                   24334721.0594
 -18697938.31248 -14526805.57046  21365282.7504                   21365279.6804
 -16156112.56648 -12546248.60947  20387915.5704                   20387912.8554
 -39200791.49648 -30488627.33246  21521771.6094                   21521766.8204
 11  8  1  3 21 30.0000000  0  7G29G25G10G26G12G05G02
  20205205.55947  15780592.60245  22911704.1644                   22911702.3754
   2259390.48848   1800884.42246  21710034.7034                   21710034.7584
 -20588037.22347 -15996787.41444  23080104.1724                   23080101.6644
  34612578.79746  27015802.26643  24298476.0004                   24298475.0474
 -18737886.20348 -14557933.79746  21357680.6644                   21357678.2344
 -16239079.68048 -12610898.29747  20372127.5474                   20372124.7034
 -39256834.55948 -30532297.24246  21511107.0634                   21511102.4024
 11  8  1  3 22  0.0000000  0  7G29G25G10G26G12G05G02
  20029162.55147  15643416.30145  22878204.2114                   22878202.3324
   2154273.01648   1718974.71146  21690031.5234                   21690031.9304
 -20583427.17247 -15993195.16044  23080981.2034                   23080978.6804
  34422085.19946  26867365.80143  24262225.9064                   24262224.9534
 -18777344.49648 -14588680.51646  21350172.1954                   21350169.2544
 -16321480.72348 -12675106.89147  20356446.8914                   20356444.2464
 -39312760.75848 -30575876.09846  21500464.4844                   21500459.5314
 11  8  1  3 22 30.0000000  0  7G29G25G10G26G12G05G02
  19853184.10547  15506290.28545  22844716.4384                   22844714.2704
   2049748.99248   1637527.41846  21670141.0554                   21670141.5554
 -20578563.72347 -15989405.48044  23081906.1094                   23081904.8714
  34231579.01246  26718919.55543  24225972.8834                   24225972.4454
 -18816316.33648 -14619048.18046  21342755.7114                   21342752.9844
 -16403317.50848 -12738875.80147  20340873.9694                   20340871.0824
 -39368571.43048 -30619364.92246  21489844.1564                   21489839.4654
 11  8  1  3 23  0.0000000  0  7G29G25G10G26G12G05G02
  19677269.76647  15369214.25445  22811240.8134                   22811238.7584
   1945816.21948   1556540.84046  21650363.4924                   21650364.0204
 -20573451.86746 -15985422.23444  23082879.1804                   23082876.9574
  34041060.83246  26570463.97343  24189718.8284                   24189718.2584
 -18854806.12948 -14649040.23446  21335431.8984                   21335429.3284
 -16484593.45748 -12802207.69147  20325407.6564                   20325404.8914
 -39424269.06248 -30662765.67246  21479244.8754                   21479240.6454
 11  8  1  3 23 30.0000000  0  7G29G25G10G26G12G05G02
  19501420.14847  15232188.63344  22777777.6094                   22777775.7384
   1842473.76248   1476014.26646  21630698.0234                   21630698.2854
 -20568095.71947 -15981248.57444  23083898.0004                   23083895.6094
  33850532.94946  26422000.77743  24153461.8204                   24153461.3404
 -18892817.31648 -14678659.34446  21328198.6024                   21328195.9804
 -16565310.79748 -12865104.30547  20310047.9774                   20310045.2424
 -39479855.15648 -30706079.51246  21468667.3594                   21468663.4844
 11  8  1  3 24  0.0000000  0  7G29G25G10G26G12G05G02
  19325635.48447  15095213.64145  22744327.3134                   22744325.4224
   1739720.51648   1395946.80946  21611144.5944                   21611145.0904
 -20562499.28947 -15976887.73044  23084963.8834                   23084960.9574
  33659997.74646  26273531.89143  24117203.9534                   24117203.6884
 -18930353.17248 -14707908.07046  21321055.4304                   21321052.9304
 -16645471.64548 -12927567.30147  20294793.9844                   20294791.1914
 -39535331.12148 -30749307.54746  21458110.9224                   21458106.6684
 11  8  1  3 24 30.0000000  0  7G29G25G10G26G12G05G02
  19149919.73847  14958292.33245  22710889.0474                   22710887.7384
   1637558.37548   1316339.96146  21591704.1564                   21591704.4184
 -20556663.51246 -15972340.37544  23086073.7274                   23086072.1724
  33469460.18846  26125061.16443  24080946.0944                   24080946.3134
 -18967413.81248 -14736786.49646  21314003.2814                   21314000.3164
 -16725075.40648 -12989596.19147  20279645.5234                   20279643.0354
 -39590695.60548 -30792448.69946  21447575.1564                   21447571.1684
 11  8  1  3 25  0.0000000  0  7G29G25G10G26G12G05G02
  18974275.69947  14821426.92645  22677465.5394                   22677463.6484
   1535988.54348   1237194.62946  21572376.1414                   21572376.1214
 -20550590.08246 -15967607.82844  23087229.4304                   23087226.9384
  33278924.60946  25976591.94943  24044688.6884                   24044687.8364
 -19004000.69948 -14765295.75846  21307040.8444                   21307038.0554
 -16804121.78948 -13051190.77047  20264603.6254                   20264600.5514
 -39645947.84048 -30835502.39146  21437061.2814                   21437056.9494
 11  8  1  3 25 30.0000000  0  7G29G25G10G26G12G05G02
  18798703.58247  14684617.53545  22644055.6884                   22644053.0514
   1435009.73448   1158509.85946  21553160.2894                   21553160.6414
 -20544283.00847 -15962693.23044  23088429.7034                   23088427.2664
  33088392.99247  25828125.85943  24008432.3444                   24008431.3364
 -19040117.41448 -14793438.66046  21300167.8594                   21300165.4414
 -16882613.48848 -13112353.11347  20249667.0634                   20249664.0784
 -39701089.02048 -30878469.53946  21426567.6094                   21426563.5554
 11  8  1  3 26  0.0000000  0  7G29G25G10G26G12G05G02
  18623203.31647  14547864.14545  22610659.2974                   22610656.4494
   1334620.03548   1080284.12946  21534056.8134                   21534056.8954
 -20537746.85546 -15957600.15243  23089672.9694                   23089671.6684
  32897867.07146  25679664.17443  23972175.2664                   23972175.5124
 -19075767.82048 -14821218.19546  21293383.8914                   21293381.2114
 -16960553.53148 -13173085.60547  20234835.5314                   20234832.9024
 -39756121.47348 -30921351.95346  21416095.5314                   21416090.8524
 11  8  1  3 26 30.0000000  0  7G29G25G10G26G12G05G02
  18447780.54347  14411171.14545  22577276.8914                   22577274.6454
   1234823.05148   1002520.25446  21515066.1884                   21515066.7424
 -20530980.92646 -15952327.99244  23090960.9304                   23090958.5634
  32707353.89547  25531212.43043  23935922.0164                   23935920.5124
 -19110950.41848 -14848633.21946  21286688.7194                   21286686.4024
 -17037939.34848 -13233386.23447  20220109.5784                   20220106.4494
 -39811041.91848 -30964147.10946  21405644.4694                   21405640.5554
 11  8  1  3 27  0.0000000  0  7G29G25G10G26G12G05G02
  18272436.72347  14274539.66445  22543909.9064                   22543908.1914
   1135618.59048    925218.07846  21496188.0084                   21496187.9384
 -20523987.94947 -15946878.94144  23092291.7504                   23092290.0274
  32516856.21946  25382772.75443  23899671.8444                   23899670.3674
 -19145667.97348 -14875685.87146  21280082.5234                   21280080.0394
 -17114772.28548 -13293256.03547  20205489.0084                   20205486.0044
 -39865850.84048 -31006855.35246  21395214.9534                   21395210.5554
 11  8  1  3 27 30.0000000  0  7G29G25G10G26G12G05G02
  18097172.45347  14137970.14545  22510558.6254                   22510555.9964
   1037005.19948    848376.48046  21477422.5704                   21477422.8714
 -20516772.24647 -15941256.32044  23093664.9304                   23093663.0944
  32326376.46546  25234347.06643  23863424.5474                   23863423.1374
 -19179924.01648 -14902378.90246  21273563.4534                   21273560.9344
 -17191055.00448 -13352697.10947  20190972.6174                   20190969.8714
 -39920549.65648 -31049477.80146  21384805.9384                   21384802.0984
 11  8  1  3 28  0.0000000  0  7G29G25G10G26G12G05G02
  19497411.05147  15229065.21545  22777014.3204                   22777012.2114
   2514401.92648   1999594.72746  21758561.5944                   21758561.8164
 -18933920.91047 -14707865.66044  23394872.0634                   23394869.4104
  33711340.17246  26313539.66043  24126974.3984                   24126973.2154
 -17638303.79748 -13701116.39546  21566923.9224                   21566921.7504
 -15691370.12148 -12184111.48047  20476352.8204                   20476350.1884
 -38399720.98848 -29864416.50446  21674209.9454                   21674205.7584
 11  8  1  3 28 30.0000000  0  7G29G25G10G26G12G05G02
  19322303.78147  15092618.05945  22743692.8204                   22743690.4774
   2416963.13748   1923668.41046  21740019.6414                   21740019.9264
 -18926274.98847 -14701907.83244  23396326.5234                   23396324.7814
  33520898.98046  26165143.99644  24090734.3914                   24090734.0004
 -17671651.03148 -13727101.25846  21560578.7894                   21560575.9414
 -15766563.12148 -12242703.41847  20462044.5554                   20462041.4614
 -38454207.62548 -29906873.61746  21663841.6254                   21663836.7424
 11  8  1  3 29  0.0000000  0  7G29G25G10G26G12G05G02
  19147282.02347  14956237.52345  22710387.4534                   22710385.7384
   2320115.52748   1848202.73846  21721590.1094                   21721590.0904
 -18918413.91447 -14695782.30943  23397822.2194                   23397820.3404
  33330486.37547  26016770.66043  24054500.0314                   24054498.6484
 -17704543.19148 -13752731.52746  21554319.2974                   21554316.8324
 -15841209.03148 -12300869.05547  20447839.8364                   20447837.1844
 -38508584.48048 -29949245.19946  21653493.8914                   21653489.5204
 11  8  1  3 29 30.0000000  0  7G29G25G10G26G12G05G02
  18972344.35947  14819922.52045  22677097.8594                   22677096.0204
   2223856.15248   1773195.44946  21703272.7424                   21703272.5664
 -18910343.29347 -14689493.54744  23399358.2664                   23399356.1764
  33140102.86346  25868419.93843  24018270.9064                   24018269.8324
 -17736985.53148 -13778011.28546  21548145.7114                   21548143.1844
 -15915311.84448 -12358611.49647  20433738.4694                   20433735.8054
 -38562854.45348 -29991533.48846  21643166.8524                   21643162.1844
 11  8  1  3 30  0.0000000  0  7G29G25G10G26G12G05G02
  18797493.27347  14683674.95345  22643825.0474                   22643823.1024
   2128184.94948   1698646.46946  21685067.2664                   21685067.8324
 -18902065.85246 -14683043.59844  23400933.3284                   23400931.1764
  32949752.07846  25720094.77343  23982048.3444                   23982048.2894
 -17768980.22348 -13802942.21146  21542057.4924                   21542055.1524
 -15988872.93048 -12415931.81247  20419740.2194                   20419736.8284
 -38617017.77348 -30033738.66846  21632859.9614                   21632855.5004
 11  8  1  3 30 30.0000000  0  7G29G25G10G26G12G05G02
  18622732.64147  14547497.89545  22610568.7974                   22610566.9384
   2033103.72348   1624557.20346  21666973.7814                   21666973.7664
 -18893582.02046 -14676432.85544  23402548.0864                   23402545.7344
  32759439.57046  25571799.35543  23945833.2034                   23945832.0664
 -17800527.66447 -13827524.63346  21536053.5784                   21536051.1914
 -16061891.67648 -12472829.52747  20405845.3754                   20405842.2854
 -38671072.53148 -30075859.25046  21622573.6484                   21622568.9414
 11  8  1  3 31  0.0000000  0  7G29G25G10G26G12G05G02
  18448061.89147  14411390.87545  22577330.0164                   22577326.9694
   1938609.88348   1550925.65246  21648992.2274                   21648992.7034
 -18884897.16447 -14669665.44544  23404201.0314                   23404198.2774
  32569166.27746  25423534.53944  23909625.4224                   23909624.2304
 -17831632.57848 -13851762.23846  21530135.0084                   21530132.5704
 -16134371.48848 -12529307.29347  20392052.9614                   20392049.5824
 -38725021.25848 -30117897.22346  21612307.6414                   21612302.9964
 11  8  1  3 31 30.0000000  0  7G29G25G10G26G12G05G02
  18273483.13747  14275355.53145  22544108.7974                   22544106.1724
   1844703.52048   1477751.86346  21631122.6094                   21631122.5704
 -18876013.42647 -14662743.07444  23405891.0944                   23405889.3554
  32378936.18846  25275303.38343  23873425.4844                   23873424.4844
 -17862296.68048 -13875656.35546  21524299.7734                   21524297.4694
 -16206313.36348 -12585365.88747  20378362.6414                   20378359.6764
 -38778863.68448 -30159852.35946  21602061.7894                   21602056.9064
 11  8  1  3 32  0.0000000  0  7G29G25G10G26G12G05G02
  18098998.40247  14139393.43845  22510905.7504                   22510902.3244
   1751384.25848   1405035.57046  21613364.3444                   21613364.4574
 -18866933.78147 -14655668.01644  23407618.9064                   23407616.5704
  32188752.69547  25127108.55143  23837235.2344                   23837233.6484
 -17892522.75048 -13899209.14846  21518548.1644                   21518545.8794
 -16277718.66048 -12641006.36747  20364774.9614                   20364771.7384
 -38832599.99248 -30201724.80946  21591835.9924                   21591831.2814
